[[{"header":{"parameterUnit":"m.s-1","parameterCategory":1,"la1":30.6,"la2":29.2853,"lo1":-89.7004,"lo2":-87.6739,"dy":0.0162,"dx":0.0183,"nx":112,"ny":82,"refTime":"2026-04-27T00:00:00:Z","depth":0,"parameterNumber":2,"parameterNumberName":"U-component_of_WINDS"},"data":[0.0,0.0,0.0,0.0,0.0,0.0,0.0,0.0,0.0,0.0,0.0,0.0,0.0,0.0,0.0,0.0,0.0,0.0,0.0,0.0,0.0,0.0,0.0,0.0,0.0,0.0,0.0,0.0,0.0,0.0,0.0,0.0,0.0,0.0,0.0,0.0,0.0,0.0,0.0,0.0,0.0,0.0,0.0,0.0,0.0,0.0,0.0,0.0,0.0,0.0,0.0,0.0,0.0,0.0,0.0,0.0,0.0,0.0,0.0,0.0,0.0,0.0,0.0,0.0,0.0,0.0,0.0,0.0,0.0,0.0,0.0,0.0,0.0,0.0,0.0,0.0,0.0,0.0,0.0,0.0,0.0,0.0,0.0,0.0,0.0,0.0,0.0,0.0,0.0,0.0,5.483,5.6619,5.9398,6.043,5.8717,5.725,5.5671,5.3937,0.0,0.0,0.0,0.0,0.0,0.0,0.0,0.0,0.0,0.0,0.0,0.0,0.0,0.0,0.0,0.0,0.0,0.0,0.0,0.0,0.0,0.0,0.0,0.0,0.0,0.0,0.0,0.0,0.0,0.0,0.0,0.0,0.0,0.0,0.0,0.0,0.0,0.0,0.0,0.0,0.0,0.0,0.0,0.0,0.0,0.0,0.0,0.0,0.0,0.0,0.0,0.0,0.0,0.0,0.0,0.0,0.0,0.0,0.0,0.0,0.0,0.0,0.0,0.0,0.0,0.0,0.0,0.0,0.0,0.0,0.0,0.0,0.0,0.0,0.0,0.0,0.0,0.0,0.0,0.0,0.0,0.0,0.0,0.0,0.0,0.0,0.0,0.0,0.0,0.0,0.0,0.0,0.0,0.0,0.0,0.0,0.0,0.0,0.0,0.0,0.0,0.0,0.0,0.0,5.6858,5.9782,6.1624,6.1995,6.0374,5.9265,5.7712,5.5456,0.0,0.0,0.0,0.0,0.0,0.0,0.0,0.0,0.0,0.0,0.0,0.0,0.0,0.0,0.0,0.0,0.0,0.0,0.0,0.0,0.0,0.0,0.0,0.0,0.0,0.0,0.0,0.0,0.0,0.0,0.0,0.0,0.0,0.0,0.0,0.0,0.0,0.0,0.0,0.0,0.0,0.0,0.0,0.0,0.0,0.0,0.0,0.0,0.0,0.0,0.0,0.0,0.0,0.0,0.0,0.0,0.0,0.0,0.0,0.0,0.0,0.0,0.0,0.0,0.0,0.0,0.0,0.0,0.0,0.0,0.0,0.0,0.0,0.0,0.0,0.0,0.0,0.0,0.0,0.0,0.0,0.0,0.0,0.0,0.0,0.0,0.0,0.0,0.0,0.0,0.0,0.0,0.0,0.0,0.0,0.0,0.0,0.0,0.0,0.0,0.0,0.0,0.0,5.7164,5.9339,6.1144,6.2732,6.2794,6.0662,5.9305,5.7703,5.5721,5.2441,0.0,0.0,0.0,0.0,0.0,0.0,0.0,0.0,0.0,0.0,0.0,0.0,0.0,0.0,0.0,0.0,0.0,0.0,0.0,0.0,0.0,0.0,0.0,0.0,0.0,0.0,0.0,0.0,0.0,0.0,0.0,0.0,0.0,0.0,0.0,0.0,0.0,0.0,0.0,0.0,0.0,0.0,0.0,0.0,0.0,0.0,0.0,0.0,0.0,0.0,0.0,0.0,0.0,0.0,0.0,0.0,0.0,0.0,0.0,0.0,0.0,0.0,0.0,0.0,0.0,0.0,0.0,0.0,0.0,0.0,0.0,0.0,0.0,0.0,0.0,0.0,0.0,0.0,0.0,0.0,0.0,0.0,0.0,0.0,0.0,0.0,0.0,0.0,0.0,0.0,0.0,0.0,0.0,0.0,0.0,0.0,0.0,0.0,0.0,0.0,0.0,0.0,6.0259,6.154,6.2254,6.3432,6.3309,6.1153,5.9318,5.7519,5.5706,5.2769,0.0,0.0,0.0,0.0,0.0,0.0,0.0,0.0,0.0,0.0,0.0,0.0,0.0,0.0,0.0,0.0,0.0,0.0,0.0,0.0,0.0,0.0,0.0,0.0,0.0,0.0,0.0,0.0,0.0,0.0,0.0,0.0,0.0,0.0,0.0,0.0,0.0,0.0,0.0,0.0,0.0,0.0,0.0,0.0,0.0,0.0,0.0,0.0,0.0,0.0,0.0,0.0,0.0,0.0,0.0,0.0,0.0,0.0,0.0,0.0,0.0,0.0,0.0,0.0,0.0,0.0,0.0,0.0,0.0,0.0,0.0,0.0,0.0,0.0,0.0,0.0,0.0,0.0,0.0,0.0,0.0,0.0,0.0,0.0,0.0,0.0,0.0,0.0,0.0,0.0,0.0,0.0,0.0,0.0,0.0,0.0,0.0,0.0,0.0,0.0,0.0,0.0,6.1765,6.3014,6.3858,6.4042,6.3686,6.2732,6.0469,5.8107,5.5757,5.2712,0.0,0.0,0.0,0.0,0.0,0.0,0.0,0.0,0.0,0.0,0.0,0.0,0.0,0.0,0.0,0.0,0.0,0.0,0.0,0.0,0.0,0.0,0.0,0.0,0.0,0.0,0.0,0.0,0.0,0.0,0.0,0.0,0.0,0.0,0.0,0.0,0.0,0.0,0.0,0.0,0.0,0.0,0.0,0.0,0.0,0.0,0.0,0.0,0.0,0.0,0.0,0.0,0.0,0.0,0.0,0.0,0.0,0.0,0.0,0.0,0.0,0.0,0.0,0.0,0.0,0.0,0.0,0.0,0.0,0.0,0.0,0.0,0.0,0.0,0.0,0.0,0.0,0.0,0.0,0.0,0.0,0.0,0.0,0.0,0.0,0.0,0.0,0.0,0.0,0.0,0.0,0.0,0.0,0.0,0.0,0.0,0.0,0.0,0.0,0.0,0.0,0.0,6.2316,6.3723,6.4053,6.453,6.431,6.289,6.0579,5.8377,5.6455,0.0,0.0,0.0,0.0,0.0,0.0,0.0,0.0,0.0,0.0,0.0,0.0,0.0,0.0,0.0,0.0,0.0,0.0,0.0,0.0,0.0,0.0,0.0,0.0,0.0,0.0,0.0,0.0,0.0,0.0,0.0,0.0,0.0,0.0,0.0,0.0,0.0,0.0,0.0,0.0,0.0,0.0,0.0,0.0,0.0,0.0,0.0,0.0,0.0,0.0,0.0,0.0,0.0,0.0,0.0,0.0,0.0,0.0,0.0,0.0,0.0,0.0,0.0,0.0,0.0,0.0,0.0,0.0,0.0,0.0,0.0,0.0,0.0,0.0,0.0,0.0,0.0,0.0,0.0,0.0,0.0,0.0,0.0,0.0,0.0,0.0,0.0,0.0,0.0,0.0,0.0,0.0,0.0,0.0,0.0,0.0,0.0,0.0,0.0,0.0,0.0,0.0,6.0272,6.2952,6.4567,6.4824,6.5118,6.4861,6.3686,6.1129,5.8804,5.6932,0.0,0.0,0.0,0.0,0.0,0.0,0.0,0.0,0.0,0.0,0.0,0.0,0.0,0.0,0.0,0.0,0.0,0.0,0.0,0.0,0.0,0.0,0.0,0.0,0.0,0.0,0.0,0.0,0.0,0.0,0.0,0.0,0.0,0.0,0.0,0.0,0.0,0.0,0.0,0.0,0.0,0.0,0.0,0.0,0.0,0.0,0.0,0.0,0.0,0.0,0.0,0.0,0.0,0.0,0.0,0.0,0.0,0.0,0.0,0.0,0.0,0.0,0.0,0.0,0.0,0.0,0.0,0.0,0.0,0.0,0.0,0.0,0.0,0.0,0.0,0.0,0.0,0.0,0.0,0.0,0.0,0.0,0.0,0.0,0.0,0.0,0.0,0.0,0.0,0.0,0.0,0.0,0.0,0.0,0.0,0.0,0.0,0.0,0.0,0.0,0.0,0.0,6.108,6.3759,6.5632,6.6402,6.5778,6.5301,6.5301,6.2328,5.9391,0.0,0.0,0.0,0.0,0.0,0.0,0.0,0.0,0.0,0.0,0.0,0.0,0.0,0.0,0.0,0.0,0.0,0.0,0.0,0.0,0.0,0.0,0.0,0.0,0.0,0.0,0.0,0.0,0.0,0.0,0.0,0.0,0.0,0.0,0.0,0.0,0.0,0.0,0.0,0.0,0.0,0.0,0.0,0.0,0.0,0.0,0.0,0.0,0.0,0.0,0.0,0.0,0.0,0.0,0.0,0.0,0.0,0.0,0.0,0.0,0.0,0.0,0.0,0.0,0.0,0.0,0.0,0.0,0.0,0.0,0.0,0.0,0.0,0.0,0.0,0.0,0.0,0.0,0.0,0.0,0.0,0.0,0.0,0.0,0.0,0.0,0.0,0.0,0.0,0.0,0.0,0.0,0.0,0.0,0.0,0.0,0.0,0.0,0.0,0.0,0.0,0.0,0.0,6.108,6.3759,6.5632,6.6402,6.6292,6.5925,6.5375,6.3356,6.0823,5.7813,0.0,0.0,0.0,0.0,0.0,0.0,0.0,0.0,0.0,0.0,0.0,0.0,0.0,0.0,0.0,0.0,0.0,0.0,0.0,0.0,0.0,0.0,0.0,0.0,0.0,0.0,0.0,0.0,0.0,0.0,0.0,0.0,0.0,0.0,0.0,0.0,0.0,0.0,0.0,0.0,0.0,0.0,0.0,0.0,0.0,0.0,0.0,0.0,0.0,0.0,0.0,0.0,0.0,0.0,0.0,0.0,0.0,0.0,0.0,0.0,0.0,0.0,0.0,0.0,0.0,0.0,0.0,0.0,0.0,0.0,0.0,0.0,0.0,0.0,0.0,0.0,0.0,0.0,0.0,0.0,0.0,0.0,0.0,0.0,0.0,0.0,0.0,0.0,0.0,0.0,0.0,0.0,0.0,0.0,0.0,0.0,0.0,0.0,0.0,0.0,0.0,0.0,6.1557,6.4237,6.6109,6.688,6.6696,6.6182,6.5375,6.409,6.1814,5.8217,0.0,0.0,0.0,0.0,0.0,0.0,0.0,0.0,0.0,0.0,0.0,0.0,0.0,0.0,0.0,0.0,0.0,0.0,0.0,0.0,0.0,0.0,0.0,0.0,0.0,0.0,0.0,0.0,0.0,0.0,0.0,0.0,0.0,0.0,0.0,0.0,0.0,0.0,0.0,0.0,0.0,0.0,0.0,0.0,0.0,0.0,0.0,0.0,0.0,0.0,0.0,0.0,0.0,0.0,0.0,0.0,0.0,0.0,0.0,0.0,0.0,0.0,0.0,0.0,0.0,0.0,0.0,0.0,0.0,0.0,0.0,0.0,0.0,0.0,0.0,0.0,0.0,0.0,0.0,0.0,0.0,0.0,0.0,0.0,0.0,0.0,0.0,0.0,0.0,0.0,0.0,0.0,0.0,0.0,0.0,0.0,0.0,0.0,0.0,0.0,0.0,0.0,6.2266,6.5044,6.688,6.7614,6.71,6.6366,6.5485,6.4677,6.2511,5.8474,0.0,0.0,0.0,0.0,0.0,0.0,0.0,0.0,0.0,0.0,0.0,0.0,0.0,0.0,0.0,0.0,0.0,0.0,0.0,0.0,0.0,0.0,0.0,0.0,0.0,0.0,0.0,0.0,0.0,0.0,0.0,0.0,0.0,0.0,0.0,0.0,0.0,0.0,0.0,0.0,0.0,0.0,0.0,0.0,0.0,0.0,0.0,0.0,0.0,0.0,0.0,0.0,0.0,0.0,0.0,0.0,0.0,0.0,0.0,0.0,5.6883,5.6065,0.0,0.0,0.0,0.0,0.0,0.0,0.0,0.0,0.0,0.0,0.0,0.0,0.0,0.0,0.0,0.0,0.0,0.0,0.0,0.0,0.0,0.0,0.0,0.0,0.0,0.0,0.0,0.0,0.0,0.0,0.0,0.0,0.0,0.0,0.0,0.0,0.0,0.0,0.0,0.0,6.2266,6.5521,6.7504,6.7677,6.8091,6.7797,6.6366,6.5521,6.3576,6.0126,5.7042,0.0,0.0,0.0,0.0,0.0,0.0,0.0,0.0,0.0,0.0,0.0,0.0,0.0,0.0,0.0,0.0,0.0,0.0,0.0,0.0,0.0,0.0,0.0,0.0,0.0,0.0,0.0,0.0,0.0,0.0,0.0,0.0,0.0,0.0,0.0,0.0,0.0,0.0,0.0,0.0,0.0,0.0,0.0,0.0,0.0,0.0,0.0,0.0,0.0,0.0,0.0,0.0,0.0,0.0,0.0,0.0,0.0,0.0,0.0,5.9318,5.8545,0.0,0.0,0.0,0.0,0.0,0.0,0.0,0.0,0.0,0.0,0.0,0.0,0.0,0.0,0.0,0.0,0.0,0.0,0.0,0.0,0.0,0.0,0.0,0.0,0.0,0.0,0.0,0.0,0.0,0.0,0.0,0.0,0.0,0.0,0.0,0.0,0.0,0.0,0.0,0.0,6.2303,6.5999,6.8274,6.8274,6.9009,6.8825,6.721,6.6696,6.4897,6.1227,5.8327,0.0,0.0,0.0,0.0,0.0,0.0,0.0,0.0,0.0,0.0,0.0,0.0,0.0,0.0,0.0,0.0,0.0,0.0,0.0,0.0,0.0,0.0,0.0,0.0,0.0,0.0,0.0,0.0,0.0,0.0,0.0,0.0,0.0,0.0,0.0,0.0,0.0,0.0,0.0,0.0,0.0,0.0,0.0,0.0,0.0,0.0,0.0,0.0,0.0,0.0,0.0,0.0,0.0,6.2719,6.3091,6.3565,6.3835,6.4613,6.5628,6.3453,6.2751,6.3164,6.2248,0.0,0.0,0.0,0.0,0.0,0.0,0.0,0.0,0.0,0.0,0.0,0.0,0.0,0.0,0.0,0.0,0.0,0.0,0.0,0.0,0.0,0.0,6.0357,6.0186,5.9633,5.8315,5.5358,0.0,0.0,0.0,0.0,0.0,0.0,0.0,0.0,0.0,0.0,0.0,6.2654,6.6499,6.8916,6.898,6.9705,6.9577,6.799,6.776,6.6145,6.2475,5.9979,5.7299,0.0,0.0,0.0,0.0,0.0,0.0,0.0,0.0,0.0,0.0,0.0,0.0,0.0,0.0,0.0,0.0,0.0,0.0,0.0,0.0,0.0,0.0,0.0,0.0,0.0,0.0,0.0,0.0,0.0,0.0,0.0,0.0,5.6089,5.619,0.0,0.0,0.0,0.0,0.0,0.0,0.0,0.0,0.0,0.0,0.0,0.0,0.0,6.3226,6.3869,6.5222,6.6305,6.7049,6.8368,6.8741,6.8267,6.9553,7.0229,7.0432,7.0669,0.0,6.5338,6.5298,0.0,0.0,0.0,0.0,0.0,0.0,0.0,0.0,0.0,0.0,0.0,0.0,0.0,0.0,0.0,0.0,0.0,0.0,0.0,0.0,0.0,0.0,6.3226,6.326,6.3037,6.2474,6.1397,5.9495,5.7779,5.7098,5.6163,5.508,0.0,0.0,0.0,0.0,0.0,0.0,6.3719,6.7012,6.914,6.9259,7.0135,7.0098,6.8604,6.7973,6.688,6.4934,6.2475,6.0309,5.8487,5.5978,0.0,0.0,0.0,0.0,0.0,0.0,0.0,0.0,0.0,0.0,0.0,0.0,0.0,0.0,0.0,0.0,0.0,0.0,0.0,0.0,0.0,0.0,0.0,0.0,0.0,0.0,0.0,0.0,0.0,5.7273,5.866,5.866,5.893,5.8863,0.0,0.0,0.0,0.0,0.0,0.0,0.0,0.0,0.0,6.3226,6.5865,6.7624,6.8368,6.9823,7.0939,7.1684,7.236,7.2969,7.351,7.4153,7.4897,7.5676,7.5574,7.4424,7.2406,6.9669,6.7445,6.5576,0.0,0.0,0.0,0.0,6.4996,6.5595,6.6344,6.6837,6.708,6.7043,0.0,0.0,0.0,0.0,0.0,0.0,0.0,6.2624,6.4178,6.4813,6.51,6.542,6.5399,6.5155,6.441,6.3205,6.1497,5.8932,5.7503,5.6353,5.5142,5.3736,0.0,0.0,0.0,6.1091,6.3775,6.7047,6.9217,6.9471,7.0475,7.0787,6.9894,6.9786,6.8825,6.6769,6.5191,6.3429,6.1312,5.8914,5.6712,0.0,0.0,0.0,0.0,0.0,0.0,0.0,0.0,0.0,0.0,0.0,0.0,0.0,0.0,0.0,0.0,0.0,0.0,0.0,0.0,0.0,0.0,0.0,0.0,0.0,0.0,0.0,0.0,5.9742,6.14,6.1772,6.1975,6.1806,0.0,0.0,0.0,0.0,0.0,0.0,6.2922,6.458,6.6,6.7083,6.9857,7.1684,7.2428,7.3916,7.4999,7.5777,7.5946,7.6623,7.7739,7.7942,7.8619,7.9634,7.9261,7.8889,7.8213,7.3932,7.123,6.9669,6.797,6.7543,6.7883,6.8213,6.9118,7.0359,7.1408,7.1912,7.205,7.205,7.0441,6.8199,6.6497,0.0,0.0,0.0,0.0,6.5056,6.6432,6.6798,6.6912,6.7531,6.7692,6.7489,6.6711,6.612,6.4532,6.0659,5.9045,5.795,5.6842,5.5564,0.0,5.7645,5.9835,6.2008,6.4372,6.7085,6.9096,6.9716,7.0613,7.1069,7.0617,7.0939,7.0254,6.8019,6.7139,6.5783,6.3705,6.1507,5.9566,5.7954,0.0,0.0,0.0,0.0,0.0,0.0,0.0,0.0,0.0,0.0,0.0,0.0,0.0,0.0,0.0,0.0,0.0,0.0,0.0,0.0,0.0,0.0,0.0,0.0,0.0,0.0,0.0,0.0,0.0,6.6305,6.7083,0.0,0.0,0.0,0.0,6.5358,6.6643,6.7489,6.7557,6.9688,7.0939,7.1041,7.3206,7.4728,7.5473,7.6995,7.8145,7.8889,7.96,7.9972,8.0073,8.075,8.1088,8.1224,8.19,8.1393,7.9904,7.7536,7.5676,7.4187,7.3421,7.2677,7.2101,7.2101,7.2575,7.34,7.4145,7.489,7.5466,7.5466,7.3,6.9894,6.8736,6.7617,0.0,0.0,6.8252,6.8128,6.9344,6.9314,6.9113,6.9857,7.0026,6.9823,6.9079,6.793,6.6167,6.3265,6.1901,6.1016,6.022,0.0,5.9625,6.1223,6.2369,6.3869,6.6176,6.7442,6.8609,6.9743,7.0407,7.0554,7.0089,7.0514,7.0121,6.845,6.7603,6.6773,6.5897,6.4256,6.2615,6.0985,5.9272,0.0,0.0,0.0,0.0,0.0,0.0,0.0,0.0,0.0,0.0,0.0,0.0,0.0,0.0,0.0,0.0,0.0,0.0,0.0,0.0,0.0,0.0,0.0,0.0,0.0,0.0,0.0,0.0,6.8876,6.9654,0.0,6.9722,6.8605,6.847,6.9891,7.05,7.1413,7.2834,7.4187,7.5337,7.6318,7.801,7.9025,7.9295,8.031,8.0953,8.1224,8.1494,8.1866,8.234,8.2577,8.2983,8.3422,8.3186,8.2813,8.2238,8.0953,7.872,7.5946,7.4695,7.4356,7.4593,7.51,7.5743,7.6555,7.7773,7.8077,7.757,7.5832,7.4173,7.2579,7.0925,6.994,6.9582,7.0308,7.0262,7.0237,7.1429,7.1444,7.1413,7.2124,7.2293,7.2124,7.1379,7.0236,6.8795,6.7191,6.4789,6.2734,6.1981,6.1531,6.1664,6.2689,6.3665,6.4744,6.6048,6.7069,6.8007,6.886,6.9635,7.023,7.0417,7.1153,7.1112,7.0018,6.969,6.8924,6.7583,6.649,6.5168,6.3537,6.1423,5.8967,0.0,0.0,0.0,0.0,0.0,0.0,0.0,0.0,0.0,0.0,0.0,0.0,0.0,0.0,0.0,0.0,0.0,0.0,0.0,0.0,0.0,0.0,0.0,0.0,0.0,6.7692,7.0669,7.1887,7.2732,7.3206,7.3206,7.2326,7.2326,7.3815,7.439,7.5303,7.6758,7.7807,7.8822,7.9803,8.1021,8.19,8.2408,8.2915,8.3422,8.393,8.393,8.4031,8.4268,8.4268,8.4403,8.4606,8.4099,8.3727,8.3456,8.2983,8.119,7.8619,7.7367,7.7299,7.7976,7.828,7.8991,7.9972,8.0953,8.0851,7.9803,7.7527,7.6271,7.531,7.3748,7.2871,7.2528,7.2784,7.2541,7.2356,7.3142,7.3027,7.2868,7.3375,7.3477,7.3341,7.2868,7.2124,7.1253,7.0409,6.7353,6.4727,6.4171,6.395,6.414,6.4884,6.5596,6.6296,6.7078,6.7755,6.8329,6.8616,6.951,7.0168,7.0409,7.1171,7.121,7.0163,7.0054,6.9394,6.7826,6.7302,6.6567,6.5512,6.2857,6.0077,5.7313,0.0,0.0,0.0,0.0,0.0,0.0,0.0,0.0,0.0,0.0,0.0,0.0,0.0,0.0,0.0,0.0,0.0,0.0,0.0,0.0,0.0,0.0,0.0,6.7895,7.0635,7.3341,7.554,7.6521,7.6995,7.7029,7.7029,7.7063,7.7063,7.8416,7.9228,7.9261,8.0581,8.1359,8.1426,8.2137,8.3219,8.4674,8.4708,8.5452,8.6907,8.6907,8.6535,8.5824,8.5824,8.5418,8.4708,8.4708,8.4268,8.3592,8.3592,8.3152,8.2475,8.1629,8.1765,8.234,8.1596,8.2272,8.3524,8.3524,8.3016,8.2205,8.0682,7.9228,7.7908,7.7164,7.6386,7.5777,7.5777,7.527,7.4728,7.4728,7.4187,7.3612,7.3612,7.3612,7.3612,7.3612,7.3578,7.3341,7.2597,6.9693,6.7233,6.6956,6.6914,6.7117,6.7827,6.8176,0.0,6.9279,6.9561,6.9548,6.9204,7.0015,7.041,6.9884,7.0509,7.0296,6.8786,6.861,6.7954,6.6626,6.677,6.6858,6.6858,6.3708,6.0484,5.7297,0.0,0.0,0.0,0.0,0.0,0.0,0.0,0.0,0.0,0.0,0.0,0.0,0.0,0.0,0.0,0.0,0.0,0.0,0.0,0.0,0.0,6.776,7.0128,7.0364,7.3409,7.6284,7.7976,7.8822,7.9498,8.004,8.0073,8.031,8.0851,8.1257,8.1731,8.2272,8.2678,8.3389,8.4505,8.4742,8.5317,8.6264,8.6298,8.6501,8.6907,8.6907,8.6805,8.6602,8.6602,8.6501,8.6298,8.6298,8.6163,8.5926,8.5384,8.5351,8.5452,8.305,8.2238,8.2441,8.278,8.349,8.4234,8.3693,8.3355,8.2881,8.0851,7.9938,7.9363,7.8077,7.7536,7.7367,7.7367,7.7198,7.7063,7.7063,7.6893,7.6758,7.6758,7.6758,7.6623,7.6082,7.5506,7.4864,7.4153,7.2778,7.1232,6.9519,6.8808,6.8538,6.8741,6.8818,6.8929,6.9166,6.9209,6.9118,6.8795,6.9745,6.9906,6.8678,6.9312,6.9506,6.8946,6.8508,6.8102,6.7801,6.8275,6.8271,6.7692,6.4504,6.1888,0.0,0.0,0.0,0.0,0.0,0.0,0.0,0.0,0.0,0.0,0.0,0.0,0.0,0.0,0.0,0.0,0.0,0.0,0.0,0.0,0.0,0.0,7.0466,7.3138,7.439,7.6454,7.8247,7.9431,8.0479,8.1291,8.1731,8.1765,8.2069,8.2813,8.2881,8.3321,8.4403,8.4437,8.5012,8.623,8.6264,8.6602,8.7347,8.738,8.7516,8.782,8.782,8.7651,8.738,8.738,8.7211,8.6907,8.6907,8.6907,8.6873,8.6433,8.6501,8.667,0.0,0.0,0.0,0.0,8.4539,8.4573,8.4133,8.3964,8.3693,8.2103,8.1596,8.1291,7.9803,7.916,7.8855,7.8551,7.8247,7.7976,7.7976,7.7976,7.7976,7.7976,7.7976,7.7874,7.7435,7.6995,7.6454,7.5709,7.4965,0.0,7.2326,7.1176,7.0398,7.006,7.0026,7.0026,7.0026,7.0026,6.9897,6.9586,7.0164,7.0091,6.894,6.9105,0.0,0.0,0.0,6.8208,6.8414,6.8538,0.0,0.0,0.0,0.0,0.0,6.1743,0.0,0.0,5.8709,5.9579,0.0,0.0,0.0,0.0,0.0,0.0,0.0,0.0,0.0,0.0,0.0,0.0,0.0,0.0,0.0,0.0,7.3138,7.6082,7.8855,7.9464,7.9837,8.0479,8.1731,8.2577,8.2644,8.2678,8.2949,8.3693,8.3761,8.437,8.5824,8.5993,0.0,0.0,0.0,8.7482,8.8125,8.8125,8.8429,8.9072,8.9072,8.8734,8.8125,8.8125,8.7753,8.7144,8.7144,8.7144,8.7144,8.7076,8.7042,8.6907,8.5452,8.5723,8.6839,8.6163,8.5486,8.4877,8.4776,0.0,0.0,8.3761,8.349,8.3219,8.1832,8.0953,8.031,7.9667,7.8957,7.8348,7.8348,7.828,7.8247,7.8247,7.8247,7.8213,7.8145,7.8111,7.7874,7.7063,7.6318,7.5574,7.4762,7.3375,7.2191,7.1548,7.1379,7.1312,7.1312,7.1312,7.1141,7.0763,7.0843,0.0,6.9841,6.9456,6.9297,6.9258,6.8562,6.8329,6.8766,6.8125,6.7625,6.7366,6.7148,6.6424,6.5084,6.5772,6.6533,6.7257,6.4142,6.3925,0.0,0.0,0.0,0.0,0.0,0.0,0.0,0.0,0.0,0.0,0.0,0.0,0.0,0.0,0.0,7.2326,7.5879,7.8653,7.9837,8.1528,8.2712,8.2847,8.3118,8.3524,8.4133,8.42,8.4505,8.5283,8.5351,8.5757,8.6636,8.7245,8.7651,8.7786,8.8361,8.8734,8.8869,8.8869,8.8937,8.9072,8.9072,0.0,8.8869,8.8869,8.8801,8.8666,8.8666,8.8666,8.8632,8.8023,8.7786,8.7685,8.6805,8.6636,8.6907,8.6738,8.6602,8.6366,8.5757,8.5554,8.5317,8.393,8.349,8.3321,8.2441,8.2103,0.0,8.1799,8.1224,8.0648,8.0648,8.0209,7.9769,7.9769,7.9769,7.96,7.9025,7.8889,7.8483,7.7164,7.6758,7.6217,7.4864,7.3375,7.236,7.2225,7.1684,7.1312,7.1312,7.1312,7.1096,7.0624,7.0957,7.0636,6.9198,6.9129,6.9105,6.8975,6.8686,6.8954,6.9943,6.8818,6.8926,7.0589,6.9358,6.8887,6.9213,6.9394,6.9865,7.0553,6.8017,6.78,0.0,0.0,0.0,0.0,0.0,0.0,0.0,0.0,0.0,0.0,0.0,6.3768,6.6373,0.0,7.1853,7.5202,7.7942,8.004,8.1156,8.2577,8.349,8.349,8.4167,8.4776,8.5182,8.5554,8.5926,8.6332,8.6223,8.6417,8.7193,8.7397,8.7711,8.8081,8.8451,8.8677,8.8847,8.8847,8.8903,8.9072,8.8903,8.8847,8.8847,8.8677,8.8653,8.8653,8.8653,8.8653,8.862,8.8249,8.8115,8.8048,8.7711,8.7509,8.7448,8.7448,8.7211,8.6873,8.6467,8.6095,8.5655,8.4877,8.437,8.393,8.3186,8.2949,8.2881,8.2509,8.2137,8.1765,8.1393,8.1021,8.0648,8.0276,8.0209,8.0107,7.9735,7.9667,7.9228,7.7739,7.7435,7.6961,7.5439,7.4221,7.3375,7.3003,7.2631,7.2394,7.2394,7.2394,7.235,7.2202,7.1858,7.1276,7.0549,7.0153,6.9742,6.9309,6.9509,6.9977,7.0873,6.9775,7.0071,7.1821,7.0698,7.0518,7.1312,7.1575,7.2269,7.3283,7.2595,7.2683,0.0,0.0,0.0,0.0,0.0,0.0,0.0,5.9336,6.0351,6.2042,6.414,6.6576,6.9417,7.1887,7.4559,7.7874,7.9719,8.1206,8.2441,8.3201,8.3674,8.3727,8.4945,8.579,8.579,8.6467,8.692,8.7,8.6745,8.6881,8.7598,8.7539,8.7726,8.8194,8.8328,8.8444,8.8506,8.8563,8.8733,8.8903,8.8733,8.8563,8.8506,8.831,8.8194,8.8194,8.8194,8.8194,8.8194,8.8194,8.8194,8.8194,8.8194,8.8112,8.8059,8.8059,8.7688,8.7147,8.7012,8.654,8.5999,8.575,8.5243,8.4601,8.393,8.3727,8.3592,8.3016,8.2746,8.2475,8.1866,8.1494,8.1122,8.0547,8.031,8.0209,8.0209,8.0209,7.9803,7.845,7.8077,7.7536,7.6183,7.5303,7.4559,7.3815,7.3578,7.3477,7.3477,7.3477,7.3569,7.3787,7.288,7.2219,7.2298,7.1718,7.0992,7.0277,7.0725,7.1197,7.1699,7.104,7.1446,7.2965,7.2321,7.2392,7.3216,7.3546,7.426,7.5322,7.6328,7.6697,5.4905,5.6325,5.8457,5.8693,5.9776,6.0994,0.0,6.2482,6.3632,6.5764,6.7996,7.0263,7.2563,7.5371,7.7942,7.9667,8.1558,8.2903,8.3302,8.3819,8.4238,8.4452,8.5249,8.579,8.579,8.6467,8.7067,8.743,8.7408,8.7632,8.8085,8.8721,8.8763,8.8228,8.883,8.8889,8.8252,8.8506,8.8506,8.831,8.8506,8.8448,8.8252,8.8194,8.8194,8.8194,8.8194,8.8194,8.8194,8.8194,8.8194,8.8194,8.8194,8.8219,8.8176,8.8176,8.8142,8.7974,8.7304,8.7036,8.679,8.5704,8.5342,8.5107,8.4635,8.4505,8.4471,8.4403,8.3896,8.3355,8.3287,8.2272,8.1257,8.119,8.0682,8.0209,8.0209,8.0209,7.9972,7.916,7.845,7.7739,7.6893,7.6115,7.5337,7.4593,7.3916,7.3477,7.3477,7.3477,7.3523,7.3523,7.3434,7.3332,7.3332,7.3264,7.2892,7.2146,7.2303,7.2448,7.2368,7.2684,7.3768,7.5687,7.5468,7.5824,7.6796,7.6453,7.6172,7.5951,7.7002,7.7554,5.7002,5.8389,6.0554,6.1434,6.2753,6.4174,6.5324,6.6203,6.7387,6.962,7.1853,7.4086,7.6352,7.8483,8.0327,8.1693,8.2917,8.3908,8.4257,8.4964,8.5321,8.4863,8.5578,8.6126,8.6126,8.7038,8.7766,8.7864,8.7726,8.7686,8.7871,8.8087,8.8003,8.7703,8.7969,8.8028,8.7904,8.7987,8.8136,8.8194,8.8136,8.802,8.7904,8.7728,8.767,8.767,8.767,8.767,8.767,8.767,8.767,8.767,8.767,8.767,8.7728,8.8078,8.8194,8.8161,8.7859,8.7458,8.7046,8.6522,8.5862,8.5254,8.506,8.4818,8.464,8.464,8.4403,8.4065,8.3625,8.305,8.234,8.1494,8.1054,8.0716,8.0276,8.0209,7.9972,7.9261,7.8855,7.8416,7.7671,7.7266,7.6927,7.6623,7.554,7.4762,7.4762,7.4762,7.4627,7.4187,7.4153,7.395,7.351,7.3477,7.3341,7.3037,7.3266,7.3446,7.347,7.404,7.4933,7.6172,7.6129,7.627,7.6706,7.7105,7.6984,7.6461,7.8067,7.8874,5.9235,6.0622,6.2618,6.4309,6.5831,6.732,6.8808,6.9755,7.0872,7.2902,7.4931,7.6893,7.8788,8.0429,8.1812,8.2629,8.3779,8.4643,8.4846,8.5795,8.6086,8.5013,8.5628,8.6108,8.5873,8.7079,8.7902,8.8078,8.7846,8.767,8.7611,8.7408,8.7289,8.7289,8.7289,8.7375,8.7611,8.767,8.7787,8.7962,8.7787,8.767,8.7552,8.7408,8.7289,8.7289,8.7289,8.7289,8.7289,8.7289,8.7289,8.7289,8.7289,8.7289,8.7315,8.7787,8.7962,8.7962,8.7962,8.7628,8.7127,8.6984,8.6353,8.5616,8.5526,8.5254,8.4946,8.4851,8.4784,8.4669,8.3945,8.3659,8.3219,8.2137,8.1596,8.1122,8.0615,8.0344,8.004,7.9532,7.9261,7.8923,7.8382,7.8111,7.7976,7.7976,7.7029,7.6251,7.6048,7.5845,7.5506,7.4965,7.4897,7.4695,7.4153,7.4086,7.4018,7.3815,7.4204,7.4342,7.4321,7.5043,7.576,7.6405,7.6608,7.667,7.6762,7.7562,7.7594,7.6982,7.8417,7.913,6.167,6.3362,6.5019,6.7218,6.891,7.0432,7.1921,7.2834,7.3781,7.527,7.6826,7.8145,7.8957,8.0714,8.1989,8.2023,8.3954,8.5311,8.4924,8.5892,8.6178,8.4991,8.5291,8.5231,8.4554,8.6049,8.7309,8.7662,8.7728,8.7611,8.7349,8.7256,8.7289,8.7289,8.7289,8.7256,8.7349,8.7552,8.7552,8.7349,8.7552,8.7552,8.7349,8.7256,8.7289,8.7289,8.7289,8.7289,8.7289,8.7289,8.7289,8.7289,8.7289,8.7289,8.7289,8.7349,8.7349,8.7349,8.7349,8.7315,8.7242,8.6746,8.6596,8.6487,8.6072,8.5951,8.584,8.5379,8.5288,8.5174,8.4669,8.4065,8.349,8.3422,8.234,8.1291,8.1257,8.0682,8.0175,8.0175,7.96,7.9092,7.9092,7.8483,7.7976,7.7976,7.7942,7.7671,7.6961,7.6183,7.5676,7.5676,7.5676,7.5676,7.5642,7.5642,7.5337,7.4627,7.5236,7.5303,7.4627,7.5552,7.6392,7.7061,7.7583,7.7927,7.8165,7.8237,7.8055,7.7563,7.7563,7.7745,6.3396,6.529,6.7455,7.0195,7.2022,7.351,7.5033,7.5946,7.6623,7.7096,7.801,7.8907,7.9449,8.0897,8.2052,8.2093,8.401,8.5373,8.5116,8.6372,8.6771,8.5192,8.5307,8.5173,8.4214,8.5101,8.6056,8.667,8.6704,8.6877,8.7315,8.7289,8.7289,8.7289,8.7289,8.7289,8.7289,8.7375,8.7375,8.7289,8.7375,8.7408,8.7289,8.7289,8.7289,8.7289,8.7289,8.7289,8.7289,8.7289,8.7289,8.7289,8.7289,8.7289,8.7289,8.7289,8.7289,8.7289,8.7289,8.7289,8.7282,8.7109,8.6854,8.6563,8.6445,8.6216,8.5951,8.5829,8.5559,8.5254,8.5127,8.4649,8.4133,8.3625,8.3118,8.2475,8.1494,8.1088,8.0784,8.031,8.0006,7.9837,7.9837,7.9634,7.9464,7.9464,7.8619,7.7908,7.7638,7.6961,7.6487,7.6487,7.6014,7.5709,7.5709,7.6183,7.629,7.5826,7.65,7.6754,7.6288,7.6736,7.7213,7.7645,7.7822,7.7924,7.802,7.8364,7.8472,7.8463,7.9172,7.9779,6.5379,6.7536,6.9827,7.2288,7.4006,7.5455,7.68,7.7693,7.8215,7.8044,7.8585,7.906,7.9011,8.0102,8.1101,8.1355,8.362,8.5301,8.5103,8.6737,8.7227,8.5302,8.5243,8.4845,8.3564,8.3722,8.4473,8.5699,8.603,8.6395,8.6858,8.7123,8.7289,8.7289,8.7289,8.7289,8.7289,8.7289,8.7289,8.7289,8.7289,8.7289,8.7289,8.7289,8.7289,8.7289,8.7289,8.7289,8.7289,8.7289,8.7289,8.7289,8.7289,8.7289,8.7289,8.7289,8.7289,8.7289,8.7289,8.7289,8.7289,8.7289,8.7135,8.6854,8.6854,8.6638,8.6402,8.5925,8.5593,8.5259,8.4833,8.4547,8.4184,8.3712,8.3375,8.2937,8.1993,8.1387,8.0847,8.0376,8.0072,7.9904,7.9904,7.9904,7.9904,7.9904,7.9196,7.8587,7.8416,7.7739,7.7299,7.7299,7.6826,7.6521,7.6521,7.6898,7.707,7.684,7.7211,7.7296,7.7094,7.7296,7.7447,7.7596,7.7866,7.8,7.8,7.8488,7.8916,7.9335,7.9888,8.0542,6.7725,7.0134,7.2175,7.3648,7.5053,7.6341,7.7379,7.8186,7.8556,7.8028,7.8483,7.8587,7.7596,7.837,7.9384,7.9835,8.282,8.507,8.5103,8.6892,8.7455,8.5401,8.5136,8.4424,8.2659,8.2115,8.2731,8.4829,8.5615,8.6071,8.6104,8.6799,8.7289,8.7289,8.7289,8.7289,8.7289,8.7322,8.7355,8.7389,8.7355,8.7322,8.7322,8.7322,8.7322,8.7322,8.7355,8.7389,8.7389,8.7355,8.7322,8.7322,8.7289,8.7289,8.7289,8.7289,8.7289,8.7289,8.7289,8.7289,8.7289,8.7289,8.7289,8.7289,8.7289,8.7289,8.7017,8.5848,8.553,8.5221,8.4155,8.3808,8.3775,8.3775,8.3272,8.277,8.2703,8.1598,8.0627,8.056,7.9991,7.9522,7.9522,7.9522,7.9489,7.9455,7.9663,7.9651,7.9211,7.8517,7.8044,7.8044,7.801,7.7976,7.7927,7.7763,7.7564,7.753,7.7313,7.7195,7.7195,7.7195,7.7195,7.7195,7.7864,7.8232,7.8232,7.8707,7.9316,8.0048,7.9812,8.0134,7.0937,7.3179,7.522,7.6743,7.7379,7.7848,7.8755,7.8774,7.8371,7.7057,7.668,7.6207,7.4981,7.6341,7.791,7.8737,8.1945,8.4473,8.5037,8.603,8.6527,8.5964,8.5434,8.4705,8.3749,8.2628,8.2215,8.2788,8.3443,8.4226,8.5024,8.5987,8.6656,8.693,8.717,8.7289,8.7289,8.7786,8.8316,8.8879,8.8316,8.8051,8.8051,8.8051,8.8051,8.8084,8.8647,8.8879,8.8813,8.8283,8.8051,8.7985,8.7488,8.7289,8.7289,8.7289,8.7289,8.7289,8.7289,8.7289,8.7289,8.7289,8.7289,8.7289,8.7289,8.7289,8.715,8.6247,8.5757,8.5297,8.4477,8.401,8.3775,8.3775,8.3641,8.3339,8.2804,8.2402,8.1966,8.1364,8.1096,8.0962,8.0962,8.0962,8.0795,8.0292,8.0278,8.0166,7.9684,7.9145,7.8722,7.8539,7.8017,7.758,7.7346,7.7799,7.7948,7.7743,7.8141,7.8369,7.8159,7.8159,7.8159,7.8159,7.8358,7.8425,7.8458,7.9082,7.9812,8.0541,8.1017,8.1624,7.314,7.4939,7.6404,7.7589,7.8088,7.8388,7.8678,7.8134,7.7229,7.6151,7.5046,7.408,7.3457,7.4585,7.6074,7.7304,8.0631,8.3356,8.43,8.5472,8.6052,8.5603,8.503,8.4277,8.3346,8.2219,8.144,8.1156,8.176,8.2614,8.3696,8.5031,8.598,8.6319,8.6957,8.7422,8.772,8.8449,8.9012,8.9409,8.8979,8.878,8.878,8.878,8.878,8.8813,8.9244,8.9409,8.9376,8.8979,8.8614,8.8283,8.7885,8.7554,8.7322,8.762,8.772,8.772,8.772,8.772,8.7687,8.7389,8.7289,8.7289,8.7289,8.7289,8.7057,8.5997,8.5517,8.5068,8.4029,8.3576,8.3388,8.3388,8.3388,8.3288,8.2888,8.2521,8.2088,8.1321,8.1155,8.1155,8.1155,8.1155,8.0921,8.0222,8.0228,8.0067,7.9455,7.9278,7.9246,7.9162,7.8724,7.8303,7.8116,7.8329,7.8459,7.8303,7.8843,7.9169,7.9007,7.9306,7.9471,7.9471,7.9471,7.9471,7.9471,7.9902,8.0465,8.1194,8.1591,8.2188,7.4668,7.5927,7.6622,7.7384,7.798,7.8199,7.7666,7.6591,7.5471,7.4642,7.3257,7.2122,7.2116,7.2893,7.4103,7.5897,7.9239,8.2075,8.3285,8.4937,8.5686,8.4702,8.4169,8.3412,8.2206,8.1345,8.06,8.0035,8.0373,8.1052,8.2235,8.3898,8.5075,8.5639,8.6563,8.7348,8.8041,8.8801,8.9198,8.9297,8.933,8.9358,8.9419,8.9453,8.9514,8.9575,8.9674,8.9707,8.9707,8.9608,8.9111,8.8449,8.8349,8.7885,8.7355,8.7952,8.8217,8.8283,8.8217,8.825,8.8184,8.7488,8.7289,8.7289,8.7289,8.7289,8.6991,8.5633,8.5202,8.4805,8.3413,8.2983,8.2883,8.2883,8.2883,8.2883,8.2883,8.2386,8.1757,8.1094,8.0995,8.0995,8.0995,8.0995,8.0697,7.9902,7.9899,7.9815,7.8983,7.9198,7.9492,7.9647,7.9492,7.9336,7.9284,7.8988,7.8916,7.9016,7.938,7.967,7.9769,8.0366,8.0697,8.0697,8.0697,8.0697,8.0697,8.0796,8.1161,8.179,8.1889,8.232,7.5662,7.6655,7.7417,7.8146,7.798,7.7252,7.6011,7.4956,7.3495,7.0917,7.0524,7.0265,6.9266,7.0636,7.2768,7.5101,7.8511,8.1368,8.287,8.3905,8.4396,8.4218,8.3067,8.2231,8.2011,8.0875,8.0039,7.9925,7.895,7.9231,8.1248,8.2669,8.4026,8.5265,8.5485,8.5935,8.6683,8.7399,8.8049,8.8667,8.8924,8.9178,8.9494,8.9778,9.0028,9.037,9.0933,9.1198,9.1165,9.0569,8.9873,8.9177,8.8548,8.7885,8.7289,8.7422,8.7819,8.8217,8.7654,8.7852,8.8184,8.7488,8.7289,8.7289,8.7289,8.7289,8.709,8.6229,8.5567,8.4904,8.4043,8.3347,8.2883,8.2883,8.2883,8.2883,8.2883,8.2784,8.2651,8.2552,8.2519,8.2519,8.2519,8.2519,8.2055,8.0697,8.0553,8.0164,7.9049,7.9198,7.9336,7.9094,7.9041,7.8883,7.8671,7.8617,7.8829,7.9459,7.9537,7.9902,8.0465,8.0631,8.0697,8.0697,8.0697,8.0697,8.0697,8.1293,8.1658,8.179,8.2419,8.3115,7.6854,7.745,7.7583,7.8345,7.798,7.6854,7.4635,7.2774,7.1004,6.9197,6.8021,6.7395,6.7691,6.8595,7.0129,7.2613,7.6059,7.8902,8.0321,8.1936,8.2937,8.2807,8.1983,8.1403,8.12,8.0403,7.9786,7.9688,7.8847,7.888,8.0111,8.1522,8.2818,8.4027,8.441,8.4827,8.5147,8.5883,8.6587,8.7291,8.7655,8.8375,8.948,8.9834,9.0179,9.0536,9.0867,9.0801,9.0436,9.0072,8.9509,8.8813,8.8449,8.7885,8.7322,8.7687,8.8018,8.825,8.7919,8.8018,8.8184,8.7488,8.7289,8.7289,8.7289,8.7289,8.7057,8.5931,8.5368,8.4838,8.3711,8.3181,8.2883,8.2883,8.2883,8.2883,8.2883,8.2883,8.2883,8.2883,8.2883,8.2883,8.2883,8.2883,8.2519,8.1426,8.126,8.0918,7.9932,7.9961,7.9802,7.9002,7.9109,7.9181,7.9107,7.9438,7.9802,8.0167,8.0531,8.0896,8.126,8.1624,8.1823,8.1823,8.1823,8.1823,8.1856,8.2188,8.2353,8.2386,8.3148,8.3645,7.7523,7.7802,7.7603,7.8146,7.7616,7.6192,7.331,7.0795,6.8829,6.7591,6.5901,6.4998,6.6283,6.6621,6.7558,7.0059,7.321,7.5892,7.7371,7.9721,8.1253,8.1002,8.0699,8.0462,8.0111,7.983,7.9546,7.9291,7.9005,7.9005,7.9505,8.064,8.1678,8.2556,8.3157,8.344,8.344,8.4163,8.4855,8.5547,8.6184,8.7307,8.895,8.9445,8.9836,9.0068,9.0068,8.9639,8.898,8.898,8.8551,8.7859,8.7953,8.7645,8.7143,8.7765,8.8123,8.8283,8.815,8.8184,8.8184,8.7488,8.7289,8.7289,8.7289,8.7157,8.6792,8.5666,8.5103,8.4606,8.3446,8.3016,8.2883,8.2883,8.2883,8.2883,8.2883,8.2883,8.2883,8.2883,8.2883,8.2883,8.2883,8.2883,8.2651,8.1889,8.179,8.1525,8.0763,8.0697,8.0342,7.9429,7.9613,7.9869,7.9869,8.0366,8.0763,8.0929,8.1459,8.1856,8.2022,8.2585,8.2883,8.2883,8.2883,8.2983,8.3148,8.3148,8.3215,8.338,8.3976,8.4341,7.6871,7.7352,7.7799,7.757,7.649,7.4701,7.1753,6.971,6.7591,6.4881,6.4454,6.4484,6.4229,6.4747,6.6022,6.85,7.0858,7.3204,7.5413,7.7645,7.9034,7.9095,7.9041,7.9005,7.8933,7.8933,7.8861,7.8861,7.8789,7.9148,7.983,8.0322,8.081,8.1193,8.1255,8.1286,8.1286,8.1995,8.2705,8.3384,8.4715,8.6138,8.7492,8.8243,8.8628,8.8701,8.8701,8.8247,8.7565,8.7565,8.7143,8.6494,8.6904,8.679,8.6413,8.6815,8.7546,8.8217,8.7587,8.7786,8.8184,8.7488,8.7289,8.7289,8.7289,8.6792,8.6229,8.613,8.5103,8.4076,8.3943,8.3413,8.2883,8.2883,8.2883,8.2883,8.2883,8.2883,8.2883,8.2883,8.2883,8.2883,8.2883,8.2883,8.2651,8.1889,8.179,8.1525,8.0763,8.0697,8.0631,8.0553,8.0531,8.0598,8.0598,8.0664,8.0962,8.1658,8.1757,8.2088,8.2784,8.285,8.2883,8.2883,8.2883,8.3215,8.391,8.391,8.4241,8.4904,8.497,8.5368,7.7294,7.804,7.835,7.7813,7.6181,7.389,7.1117,6.8302,6.5895,6.4455,6.3701,6.3275,6.3224,6.3844,6.502,6.7028,6.9599,7.1886,7.3404,7.5454,7.6713,7.6561,7.6479,7.6604,7.7023,7.7382,7.7921,7.8729,7.8789,7.8933,7.919,7.9434,7.9576,7.9688,7.9688,7.9688,7.9688,7.996,8.0445,8.1141,8.1929,8.3141,8.4746,8.5234,8.561,8.5879,8.5879,8.5398,8.4728,8.4728,8.4568,8.4313,8.4764,8.5177,8.5607,8.598,8.6788,8.7654,8.7355,8.7455,8.7654,8.7355,8.7289,8.7289,8.7289,8.6759,8.6097,8.5666,8.4805,8.391,8.3446,8.3115,8.2883,8.2883,8.2883,8.2883,8.2883,8.2883,8.2883,8.2883,8.2883,8.2883,8.2883,8.2883,8.2784,8.2519,8.2453,8.2353,8.2055,8.2022,8.2022,8.2022,8.1624,8.1359,8.1359,8.1757,8.2154,8.2453,8.2453,8.2784,8.3546,8.3579,8.3778,8.4241,8.4241,8.4374,8.4672,8.4672,8.4805,8.5136,8.5567,8.5898,7.6961,7.8232,7.8812,7.7392,7.5572,7.3375,7.0603,6.7447,6.495,6.4412,6.3269,6.2499,6.2721,6.3208,6.4085,6.5603,6.7976,6.9975,7.0974,7.2811,7.3957,7.3692,7.3723,7.4061,7.4929,7.6125,7.7382,7.8699,7.8789,7.8789,7.8789,7.8789,7.8878,7.9088,7.9088,7.9178,7.9387,7.9387,7.9627,8.0105,8.0513,8.1376,8.2673,8.3128,8.3355,8.3489,8.3489,8.3113,8.2387,8.2387,8.2387,8.2454,8.295,8.3736,8.4538,8.5045,8.5857,8.6684,8.6684,8.6684,8.6684,8.6837,8.6897,8.7017,8.711,8.6534,8.5765,8.5268,8.4407,8.3579,8.3049,8.2883,8.2883,8.2883,8.2883,8.2883,8.2883,8.2883,8.2883,8.2883,8.2883,8.2883,8.2883,8.2883,8.2883,8.2883,8.2883,8.2883,8.2883,8.2883,8.2883,8.2883,8.2419,8.2121,8.2121,8.2585,8.2983,8.3215,8.3215,8.3579,8.4308,8.4341,8.4573,8.5103,8.5103,8.5202,8.5434,8.5434,8.5533,8.5765,8.6262,8.6494,7.5407,7.7513,7.9044,7.5755,7.435,7.3012,7.008,6.7265,6.5119,6.4454,6.3269,6.2499,6.2721,6.2806,6.315,6.4254,6.5624,6.6897,6.8024,6.9498,7.0574,7.0827,7.0875,7.1487,7.2804,7.5288,7.7382,7.8699,7.8789,7.8789,7.8789,7.8789,7.9088,7.9776,7.9806,8.0135,8.0764,8.0764,8.0794,8.0794,8.1162,8.1571,8.1976,8.2336,8.2356,8.2134,8.2134,8.1664,8.1017,8.1017,8.1017,8.1086,8.1839,8.2548,8.3179,8.3929,8.4667,8.5203,8.5203,8.5203,8.5298,8.5675,8.6046,8.6352,8.6717,8.6026,8.5136,8.5103,8.4043,8.2916,8.2883,8.2883,8.2883,8.2883,8.2883,8.2883,8.2883,8.2883,8.2883,8.2883,8.2883,8.2883,8.2883,8.2883,8.2883,8.2883,8.2883,8.2883,8.2883,8.2883,8.2883,8.2883,8.2883,8.2883,8.2883,8.2883,8.3215,8.3943,8.401,8.4341,8.507,8.5103,8.5103,8.5103,8.5103,8.5467,8.6221,8.6221,8.6527,8.7256,8.7256,8.7256,7.3823,7.5369,7.6218,7.4172,7.2217,7.0314,6.8517,6.5883,6.3781,6.3741,6.3051,6.2499,6.2721,6.3208,6.3833,6.4762,6.6338,6.7474,6.7553,6.8947,6.9894,6.9881,7.1292,7.2804,7.4121,7.5826,7.7382,7.8699,7.8789,7.8789,7.8789,7.8789,7.8878,7.9118,7.9118,7.9208,7.9417,7.9896,7.9896,7.9417,8.0042,8.0085,7.9779,8.0405,8.0568,8.0532,8.0532,8.0411,8.0169,7.9686,7.9777,8.02,8.0771,8.1761,8.3007,8.352,8.4303,8.5071,8.5071,8.4785,8.4436,8.4891,8.518,8.5545,8.5948,8.5603,8.4904,8.3877,8.3248,8.2883,8.2883,8.2883,8.2883,8.2883,8.2883,8.2883,8.2883,8.2883,8.2883,8.2883,8.2883,8.2883,8.2883,8.2883,8.2883,8.2883,8.2883,8.2883,8.2883,8.2883,8.2883,8.2883,8.2883,8.2883,8.2883,8.3347,8.3745,8.401,8.4473,8.507,8.5798,8.5832,8.6063,8.6593,8.6593,8.6693,8.6925,8.6925,8.7057,8.7289,8.7289,8.7289,7.077,7.2527,7.3379,7.1592,6.9974,6.8472,6.7122,6.4941,6.3303,6.3457,6.3125,6.2904,6.3157,6.381,6.4457,6.4901,6.618,6.7036,6.6639,6.7935,6.9099,6.9518,7.1367,7.3133,7.4719,7.6066,7.7382,7.8699,7.8789,7.8789,7.8789,7.8789,7.8789,7.8789,7.9058,7.9178,7.9178,7.9597,7.9357,7.843,7.8849,7.8849,7.846,7.9118,7.9567,7.9836,8.0075,8.0195,0.0,7.9716,7.9806,8.0195,8.0634,8.1498,8.2592,8.2947,8.362,8.4182,8.3969,8.3594,8.3255,8.3574,8.4183,8.4727,8.4741,8.4877,8.4805,8.3314,8.2883,8.2883,8.2883,8.2883,8.2883,8.2883,8.2883,8.2883,8.2883,8.2883,8.2883,8.2883,8.2883,8.2883,8.2883,8.2883,8.2883,8.2883,8.2883,8.2883,8.2883,8.2883,8.2883,8.2883,8.2883,8.3016,8.3281,8.3745,8.4142,8.4407,8.5103,8.5832,8.656,8.6652,8.6792,8.7256,8.7289,8.7289,8.7289,8.7289,8.7289,8.7289,8.7289,8.7289,0.0,6.9079,7.0398,6.8267,6.7692,6.7286,6.5865,6.4444,0.0,6.3429,6.3429,6.3505,6.3827,6.4446,6.4837,6.4728,6.5251,6.5653,6.5448,6.6803,6.836,6.9879,7.1278,7.2864,7.4839,7.6155,7.7442,7.8699,7.8789,7.8789,7.8789,7.8789,7.8789,7.8789,7.9417,7.9716,7.9686,7.9686,7.9028,7.7741,7.7801,7.7801,7.7771,7.846,7.9148,7.9776,8.0494,8.0794,8.0794,8.0794,8.0823,8.0957,8.1252,8.1619,8.2013,8.2375,8.2734,8.2897,8.2191,8.1884,8.1809,8.1926,8.2849,8.3899,8.3181,8.3857,8.4689,8.32,8.277,8.277,8.2827,8.2827,8.2883,8.2883,8.2883,8.2883,8.2883,8.2883,8.2883,8.2883,8.2883,8.2883,8.2883,8.2883,8.2883,8.2883,8.2883,8.2883,8.2883,8.2883,8.2883,8.2883,8.295,8.3248,8.3943,8.4043,8.4407,8.5136,8.5865,8.656,8.7256,8.7289,8.7289,8.7289,8.7289,8.7289,8.7289,8.7289,8.7289,8.7289,8.7289,8.7289,6.1535,0.0,6.688,6.6339,6.5797,6.5155,0.0,6.3328,6.2651,6.2651,6.2651,6.2938,6.376,6.3748,6.3892,6.4695,6.4367,6.4247,6.5094,6.7405,6.9569,7.1223,7.3043,7.4749,7.6215,7.7113,7.7921,7.8729,7.8789,7.8789,7.8789,7.8789,7.8789,7.8789,7.8938,7.8789,7.828,7.828,7.7861,7.7053,7.7562,7.7562,7.7113,7.825,7.8878,7.9088,8.0285,8.0794,8.0794,8.0794,8.1093,8.1542,8.1691,8.2095,8.259,8.2665,8.2815,8.2724,8.2105,8.1158,8.029,8.0418,8.1206,8.2034,8.16,8.2449,8.3263,8.1857,8.1643,8.1876,8.2108,8.2338,8.26,8.2827,8.2883,8.2883,8.2883,8.2883,8.2883,8.2883,8.2883,8.2883,8.2883,8.2883,8.2883,8.2883,8.2883,8.2883,8.2883,8.2883,8.2883,8.2883,8.3413,8.3811,8.401,8.454,8.5169,8.5865,8.6593,8.709,8.7256,8.7289,8.7289,8.7289,8.7289,8.7289,8.7289,8.7289,8.7289,8.7289,8.7289,8.7289,5.981,6.1839,6.3666,6.3666,6.3396,6.299,6.2584,6.2178,6.1907,6.1907,6.2415,6.2999,6.32,6.3537,6.3674,6.3451,6.3489,6.4204,6.6219,6.8575,7.0873,7.305,7.448,7.5736,7.6724,7.7143,7.7502,7.7861,7.816,7.834,7.834,7.8639,7.8789,7.8789,7.8489,7.816,7.7801,7.7801,7.7472,7.6814,7.7203,7.7322,7.7322,7.834,7.8968,7.9327,8.0674,8.1242,8.1272,8.1572,8.1901,8.223,8.223,8.2439,8.2844,8.2844,8.2844,8.2589,8.1332,7.9879,7.8798,7.9268,7.9943,8.0576,8.0542,8.0827,8.1062,8.0286,8.0267,8.0689,8.1284,8.1727,8.2108,8.277,8.2883,8.2883,8.2883,8.2883,8.2883,8.2883,8.2883,8.2883,8.2883,8.2883,8.2883,8.2883,8.2883,8.2883,8.2883,8.3215,8.3413,8.3413,8.4076,8.4639,8.497,8.5368,8.5765,8.613,8.6858,8.7289,8.7289,8.7289,8.7289,8.7289,8.7289,8.7289,8.7289,8.7289,8.7289,8.7289,8.7289,8.7289,5.9573,6.0689,6.1501,6.1564,6.1559,6.152,6.1481,6.134,6.1239,6.1239,6.2251,6.3026,6.2665,6.3373,6.3603,6.2362,6.3245,6.498,6.7512,6.9692,7.1966,7.442,7.5437,7.6185,7.6904,7.6874,7.6874,7.6963,7.7412,7.7652,7.7652,7.819,7.8489,7.8489,7.7951,7.7652,7.7652,7.7652,7.7382,7.6814,7.6814,7.7113,7.7682,7.834,7.8968,7.9597,8.1003,8.1631,8.1691,8.2439,8.2844,8.2844,8.2844,8.2844,8.2844,8.2844,8.2649,8.217,8.0075,7.8465,7.7394,7.8195,7.8816,7.9246,7.9468,7.9169,7.8764,7.8524,7.8817,7.9378,8.0356,8.0928,8.1434,8.2338,8.2656,8.2713,8.2713,8.277,8.286,8.3049,8.2983,8.295,8.3049,8.2983,8.2883,8.2883,8.2883,8.295,8.3049,8.3612,8.4043,8.4175,8.4838,8.55,8.613,8.6262,8.6328,8.6328,8.6925,8.7289,8.7289,8.7389,8.7422,8.7422,8.7422,8.7422,8.7422,8.7422,8.7422,8.7422,8.7422,8.7422,5.8964,6.0655,6.2341,6.2717,6.2724,6.252,6.2356,6.165,6.106,6.106,6.1227,6.1748,6.2811,6.2589,6.2699,6.3954,6.5218,6.6341,6.703,6.9782,7.2295,7.3851,7.5138,7.6365,7.7532,7.7143,7.7053,7.7622,7.7233,7.6963,7.6963,7.7083,7.7143,7.7143,7.7023,7.6963,7.6963,7.6963,7.6933,7.6814,7.6814,7.6874,7.6993,7.7652,7.8011,7.822,8.0135,8.0943,8.1033,8.226,8.2844,8.2844,8.2844,8.2844,8.2844,8.2844,8.205,8.0734,7.819,7.7083,7.6824,7.6475,7.7144,7.7965,7.7425,7.7645,7.7735,7.6689,7.7284,7.8375,7.9099,7.975,8.0421,8.1112,8.1525,8.1759,8.1959,8.228,8.2765,8.3654,8.3314,8.3115,8.3711,8.3314,8.2883,8.2883,8.2883,8.3115,8.3745,8.3943,8.4241,8.4871,8.5567,8.6063,8.6221,8.6759,8.709,8.709,8.7223,8.7289,8.7289,8.7852,8.815,8.815,8.815,8.815,8.815,8.815,8.815,8.815,8.815,8.815,5.9302,6.096,6.2572,6.3321,6.3175,6.2543,6.1762,6.0892,6.0151,5.9762,6.0152,6.078,6.1538,6.1964,6.2839,6.5019,6.6157,6.7182,6.8375,7.05,7.2385,7.3732,7.4749,7.5587,7.6155,7.5946,7.5886,7.6215,7.6275,7.6335,7.6335,7.6634,7.6814,7.6814,7.6814,7.6814,7.6814,7.6814,7.6993,7.7352,7.7711,7.7891,7.7891,7.819,7.834,7.84,7.9716,8.0285,8.0345,8.1302,8.1901,8.223,8.223,8.2439,8.2784,8.235,8.0943,7.8998,7.7771,7.6664,7.5826,7.6275,7.6814,7.7352,7.7771,7.7861,7.7622,7.6664,7.6713,7.7248,7.7732,7.8466,7.9385,8.0167,8.0918,8.1637,8.2335,8.2752,8.3297,8.4424,8.4341,8.4208,8.454,8.4308,8.4109,8.4109,8.4109,8.4208,8.4573,8.4937,8.5302,8.5633,8.6328,8.6759,8.6759,8.709,8.7289,8.7289,8.7289,8.7289,8.7289,8.7952,8.8316,8.8316,8.8714,8.8912,8.8912,8.8912,8.8912,8.8879,8.8515,8.8316,5.9505,6.1095,6.2533,6.3232,6.3202,6.2672,6.154,6.061,5.9818,5.9246,5.9766,6.0468,6.0944,6.1979,6.3537,6.5622,6.67,6.7897,6.9871,7.1278,7.2565,7.3762,7.448,7.4929,7.5108,7.4958,7.4958,7.5108,7.5467,7.5677,7.5677,7.6125,7.6365,7.6365,7.6365,7.6365,7.6365,7.6544,7.7023,7.7801,7.831,7.8639,7.8789,7.8789,7.8699,7.8609,7.9447,7.9716,7.9627,8.0464,8.1093,8.1542,8.1542,8.1871,8.22,8.1392,7.9896,7.822,7.7921,7.6933,7.5946,7.6963,7.7293,7.7472,7.8489,7.843,7.7891,7.7233,7.6904,7.6689,7.6671,7.7416,7.8371,7.9251,8.0299,8.1348,8.2293,8.2882,8.3495,8.4656,8.4734,8.4668,8.4833,8.4734,8.4603,8.4603,8.4603,8.4668,8.4866,8.5387,8.5782,8.5947,8.6474,8.6837,8.6837,8.6837,8.6837,8.6837,8.7137,8.7355,8.7521,8.8184,8.8647,8.8813,8.9376,8.9674,8.9674,8.9674,8.9674,8.9674,8.9111,8.8846,5.8863,6.0689,6.2296,6.1958,6.2837,6.3636,6.2912,6.1901,6.0973,6.0715,6.0697,6.1108,6.2328,6.3518,6.4714,6.5832,6.7059,6.8585,7.056,7.1996,7.3103,7.3821,7.448,7.5138,7.5766,7.5258,7.5138,7.5766,7.5288,7.4958,7.4958,7.4988,7.5018,7.5018,7.5018,7.5018,7.5018,7.5647,7.6604,7.7801,7.7861,7.819,7.8789,7.8789,7.846,7.7951,7.9267,7.9447,7.8968,8.0255,8.0823,8.0883,8.0883,8.0883,8.0794,7.9477,7.9297,7.9507,7.825,7.813,7.8519,7.8609,7.8639,7.8669,7.8759,7.8759,7.8579,7.7921,7.7711,7.7444,7.6274,7.6715,7.7539,7.8001,7.9157,8.0313,8.0995,8.1666,8.2582,8.4005,8.3706,8.3447,8.4128,8.3706,8.3252,8.3252,8.3252,8.3479,8.416,8.429,8.455,8.5198,8.5296,8.5328,8.5328,8.5328,8.5328,8.5328,8.6563,8.7554,8.8217,8.8945,8.9641,9.0337,9.0403,9.0436,9.0436,9.0436,9.0436,9.0436,9.0403,9.037,5.8974,6.0291,6.1565,6.17,6.2618,6.3427,6.3236,6.2372,6.169,6.1763,6.1858,6.1981,6.25,6.4284,6.5921,6.6521,6.8076,6.9752,7.1308,7.2325,7.3163,7.3821,7.448,7.4988,7.5228,7.5018,7.4988,7.5258,7.5018,7.4869,7.4869,7.4869,7.4869,7.4869,7.4869,7.4869,7.4869,7.5138,7.5736,7.6634,7.7023,7.7322,7.7592,7.7981,7.8041,7.7861,7.8789,7.9028,7.8819,7.9357,7.9806,8.0225,8.0644,8.0554,8.0135,7.9627,7.9058,7.8549,7.846,7.8041,7.7711,7.8519,7.8519,7.825,7.8669,7.8789,7.8639,7.7981,7.7801,7.7513,7.6232,7.6762,7.7563,7.731,7.8451,7.9904,8.0797,8.1334,8.2059,8.3225,8.3227,8.3131,8.3418,8.3227,8.3036,8.3036,8.3036,8.3163,8.3418,8.345,8.3546,8.3801,8.3833,8.3833,8.3833,8.4183,8.4438,8.4438,8.5883,8.6797,8.7058,8.8202,8.9017,8.9565,9.0214,9.0571,9.0571,9.0571,9.0411,9.0188,8.9474,8.9215,5.8708,5.9523,6.0328,6.0945,6.1881,6.2853,6.35,6.3079,6.2655,6.2962,6.3183,6.3246,6.315,6.4868,6.6523,6.721,6.8645,7.0201,7.1667,7.2295,7.2924,7.3791,7.43,7.4659,7.4869,7.4869,7.4869,7.4869,7.4869,7.4869,7.4869,7.4869,7.4869,7.4869,7.4869,7.4869,7.4869,7.4869,7.5108,7.5587,7.6006,7.6425,7.6844,7.7293,7.7382,7.7263,7.81,7.837,7.819,7.8609,7.9058,7.9507,7.9776,7.9716,7.9507,7.9507,7.9058,7.8549,7.9208,7.8849,7.825,7.9387,7.9148,7.8519,7.8968,7.8968,7.8699,7.825,7.813,7.7861,7.6784,7.7143,7.7682,7.7233,7.8266,7.9647,8.0401,8.0887,8.1436,8.2186,8.2387,8.2387,8.2387,8.2387,8.2387,8.2387,8.2387,8.2387,8.2387,8.2387,8.2387,8.2387,8.2575,8.2701,8.2701,8.3292,8.3699,8.3699,8.4895,8.5783,8.6242,8.7141,8.7982,8.8634,8.9708,9.0163,9.0098,9.0163,8.9936,8.9445,8.8466,8.8042,5.8027,5.8255,5.8561,5.9337,6.0599,6.2031,6.374,6.4109,6.4158,6.4376,6.4739,6.4904,6.4595,6.5322,6.646,6.7747,6.8555,6.9692,7.1607,7.1876,7.2385,7.3702,7.3881,7.4151,7.4809,7.4869,7.4869,7.4869,7.4869,7.4869,7.4869,7.4869,7.4869,7.4869,7.4869,7.4869,7.4869,7.4869,7.4869,7.4869,7.4869,7.5557,7.6814,7.6814,7.6485,7.5976,7.7263,7.7442,7.6933,7.825,7.8789,7.8699,7.8071,7.822,7.8789,7.8789,7.9238,7.9896,8.0554,8.0794,8.0883,8.1542,8.0883,7.9806,7.9806,7.9327,7.8789,7.8789,7.8789,7.8639,7.7981,7.7831,7.7831,7.7801,7.8596,7.9505,7.983,8.0182,8.0601,8.0948,8.1017,8.1017,8.1017,8.1017,8.1017,8.1017,8.1017,8.1017,8.1017,8.1017,8.1017,8.1017,8.1532,8.1963,8.1963,8.2609,8.3009,8.3009,8.3624,8.4643,8.6042,8.6111,8.6632,8.7772,8.8851,8.9215,8.8915,8.9215,8.8984,8.8247,8.7535,8.719,5.8723,5.8947,5.9246,6.0486,6.1805,6.3218,6.448,6.502,6.5692,6.6997,6.7004,6.6643,6.6342,6.688,6.7508,6.7897,6.8944,7.0051,7.1068,7.1577,7.2026,7.2445,7.2924,7.3283,7.3462,7.3492,7.3492,7.3492,7.3492,7.3492,7.3492,7.3492,7.3492,7.3492,7.3492,7.3492,7.3492,7.3941,7.418,7.418,7.4659,7.5078,7.5467,7.5946,7.6066,7.5946,7.6784,7.7263,7.7562,7.7951,7.7831,7.7442,7.7711,7.7921,7.816,7.8609,7.8908,7.9178,7.9866,7.9806,7.9507,8.0195,7.9806,7.9088,7.9088,7.8938,7.8789,7.8789,7.8789,7.8729,7.8549,7.8489,7.837,7.7921,7.8382,7.9005,7.9148,7.922,7.9363,7.9404,7.9475,7.9475,7.9475,7.9475,7.9475,7.9475,7.9475,7.9475,7.9475,7.9475,7.9475,7.9475,8.0037,8.0429,8.0429,8.1485,8.2149,8.2149,8.2752,8.3612,8.4573,8.5108,8.5765,8.6658,8.7492,8.7904,8.7799,8.7904,8.7529,8.683,8.6054,8.5769,5.8537,5.8938,5.9451,6.109,6.2643,6.4293,6.614,6.6697,6.7249,6.8637,6.848,6.8024,6.7839,6.8106,6.8465,6.8704,6.9453,7.0201,7.0829,7.1248,7.1577,7.1846,7.2265,7.2624,7.2894,7.2924,7.2924,7.2924,7.2924,7.2924,7.2924,7.2924,7.2924,7.2924,7.2924,7.2924,7.2924,7.3552,7.3881,7.3911,7.4569,7.4869,7.4899,7.5318,7.5497,7.5527,7.6185,7.6844,7.7412,7.7143,7.6963,7.6844,7.6993,7.7352,7.7861,7.825,7.8579,7.8878,7.9567,7.9357,7.8908,7.9597,7.9357,7.8789,7.8789,7.8789,7.8789,7.8789,7.8789,7.8789,7.8789,7.8789,7.8699,7.828,7.8489,7.8789,7.8789,7.8789,7.8789,7.8789,7.8789,7.8789,7.8789,7.8789,7.8789,7.8789,7.8789,7.8789,7.8789,7.8789,7.8789,7.8789,7.9656,8.0225,8.0225,8.1422,8.217,8.217,8.2529,8.3011,8.352,8.3916,8.4454,8.508,8.5952,8.6307,8.6196,8.6307,8.6023,8.5297,8.4497,8.416,5.7965,5.8698,5.9521,6.1563,6.3445,6.5555,6.8486,6.8941,6.885,6.951,6.9466,6.9336,6.9333,6.9363,6.9542,7.0111,7.0231,7.041,7.0919,7.0979,7.1188,7.1727,7.1787,7.2056,7.2684,7.2744,7.2744,7.2744,7.2744,7.2744,7.2744,7.2744,7.2744,7.2744,7.2744,7.2744,7.2744,7.3373,7.3732,7.3821,7.448,7.4809,7.4869,7.4869,7.4869,7.4929,7.5617,7.6185,7.6604,7.6185,7.6275,7.6694,7.6245,7.6784,7.7831,7.7861,7.828,7.8878,7.9507,7.9327,7.8878,7.9507,7.9297,7.8789,7.8789,7.8789,7.8789,7.8789,7.8789,7.8789,7.8789,7.8789,7.8789,7.8789,7.8789,7.8789,7.8789,7.8789,7.8789,7.8789,7.8789,7.8789,7.8789,7.8789,7.8789,7.8789,7.8789,7.8789,7.8789,7.8789,7.8789,7.8789,7.9986,8.0764,8.0704,8.1931,8.2649,8.2589,8.2589,8.2589,8.2589,8.2784,8.2995,8.3371,8.4393,8.4728,8.4424,8.4728,8.454,8.3863,8.3116,8.2844,5.921,6.0183,6.1412,6.3618,6.6036,6.8546,7.0763,7.0999,7.0779,7.0923,7.1371,7.1718,7.2032,7.2086,7.2116,7.2235,7.2265,7.2146,7.1727,7.1667,7.1517,7.1158,7.1128,7.1158,7.1308,7.1338,7.1338,7.1338,7.1338,7.1338,7.1338,7.1338,7.1338,7.1338,7.1338,7.1338,7.1338,7.1996,7.2595,7.3133,7.3791,7.436,7.4869,7.4869,7.4869,7.4929,7.5617,7.5677,7.5377,7.6275,7.6425,7.6185,7.7053,7.7562,7.7861,7.84,7.8669,7.8819,7.8968,7.8908,7.8819,7.8968,7.8908,7.8789,7.8789,7.8789,7.8789,7.8789,7.8789,7.8789,7.8789,7.8789,7.8789,7.8789,7.8789,7.8789,7.8789,7.8789,7.8789,7.8789,7.8789,7.8789,7.8789,7.8789,7.8789,7.8789,7.8789,7.8789,7.8789,7.8789,7.8789,7.8789,7.9986,8.0584,8.0075,8.1242,8.1781,8.1242,8.1212,8.1212,8.1212,8.22,8.2995,8.3371,8.3833,8.4129,8.4012,8.4129,8.3907,8.3521,8.2995,8.2844,5.9786,6.1359,6.3369,6.6674,6.8789,7.0509,7.2008,7.251,7.2589,7.2589,7.2649,7.2703,7.2864,7.2924,7.2924,7.2924,7.2924,7.2804,7.2445,7.2385,7.2116,7.1457,7.1368,7.1248,7.0919,7.0889,7.0889,7.0889,7.0889,7.0889,7.0889,7.0889,7.0889,7.0889,7.0889,7.0889,7.0889,7.1547,7.2235,7.2924,7.3582,7.424,7.4869,7.4869,7.4869,7.4899,7.5258,7.5407,7.5437,7.6096,7.6365,7.6425,7.7083,7.7532,7.7861,7.819,7.8519,7.8789,7.8789,7.8789,7.8789,7.8789,7.8789,7.8789,7.8789,7.8789,7.8789,7.8789,7.8789,7.8789,7.8789,7.8789,7.8789,7.8789,7.8789,7.8789,7.8789,7.8789,7.8789,7.8789,7.8789,7.8789,7.8789,7.8789,7.8789,7.8789,7.8789,7.8789,7.8789,7.8789,7.8789,7.8789,7.9986,8.0524,7.9866,8.1033,8.1512,8.0823,8.0794,8.0794,8.0794,8.1452,8.211,8.259,8.3116,8.3341,8.3341,8.3341,8.3266,8.3146,8.292,8.2844,6.0141,6.2553,6.5468,6.9577,7.104,7.1753,7.2841,7.3492,7.3941,7.4031,7.3642,7.3223,7.3103,7.3163,7.3223,7.3103,7.3193,7.3223,7.3103,7.3073,7.2834,7.2146,7.2056,7.1846,7.1308,7.1248,7.1188,7.1068,7.1068,7.1009,7.0919,7.0889,7.0889,7.0889,7.0889,7.0889,7.0889,7.1457,7.2116,7.2924,7.3702,7.436,7.4869,7.4869,7.4869,7.4869,7.4869,7.5198,7.5736,7.5976,7.6365,7.6844,7.7083,7.7502,7.7981,7.7981,7.831,7.8789,7.8789,7.8789,7.8789,7.8789,7.8789,7.8789,7.8789,7.8789,7.8789,7.8789,7.8789,7.8789,7.8789,7.8789,7.8789,7.8789,7.8789,7.8789,7.8789,7.8789,7.8789,7.8789,7.8789,7.8789,7.8789,7.8789,7.8789,7.8789,7.8789,7.8789,7.8789,7.8878,7.8968,7.8968,8.0165,8.0704,8.0045,8.1093,8.1512,8.0823,8.0704,8.0644,8.0644,8.0644,8.0883,8.1422,8.22,8.2649,8.2844,8.2844,8.2844,8.2844,8.2844,8.2844,6.0519,6.4284,6.8143,7.0666,7.1538,7.2182,7.3462,7.3821,7.4061,7.4629,7.4689,7.445,7.3881,7.424,7.442,7.3851,7.424,7.442,7.3851,7.3762,7.3522,7.2864,7.2774,7.2744,7.2654,7.2654,7.2385,7.1787,7.1757,7.1517,7.0919,7.0889,7.0889,7.0889,7.0889,7.0889,7.0889,7.0979,7.1667,7.2924,7.4151,7.4779,7.4869,7.4869,7.4869,7.4869,7.4869,7.4929,7.5108,7.6245,7.6754,7.6933,7.8071,7.8579,7.8669,7.8669,7.8699,7.8789,7.8789,7.8789,7.8789,7.8789,7.8789,7.8789,7.8789,7.8789,7.8789,7.8789,7.8789,7.8789,7.8789,7.8789,7.8789,7.8789,7.8789,7.8789,7.8789,7.8789,7.8789,7.8789,7.8789,7.8789,7.8789,7.8789,7.8789,7.8789,7.8789,7.8789,7.8789,7.9327,7.9686,7.9686,8.0853,8.1392,8.0734,8.1362,8.1512,8.0823,8.0255,7.9956,7.9956,7.9956,7.9986,8.0075,8.1302,8.22,8.2844,8.2844,8.2844,8.2844,8.2844,8.2844,6.2566,6.5912,6.8945,7.159,7.2367,7.2804,7.4151,7.445,7.454,7.4809,7.4869,7.4779,7.448,7.4689,7.4779,7.448,7.4689,7.4779,7.448,7.445,7.421,7.3552,7.3462,7.3313,7.2954,7.2924,7.2804,7.2475,7.2116,7.1757,7.1457,7.1098,7.0889,7.0889,7.0889,7.0889,7.0889,7.0889,7.1368,7.2355,7.3702,7.433,7.433,7.4719,7.4869,7.4869,7.4869,7.5078,7.5497,7.6066,7.6514,7.6874,7.7472,7.7682,7.7682,7.7682,7.7921,7.825,7.825,7.8489,7.8789,7.8789,7.8789,7.8789,7.8789,7.8789,7.8789,7.8789,7.8789,7.8789,7.8789,7.8789,7.8789,7.8789,7.8789,7.8789,7.8789,7.8789,7.8789,7.8789,7.9088,7.9238,7.8849,7.9118,7.9238,7.8849,7.8789,7.8938,7.9327,7.9627,7.9956,8.0345,8.1212,8.1512,8.0853,8.1392,8.1512,8.0823,8.0524,8.0195,7.9836,7.9806,7.9986,8.0345,8.1302,8.1751,8.1661,8.205,8.202,8.1661,8.1661,8.1661,6.3389,6.6173,6.8493,7.1201,7.2038,7.2601,7.4031,7.451,7.4659,7.4839,7.4869,7.4869,7.4869,7.4869,7.4809,7.4659,7.4779,7.4869,7.4869,7.4869,7.4689,7.421,7.4151,7.3941,7.3462,7.3402,7.3343,7.3163,7.2684,7.2235,7.1906,7.1427,7.1068,7.0919,7.0889,7.0889,7.0889,7.1068,7.1398,7.1906,7.3073,7.3642,7.3672,7.4151,7.448,7.4629,7.4809,7.5168,7.5647,7.5826,7.6185,7.6604,7.6754,7.6814,7.6844,7.7023,7.7382,7.7831,7.8011,7.837,7.8789,7.8789,7.8789,7.8789,7.8789,7.8789,7.8789,7.8789,7.8789,7.8789,7.8789,7.8789,7.8789,7.8789,7.8789,7.8789,7.8789,7.8938,7.9058,7.9058,7.9597,7.9896,7.9387,7.9716,7.9896,7.9387,7.9297,7.9477,8.0016,8.0225,8.0494,8.1003,8.1631,8.1841,8.1332,8.1751,8.1811,8.1332,8.1153,8.0823,8.0345,8.0165,8.0285,8.0794,8.1452,8.1631,8.1302,8.1781,8.1781,8.1302,8.1302,8.1302,6.1404,6.3893,6.6526,6.8515,6.9782,7.0976,7.2631,7.3492,7.4121,7.4749,7.4869,7.4869,7.4869,7.4869,7.4659,7.4061,7.448,7.4869,7.4869,7.4869,7.4869,7.4839,7.4839,7.4809,7.4779,7.4779,7.451,7.3881,7.3821,7.3223,7.1966,7.1846,7.1547,7.0919,7.0889,7.0889,7.0889,7.1517,7.1846,7.1906,7.2624,7.2954,7.2954,7.3013,7.3343,7.3971,7.4599,7.4899,7.4988,7.5647,7.5916,7.6006,7.6604,7.6814,7.6904,7.7532,7.7771,7.7891,7.8519,7.8759,7.8789,7.8789,7.8789,7.8789,7.8789,7.8789,7.8789,7.8789,7.8789,7.8789,7.8789,7.8789,7.8789,7.8789,7.8789,7.8789,7.8789,7.9297,7.9776,7.9776,8.0285,8.0734,8.0704,8.0734,8.0734,8.0704,8.0704,8.0704,8.0734,8.1302,8.1691,8.1721,8.232,8.2709,8.2649,8.2754,8.2709,8.2649,8.208,8.1721,8.1691,8.1093,8.0764,8.0794,8.1452,8.208,8.2649,8.2754,8.2754,8.2649,8.2649,8.2649,5.9864,6.2106,6.434,6.7059,6.8476,6.9792,7.2094,7.3136,7.3851,7.4728,7.4869,7.4869,7.4869,7.4869,7.4809,7.4569,7.4719,7.4869,7.4869,7.4869,7.4869,7.4869,7.4869,7.4869,7.4869,7.4869,7.471,7.4197,7.3393,7.2573,7.1866,7.1066,7.0503,7.0265,7.0265,7.0265,7.0265,7.0275,7.0459,7.0951,7.1636,7.2067,7.2295,7.3163,7.3672,7.3941,7.4599,7.4869,7.4899,7.5138,7.5258,7.5258,7.5497,7.5587,7.5647,7.6335,7.6844,7.7263,7.7921,7.843,7.8789,7.8789,7.8789,7.8789,7.8789,7.8789,7.8789,7.8789,7.8789,7.8789,7.8789,7.8789,7.8908,7.9357,7.9447,7.9567,7.9986,7.9926,7.9806,7.9806,8.0704,8.1302,8.0883,8.1153,8.1302,8.0853,8.0794,8.0943,8.1392,8.1631,8.1931,8.238,8.2619,8.2844,8.2844,8.2844,8.2844,8.2844,8.2529,8.223,8.1811,8.1572,8.1422,8.1422,8.1661,8.1691,8.1512,8.1512,8.1512,8.1482,8.1063,8.1093,5.7756,5.9723,6.1635,6.4231,6.5707,6.7255,6.9812,7.1251,7.248,7.3919,7.439,7.4599,7.4839,7.4869,7.4869,7.4869,7.4869,7.4869,7.4869,7.4869,7.4869,7.4869,7.4869,7.4869,7.4869,7.48,7.4504,7.4021,7.3052,7.2235,7.152,7.0665,7.0039,6.9537,6.9308,6.9077,6.8943,6.8808,6.9077,6.9641,7.0644,7.1182,7.1476,7.2648,7.3343,7.3612,7.427,7.4659,7.4869,7.4869,7.4869,7.4869,7.4869,7.5018,7.5288,7.5976,7.6604,7.7263,7.7921,7.843,7.8789,7.8789,7.8789,7.8789,7.8789,7.8789,7.8789,7.8789,7.8789,7.8789,7.8789,7.8968,7.9297,7.9986,8.0165,8.0285,8.0704,8.0464,8.0225,8.0434,8.1362,8.1961,8.1542,8.1811,8.1961,8.1512,8.1452,8.1631,8.205,8.211,8.229,8.2709,8.2844,8.2844,8.2844,8.2844,8.2844,8.2844,8.2844,8.2559,8.211,8.211,8.211,8.211,8.211,8.1901,8.1452,8.1242,8.1242,8.1452,8.0794,8.0823,0.0,0.0,0.0,5.9929,6.1454,6.3244,6.5766,6.7878,6.9983,7.2361,7.3402,7.4091,7.4749,7.4899,7.4899,7.4869,7.4869,7.4869,7.4869,7.4869,7.4869,7.4869,7.4869,7.4869,7.4869,7.4525,7.405,7.3427,7.2995,7.2228,7.099,7.0872,7.0212,6.8799,6.7964,6.7358,6.6943,6.7358,6.773,6.8198,6.9641,7.0397,7.0397,7.1446,7.2265,7.2924,7.3612,7.427,7.4839,7.4869,7.4869,7.4869,7.4869,7.5288,7.5946,7.6604,7.7233,7.7891,7.8549,7.8789,7.8789,7.8789,7.8789,7.8789,7.8789,7.8789,7.8789,7.8789,7.8789,7.8789,7.8819,7.9327,8.0016,8.0674,8.0823,8.0823,8.0853,8.0823,8.1003,8.1661,8.232,8.2844,8.2844,8.2844,8.2844,8.2844,8.2844,8.2844,8.2844,8.2844,8.2844,8.2844,8.2844,8.2844,8.2844,8.2769,8.2769,8.2844,8.2769,8.2769,8.2844,8.2844,8.2844,8.2844,8.2769,8.2769,8.2769,8.208,8.208,8.2709,8.208,8.211,5.3229,0.0,0.0,0.0,0.0,0.0,6.3989,6.6185,6.8303,7.0959,7.2744,7.4091,7.4749,7.5288,7.5467,7.4958,7.4869,7.4869,7.4869,7.4869,7.4869,7.4869,7.4869,7.4869,7.4869,7.4525,7.412,7.3734,7.2473,7.1454,7.0759,6.9855,6.8934,6.8022,6.693,6.6342,6.63,6.6342,6.6832,6.7788,6.9039,6.9869,7.0426,7.1212,7.1732,7.2235,7.3402,7.4001,7.421,7.4689,7.4869,7.4869,7.4869,7.4988,7.5288,7.6425,7.6933,7.7263,7.84,7.8789,7.8789,7.8789,7.8789,7.8789,7.8789,7.8789,7.8789,7.8789,7.8789,7.8908,7.9417,8.0016,8.0704,8.1362,8.1512,8.1631,8.211,8.1841,8.1572,8.1751,8.232,8.2844,8.2844,8.2844,8.2844,8.2844,8.2844,8.2844,8.2844,8.2844,8.2844,8.2844,8.2844,8.2844,8.2844,8.2465,8.2435,8.2769,8.2435,8.2465,8.2769,8.2844,8.2844,8.2844,8.2465,8.2282,8.2282,8.1482,8.1422,8.205,8.1871,8.1871,5.1999,5.3027,5.4316,5.6427,0.0,0.0,6.1179,6.3036,6.5132,6.826,7.0231,7.1787,7.3013,7.3552,7.3702,7.3283,7.3462,7.3911,7.4749,7.4869,7.4869,7.4869,7.4869,7.4869,7.4869,7.4387,7.3852,7.3407,7.2156,7.1167,7.0366,6.9379,6.8324,6.7264,6.592,6.5066,6.4762,6.5066,6.5707,6.6721,6.8499,6.9537,6.9936,7.0947,7.154,7.1768,7.2947,7.3574,7.3708,7.4096,7.4394,7.4663,7.4456,7.4605,7.4892,7.5821,7.6284,7.6598,7.7459,7.7887,7.8033,7.8033,7.8179,7.8282,7.8282,7.8282,7.8282,7.8106,7.8179,7.8563,7.9692,8.0377,8.1033,8.1961,8.2049,8.2063,8.2679,8.2318,8.1944,8.22,8.2499,8.2844,8.2844,8.2844,8.2844,8.2844,8.2844,8.2844,8.2844,8.2844,8.2844,8.2844,8.2844,8.2693,8.2511,8.2282,8.213,8.2206,8.213,8.2206,8.2541,8.2693,8.2693,8.2541,8.2206,8.1786,8.1024,8.0585,8.0333,8.0497,8.0944,8.1287,5.1243,5.2219,5.3463,5.4787,5.4808,0.0,5.7851,5.9327,6.1137,6.4634,6.652,6.8106,7.0021,7.035,7.035,7.035,7.0979,7.2206,7.436,7.4719,7.4809,7.4869,7.4869,7.4869,7.4869,7.4248,7.3525,7.2965,7.2064,7.1034,6.9844,6.9176,6.8119,6.6735,6.5066,6.3911,6.3185,6.3838,6.4563,6.5336,6.7925,6.9136,6.9299,7.0555,7.1155,7.1281,7.2268,7.2827,7.3052,7.3073,7.3487,7.4179,7.3901,7.4115,7.4574,7.4749,7.5276,7.5816,7.5981,7.6317,7.6749,7.6824,7.715,7.7475,7.7549,7.7549,7.7475,7.7076,7.7224,7.7814,7.9605,8.0303,8.1003,8.226,8.215,8.2028,8.2497,8.2269,8.2117,8.2587,8.2769,8.2844,8.2844,8.2844,8.2844,8.2844,8.2844,8.2844,8.2844,8.2844,8.2844,8.2844,8.2844,8.2617,8.213,8.2053,8.19,8.1514,8.1746,8.1976,8.2053,8.2435,8.2465,8.2053,8.1976,8.1125,7.9447,7.9523,7.9215,7.8507,7.953,8.0407,5.0903,5.1239,5.1758,5.31,5.3389,0.0,5.5126,5.6787,5.87,6.08,6.3139,6.5233,6.67,6.6969,6.6969,6.6969,6.7956,6.9812,7.2864,7.3762,7.43,7.4809,7.4869,7.4869,7.4869,7.4248,7.3731,7.3584,7.1918,7.057,6.9815,6.9176,6.8256,6.7056,6.5494,6.4374,6.3626,6.3746,6.4183,6.4978,6.7027,6.8295,6.8934,6.9454,6.9876,7.0238,7.0984,7.1402,7.161,7.1552,7.2444,7.3901,7.386,7.368,7.3503,7.34,7.3497,7.3731,7.3653,7.4221,7.5106,7.5715,7.63,7.6778,7.7402,7.7372,7.7002,7.6629,7.6525,7.6895,7.8492,7.9471,8.0122,8.0631,8.066,8.0629,8.0935,8.1206,8.1506,8.2117,8.2541,8.2844,8.2844,8.2844,8.2844,8.2844,8.2844,8.2844,8.2844,8.2844,8.2844,8.2844,8.2844,8.2617,8.213,8.1823,8.1592,8.1514,8.1311,8.1311,8.1592,8.1669,8.1669,8.1592,8.1282,8.0279,7.8638,7.9295,7.8979,7.7829,7.8552,7.9159,5.188,5.1972,5.2305,5.3611,5.3122,0.0,0.0,5.4999,5.596,5.8165,5.9907,6.1583,6.3258,6.3588,6.3588,6.3588,6.4934,6.6909,6.9572,7.1966,7.3911,7.5228,7.5078,7.4869,7.4869,7.4248,7.3621,7.3199,7.1651,7.057,7.0279,6.935,6.8392,6.7403,6.63,6.5237,6.4283,6.4083,6.4156,6.4573,6.6258,6.7374,6.8022,6.9254,6.9726,6.9633,7.051,7.0614,7.021,7.0019,7.0335,7.1036,7.1741,7.1783,7.1405,7.1443,7.1391,7.133,7.1712,7.2395,7.3324,7.4407,7.5087,7.5573,7.6254,7.5697,7.4857,7.4857,7.5135,7.5783,7.734,7.8446,7.9293,7.9797,7.9749,7.9775,8.0424,8.0541,8.0824,8.1628,8.1976,8.2312,8.2769,8.2844,8.2844,8.2844,8.2469,8.238,8.2709,8.2469,8.2409,8.2709,8.2844,8.2541,8.1823,8.1592,8.1282,8.0922,8.0922,8.1,8.1204,8.136,8.1389,8.1204,8.0844,7.989,7.8407,7.8762,7.8318,7.706,7.7606,7.8152,5.333,5.3317,5.3438,5.4346,5.3235,5.2279,0.0,0.0,0.0,5.5748,5.6705,5.7693,5.9458,5.9787,5.9817,5.9967,6.1702,6.3797,6.5922,6.9213,7.2325,7.4839,7.4629,7.436,7.448,7.3892,7.3069,7.222,7.1005,7.0366,7.0366,6.9379,6.846,6.7747,6.686,6.5877,6.4889,6.4301,6.4083,6.4237,6.555,6.637,6.6847,6.882,6.9466,6.9002,6.9768,6.9735,6.8923,6.8455,6.8103,6.7961,6.9309,6.9551,6.9129,6.9198,6.9011,6.8842,6.9371,7.0227,7.1292,7.2863,7.3845,7.45,7.4549,7.3382,7.2194,7.2672,7.3432,7.4479,7.5946,7.7415,7.8537,7.8992,7.8838,7.8892,7.9812,7.9777,7.98,8.0782,8.1084,8.145,8.2405,8.2541,8.2481,8.2362,8.1884,8.1705,8.2093,8.1795,8.1765,8.2302,8.2451,8.2206,8.1437,8.136,8.1078,8.0373,8.0609,8.0766,8.0766,8.1078,8.1156,8.0766,8.0452,7.9685,7.8407,7.8407,7.774,7.6538,7.6866,7.7278,5.495,5.453,5.3961,5.3511,5.3211,5.2774,5.1815,0.0,5.3114,5.2815,0.0,5.4012,5.485,0.0,0.0,5.5777,5.7992,6.0565,6.3169,6.4904,6.7508,7.1816,7.2265,7.2475,7.3073,7.243,7.1649,7.0683,6.9574,6.9031,6.9031,6.8915,6.846,6.7747,6.6609,6.5692,6.4889,6.3773,6.3406,6.3773,6.4645,6.5292,6.5621,6.7142,6.775,6.7693,6.782,6.8041,6.8115,6.6879,6.652,6.6883,6.7625,6.7756,6.7349,6.6601,6.6424,6.6447,6.5799,6.6852,6.8778,7.0817,7.2673,7.3795,7.2723,7.1177,6.9983,7.0853,7.1927,7.309,7.4423,7.6237,7.7696,7.7414,7.7369,7.7395,7.7706,7.8004,7.8406,7.9155,7.9577,8.0234,8.1492,8.1669,8.1492,8.0901,8.0783,8.0517,7.9985,8.0399,8.0753,8.0812,8.1344,8.1437,8.1,8.1,8.0766,8.0294,8.0373,8.0373,8.0373,8.0373,8.0373,8.0373,8.0294,7.9685,7.8407,7.8407,7.774,7.6538,7.6538,7.682,5.6308,5.5426,5.4589,5.488,5.3743,5.2576,5.2396,5.2486,5.2636,5.2755,0.0,0.0,0.0,0.0,0.0,0.0,5.6735,5.874,6.1014,6.2151,6.4605,6.9602,6.9842,6.9957,7.0808,7.0925,7.0496,6.9316,6.8377,6.804,6.8247,6.8625,6.846,6.7747,6.6819,6.5834,6.4889,6.4083,6.3573,6.3332,6.4156,6.4637,6.4945,6.6103,6.6597,6.6524,6.6955,6.6758,6.6099,6.5319,6.4818,6.4638,6.4766,6.5213,6.5739,6.5318,6.5104,6.4988,6.5,6.5925,6.7394,6.9722,7.1356,7.2247,7.0907,6.968,6.8769,6.9459,7.088,7.2458,7.3275,7.4857,7.6179,7.601,7.601,7.6155,7.6895,7.742,7.7823,7.8492,7.8762,7.9178,8.0084,8.0323,8.0276,8.0011,7.9657,7.9451,7.9615,7.948,7.9716,8.0483,8.0807,8.0977,8.0864,8.0922,8.0766,8.0294,8.0294,8.0294,8.0294,8.0294,8.0294,8.0294,8.0294,7.9685,7.8407,7.8407,7.774,7.6538,7.6538,7.6612,5.74,5.6456,5.5493,5.5846,5.4311,5.2725,5.2665,5.2546,5.2606,5.3084,5.3713,0.0,0.0,0.0,5.5388,5.5209,0.0,5.7603,5.9069,5.9697,6.1852,6.6789,6.7418,6.7804,6.8623,6.9174,6.8968,6.7835,6.7253,6.708,6.758,6.8392,6.8392,6.7541,6.6651,6.5763,6.4745,6.4083,6.3499,6.299,6.3499,6.3868,6.4065,6.4927,6.5399,6.5484,6.5941,6.5612,6.4632,6.4169,6.3696,6.329,6.2916,6.3392,6.4174,6.4174,6.4039,6.3793,6.4256,6.5217,6.6551,6.8516,6.9722,7.0259,6.9241,6.8293,6.7704,6.8293,7.0038,7.19,7.2274,7.3617,7.478,7.4732,7.4732,7.5076,7.6023,7.6674,7.7275,7.7769,7.7885,7.8059,7.8669,7.9207,7.953,7.953,7.9119,7.8943,7.9237,7.9002,7.9178,8.0147,8.0411,8.058,8.0707,8.0766,8.0609,8.0294,8.0294,8.0294,8.0294,8.0294,8.0294,8.0294,8.0294,7.9743,7.864,7.8494,7.7827,7.6724,7.655,7.6538,5.8234,5.7608,5.6799,5.5534,5.467,5.3653,5.1708,5.2247,5.3144,5.3174,5.3713,5.4401,5.5059,5.5718,5.5978,5.5299,5.6256,0.0,0.0,5.7214,5.874,6.278,6.4934,6.634,6.7029,6.7126,6.6803,6.6155,6.602,6.6244,6.6883,6.8131,6.8256,6.7195,6.6046,6.505,6.431,6.3185,6.2593,6.2598,6.2593,6.2685,6.2835,6.3461,6.4011,6.4586,6.4586,6.4586,6.4631,6.3612,6.3342,6.3448,6.2985,6.2822,6.2822,6.2822,6.2822,6.2822,6.2847,6.4372,6.6338,6.713,6.7659,6.7985,6.7634,6.6882,6.6369,6.7307,6.938,7.1391,7.1446,7.2696,7.3873,7.3432,7.3667,7.4056,7.4577,7.5602,7.6567,7.6596,7.6521,7.6724,7.7362,7.8465,7.9356,7.9356,7.9327,7.9046,7.8465,7.8978,7.9327,7.9385,7.9966,8.0265,8.0294,8.0294,8.0294,8.0294,8.0294,8.0294,8.0294,8.0294,8.0294,8.0294,8.0294,7.9946,7.9278,7.8669,7.8059,7.7362,7.6753,7.6538,5.9205,5.8417,5.7484,5.773,5.6343,5.4644,5.3561,5.37,5.4111,5.4498,5.5435,5.6519,5.7517,5.7445,5.7163,5.7143,5.6614,5.6408,0.0,5.6735,5.7483,6.0146,6.26,6.4097,6.41,6.5227,6.5542,6.4523,6.4739,6.5304,6.6186,6.7492,6.7756,6.6777,6.5352,6.4129,6.3111,6.2391,6.1969,6.1721,6.1943,6.224,6.2535,6.2169,6.2545,6.3355,6.3355,6.3376,6.3448,6.3109,6.2972,6.2985,6.2822,6.2822,6.2822,6.2822,6.2822,6.2822,6.3148,6.4465,6.5995,6.6269,6.6887,6.7531,6.7146,6.6626,6.6283,6.7222,6.8909,7.0528,7.05,7.1365,7.2247,7.2035,7.2565,7.3169,7.3617,7.5072,7.6234,7.6263,7.6578,7.7221,7.8088,7.8862,7.9162,7.8756,7.8698,7.864,7.8436,7.8582,7.8872,7.9249,7.9511,7.983,8.0265,8.0294,8.0294,8.0294,8.0294,8.0294,8.0294,8.0294,8.0294,8.0294,8.0294,7.9975,7.9307,7.9104,7.8465,7.7391,7.7188,7.6869,5.9468,5.8778,5.8007,5.8645,5.7069,5.514,5.4257,5.437,5.4854,5.5253,5.6507,5.7874,5.9098,5.8746,5.8234,5.837,5.7319,5.6621,0.0,5.6436,5.6645,5.7902,6.0206,6.1795,6.2045,6.3417,6.3947,6.3143,6.3395,6.4168,6.5519,6.6593,6.6912,6.6299,6.4956,6.3665,6.2492,6.2002,6.1603,6.14,6.1784,6.2148,6.2473,6.1785,6.1969,6.2822,6.2822,6.2822,6.2822,6.2822,6.2822,6.2822,6.2822,6.2822,6.2822,6.2822,6.2822,6.2847,6.3401,6.4234,6.5142,6.5466,6.6077,6.6713,6.655,6.6369,6.6283,6.7052,6.8351,6.9571,6.9433,6.99,7.0473,7.0445,7.1365,7.2274,7.2789,7.4339,7.5647,7.5746,7.6271,7.6962,7.7985,7.8809,7.9249,7.9104,7.9075,7.9075,7.9075,7.9075,7.922,7.9598,7.9656,7.983,8.0265,8.0294,8.0294,8.0294,8.0294,8.0294,8.0294,8.0294,8.0294,8.0294,8.0294,8.0091,7.9656,7.9423,7.8756,7.774,7.7507,7.7072]},{"header":{"parameterUnit":"m.s-1","parameterCategory":1,"la1":30.6,"la2":29.2853,"lo1":-89.7004,"lo2":-87.6739,"dy":0.0162,"dx":0.0183,"nx":112,"ny":82,"refTime":"2026-04-27T00:00:00:Z","depth":0,"parameterNumber":3,"parameterNumberName":"V-component_of_WINDS"},"data":[0.0,0.0,0.0,0.0,0.0,0.0,0.0,0.0,0.0,0.0,0.0,0.0,0.0,0.0,0.0,0.0,0.0,0.0,0.0,0.0,0.0,0.0,0.0,0.0,0.0,0.0,0.0,0.0,0.0,0.0,0.0,0.0,0.0,0.0,0.0,0.0,0.0,0.0,0.0,0.0,0.0,0.0,0.0,0.0,0.0,0.0,0.0,0.0,0.0,0.0,0.0,0.0,0.0,0.0,0.0,0.0,0.0,0.0,0.0,0.0,0.0,0.0,0.0,0.0,0.0,0.0,0.0,0.0,0.0,0.0,0.0,0.0,0.0,0.0,0.0,0.0,0.0,0.0,0.0,0.0,0.0,0.0,0.0,0.0,0.0,0.0,0.0,0.0,0.0,0.0,1.808,1.9013,2.0307,2.1029,2.0721,2.0063,1.9373,1.877,0.0,0.0,0.0,0.0,0.0,0.0,0.0,0.0,0.0,0.0,0.0,0.0,0.0,0.0,0.0,0.0,0.0,0.0,0.0,0.0,0.0,0.0,0.0,0.0,0.0,0.0,0.0,0.0,0.0,0.0,0.0,0.0,0.0,0.0,0.0,0.0,0.0,0.0,0.0,0.0,0.0,0.0,0.0,0.0,0.0,0.0,0.0,0.0,0.0,0.0,0.0,0.0,0.0,0.0,0.0,0.0,0.0,0.0,0.0,0.0,0.0,0.0,0.0,0.0,0.0,0.0,0.0,0.0,0.0,0.0,0.0,0.0,0.0,0.0,0.0,0.0,0.0,0.0,0.0,0.0,0.0,0.0,0.0,0.0,0.0,0.0,0.0,0.0,0.0,0.0,0.0,0.0,0.0,0.0,0.0,0.0,0.0,0.0,0.0,0.0,0.0,0.0,0.0,0.0,1.9162,2.0512,2.152,2.1878,2.1306,2.1278,2.0863,1.9979,0.0,0.0,0.0,0.0,0.0,0.0,0.0,0.0,0.0,0.0,0.0,0.0,0.0,0.0,0.0,0.0,0.0,0.0,0.0,0.0,0.0,0.0,0.0,0.0,0.0,0.0,0.0,0.0,0.0,0.0,0.0,0.0,0.0,0.0,0.0,0.0,0.0,0.0,0.0,0.0,0.0,0.0,0.0,0.0,0.0,0.0,0.0,0.0,0.0,0.0,0.0,0.0,0.0,0.0,0.0,0.0,0.0,0.0,0.0,0.0,0.0,0.0,0.0,0.0,0.0,0.0,0.0,0.0,0.0,0.0,0.0,0.0,0.0,0.0,0.0,0.0,0.0,0.0,0.0,0.0,0.0,0.0,0.0,0.0,0.0,0.0,0.0,0.0,0.0,0.0,0.0,0.0,0.0,0.0,0.0,0.0,0.0,0.0,0.0,0.0,0.0,0.0,0.0,1.9474,2.036,2.1353,2.2138,2.2314,2.178,2.1512,2.1002,2.0281,1.8313,0.0,0.0,0.0,0.0,0.0,0.0,0.0,0.0,0.0,0.0,0.0,0.0,0.0,0.0,0.0,0.0,0.0,0.0,0.0,0.0,0.0,0.0,0.0,0.0,0.0,0.0,0.0,0.0,0.0,0.0,0.0,0.0,0.0,0.0,0.0,0.0,0.0,0.0,0.0,0.0,0.0,0.0,0.0,0.0,0.0,0.0,0.0,0.0,0.0,0.0,0.0,0.0,0.0,0.0,0.0,0.0,0.0,0.0,0.0,0.0,0.0,0.0,0.0,0.0,0.0,0.0,0.0,0.0,0.0,0.0,0.0,0.0,0.0,0.0,0.0,0.0,0.0,0.0,0.0,0.0,0.0,0.0,0.0,0.0,0.0,0.0,0.0,0.0,0.0,0.0,0.0,0.0,0.0,0.0,0.0,0.0,0.0,0.0,0.0,0.0,0.0,0.0,2.1043,2.1641,2.2198,2.2618,2.273,2.2258,2.159,2.0935,2.0207,1.8557,0.0,0.0,0.0,0.0,0.0,0.0,0.0,0.0,0.0,0.0,0.0,0.0,0.0,0.0,0.0,0.0,0.0,0.0,0.0,0.0,0.0,0.0,0.0,0.0,0.0,0.0,0.0,0.0,0.0,0.0,0.0,0.0,0.0,0.0,0.0,0.0,0.0,0.0,0.0,0.0,0.0,0.0,0.0,0.0,0.0,0.0,0.0,0.0,0.0,0.0,0.0,0.0,0.0,0.0,0.0,0.0,0.0,0.0,0.0,0.0,0.0,0.0,0.0,0.0,0.0,0.0,0.0,0.0,0.0,0.0,0.0,0.0,0.0,0.0,0.0,0.0,0.0,0.0,0.0,0.0,0.0,0.0,0.0,0.0,0.0,0.0,0.0,0.0,0.0,0.0,0.0,0.0,0.0,0.0,0.0,0.0,0.0,0.0,0.0,0.0,0.0,0.0,2.2176,2.2857,2.3164,2.323,2.318,2.2832,2.2083,2.1149,2.0294,1.8602,0.0,0.0,0.0,0.0,0.0,0.0,0.0,0.0,0.0,0.0,0.0,0.0,0.0,0.0,0.0,0.0,0.0,0.0,0.0,0.0,0.0,0.0,0.0,0.0,0.0,0.0,0.0,0.0,0.0,0.0,0.0,0.0,0.0,0.0,0.0,0.0,0.0,0.0,0.0,0.0,0.0,0.0,0.0,0.0,0.0,0.0,0.0,0.0,0.0,0.0,0.0,0.0,0.0,0.0,0.0,0.0,0.0,0.0,0.0,0.0,0.0,0.0,0.0,0.0,0.0,0.0,0.0,0.0,0.0,0.0,0.0,0.0,0.0,0.0,0.0,0.0,0.0,0.0,0.0,0.0,0.0,0.0,0.0,0.0,0.0,0.0,0.0,0.0,0.0,0.0,0.0,0.0,0.0,0.0,0.0,0.0,0.0,0.0,0.0,0.0,0.0,0.0,2.2604,2.3193,2.3313,2.3487,2.3407,2.2968,2.2124,2.132,2.0548,0.0,0.0,0.0,0.0,0.0,0.0,0.0,0.0,0.0,0.0,0.0,0.0,0.0,0.0,0.0,0.0,0.0,0.0,0.0,0.0,0.0,0.0,0.0,0.0,0.0,0.0,0.0,0.0,0.0,0.0,0.0,0.0,0.0,0.0,0.0,0.0,0.0,0.0,0.0,0.0,0.0,0.0,0.0,0.0,0.0,0.0,0.0,0.0,0.0,0.0,0.0,0.0,0.0,0.0,0.0,0.0,0.0,0.0,0.0,0.0,0.0,0.0,0.0,0.0,0.0,0.0,0.0,0.0,0.0,0.0,0.0,0.0,0.0,0.0,0.0,0.0,0.0,0.0,0.0,0.0,0.0,0.0,0.0,0.0,0.0,0.0,0.0,0.0,0.0,0.0,0.0,0.0,0.0,0.0,0.0,0.0,0.0,0.0,0.0,0.0,0.0,0.0,2.1937,2.2913,2.35,2.3594,2.3701,2.3607,2.318,2.2325,2.1403,2.0722,0.0,0.0,0.0,0.0,0.0,0.0,0.0,0.0,0.0,0.0,0.0,0.0,0.0,0.0,0.0,0.0,0.0,0.0,0.0,0.0,0.0,0.0,0.0,0.0,0.0,0.0,0.0,0.0,0.0,0.0,0.0,0.0,0.0,0.0,0.0,0.0,0.0,0.0,0.0,0.0,0.0,0.0,0.0,0.0,0.0,0.0,0.0,0.0,0.0,0.0,0.0,0.0,0.0,0.0,0.0,0.0,0.0,0.0,0.0,0.0,0.0,0.0,0.0,0.0,0.0,0.0,0.0,0.0,0.0,0.0,0.0,0.0,0.0,0.0,0.0,0.0,0.0,0.0,0.0,0.0,0.0,0.0,0.0,0.0,0.0,0.0,0.0,0.0,0.0,0.0,0.0,0.0,0.0,0.0,0.0,0.0,0.0,0.0,0.0,0.0,0.0,0.0,2.2231,2.3207,2.3888,2.4168,2.3941,2.3768,2.3768,2.2686,2.1617,0.0,0.0,0.0,0.0,0.0,0.0,0.0,0.0,0.0,0.0,0.0,0.0,0.0,0.0,0.0,0.0,0.0,0.0,0.0,0.0,0.0,0.0,0.0,0.0,0.0,0.0,0.0,0.0,0.0,0.0,0.0,0.0,0.0,0.0,0.0,0.0,0.0,0.0,0.0,0.0,0.0,0.0,0.0,0.0,0.0,0.0,0.0,0.0,0.0,0.0,0.0,0.0,0.0,0.0,0.0,0.0,0.0,0.0,0.0,0.0,0.0,0.0,0.0,0.0,0.0,0.0,0.0,0.0,0.0,0.0,0.0,0.0,0.0,0.0,0.0,0.0,0.0,0.0,0.0,0.0,0.0,0.0,0.0,0.0,0.0,0.0,0.0,0.0,0.0,0.0,0.0,0.0,0.0,0.0,0.0,0.0,0.0,0.0,0.0,0.0,0.0,0.0,0.0,2.2231,2.3207,2.3888,2.4168,2.4128,2.3995,2.3794,2.306,2.2138,2.1042,0.0,0.0,0.0,0.0,0.0,0.0,0.0,0.0,0.0,0.0,0.0,0.0,0.0,0.0,0.0,0.0,0.0,0.0,0.0,0.0,0.0,0.0,0.0,0.0,0.0,0.0,0.0,0.0,0.0,0.0,0.0,0.0,0.0,0.0,0.0,0.0,0.0,0.0,0.0,0.0,0.0,0.0,0.0,0.0,0.0,0.0,0.0,0.0,0.0,0.0,0.0,0.0,0.0,0.0,0.0,0.0,0.0,0.0,0.0,0.0,0.0,0.0,0.0,0.0,0.0,0.0,0.0,0.0,0.0,0.0,0.0,0.0,0.0,0.0,0.0,0.0,0.0,0.0,0.0,0.0,0.0,0.0,0.0,0.0,0.0,0.0,0.0,0.0,0.0,0.0,0.0,0.0,0.0,0.0,0.0,0.0,0.0,0.0,0.0,0.0,0.0,0.0,2.2405,2.338,2.4062,2.4342,2.4275,2.4088,2.3794,2.3327,2.2498,2.1189,0.0,0.0,0.0,0.0,0.0,0.0,0.0,0.0,0.0,0.0,0.0,0.0,0.0,0.0,0.0,0.0,0.0,0.0,0.0,0.0,0.0,0.0,0.0,0.0,0.0,0.0,0.0,0.0,0.0,0.0,0.0,0.0,0.0,0.0,0.0,0.0,0.0,0.0,0.0,0.0,0.0,0.0,0.0,0.0,0.0,0.0,0.0,0.0,0.0,0.0,0.0,0.0,0.0,0.0,0.0,0.0,0.0,0.0,0.0,0.0,0.0,0.0,0.0,0.0,0.0,0.0,0.0,0.0,0.0,0.0,0.0,0.0,0.0,0.0,0.0,0.0,0.0,0.0,0.0,0.0,0.0,0.0,0.0,0.0,0.0,0.0,0.0,0.0,0.0,0.0,0.0,0.0,0.0,0.0,0.0,0.0,0.0,0.0,0.0,0.0,0.0,0.0,2.274,2.3674,2.4342,2.4609,2.4422,2.4155,2.3834,2.3541,2.2752,2.1283,0.0,0.0,0.0,0.0,0.0,0.0,0.0,0.0,0.0,0.0,0.0,0.0,0.0,0.0,0.0,0.0,0.0,0.0,0.0,0.0,0.0,0.0,0.0,0.0,0.0,0.0,0.0,0.0,0.0,0.0,0.0,0.0,0.0,0.0,0.0,0.0,0.0,0.0,0.0,0.0,0.0,0.0,0.0,0.0,0.0,0.0,0.0,0.0,0.0,0.0,0.0,0.0,0.0,0.0,0.0,0.0,0.0,0.0,0.0,0.0,3.1856,3.1157,0.0,0.0,0.0,0.0,0.0,0.0,0.0,0.0,0.0,0.0,0.0,0.0,0.0,0.0,0.0,0.0,0.0,0.0,0.0,0.0,0.0,0.0,0.0,0.0,0.0,0.0,0.0,0.0,0.0,0.0,0.0,0.0,0.0,0.0,0.0,0.0,0.0,0.0,0.0,0.0,2.274,2.3848,2.4569,2.4549,2.4783,2.4676,2.4155,2.3848,2.314,2.1884,2.0762,0.0,0.0,0.0,0.0,0.0,0.0,0.0,0.0,0.0,0.0,0.0,0.0,0.0,0.0,0.0,0.0,0.0,0.0,0.0,0.0,0.0,0.0,0.0,0.0,0.0,0.0,0.0,0.0,0.0,0.0,0.0,0.0,0.0,0.0,0.0,0.0,0.0,0.0,0.0,0.0,0.0,0.0,0.0,0.0,0.0,0.0,0.0,0.0,0.0,0.0,0.0,0.0,0.0,0.0,0.0,0.0,0.0,0.0,0.0,3.3818,3.3123,0.0,0.0,0.0,0.0,0.0,0.0,0.0,0.0,0.0,0.0,0.0,0.0,0.0,0.0,0.0,0.0,0.0,0.0,0.0,0.0,0.0,0.0,0.0,0.0,0.0,0.0,0.0,0.0,0.0,0.0,0.0,0.0,0.0,0.0,0.0,0.0,0.0,0.0,0.0,0.0,2.2753,2.4022,2.485,2.485,2.5117,2.505,2.4462,2.4275,2.3621,2.2285,2.1229,0.0,0.0,0.0,0.0,0.0,0.0,0.0,0.0,0.0,0.0,0.0,0.0,0.0,0.0,0.0,0.0,0.0,0.0,0.0,0.0,0.0,0.0,0.0,0.0,0.0,0.0,0.0,0.0,0.0,0.0,0.0,0.0,0.0,0.0,0.0,0.0,0.0,0.0,0.0,0.0,0.0,0.0,0.0,0.0,0.0,0.0,0.0,0.0,0.0,0.0,0.0,0.0,0.0,3.6211,3.6426,3.6699,3.6855,3.7305,3.7891,3.6266,3.5684,3.5827,3.4505,0.0,0.0,0.0,0.0,0.0,0.0,0.0,0.0,0.0,0.0,0.0,0.0,0.0,0.0,0.0,0.0,0.0,0.0,0.0,0.0,0.0,0.0,3.1169,3.1498,3.1374,3.0438,2.7903,0.0,0.0,0.0,0.0,0.0,0.0,0.0,0.0,0.0,0.0,0.0,2.327,2.4698,2.5595,2.5534,2.5715,2.5496,2.4831,2.4663,2.4075,2.2739,2.183,2.0855,0.0,0.0,0.0,0.0,0.0,0.0,0.0,0.0,0.0,0.0,0.0,0.0,0.0,0.0,0.0,0.0,0.0,0.0,0.0,0.0,0.0,0.0,0.0,0.0,0.0,0.0,0.0,0.0,0.0,0.0,0.0,0.0,3.2383,3.2441,0.0,0.0,0.0,0.0,0.0,0.0,0.0,0.0,0.0,0.0,0.0,0.0,0.0,3.6504,3.6875,3.7656,3.8281,3.8711,3.9473,3.9687,3.9414,4.0156,4.0547,4.0664,4.0801,0.0,3.7533,3.7132,0.0,0.0,0.0,0.0,0.0,0.0,0.0,0.0,0.0,0.0,0.0,0.0,0.0,0.0,0.0,0.0,0.0,0.0,0.0,0.0,0.0,0.0,3.5318,3.5337,3.5574,3.5617,3.4825,3.1634,2.865,2.7464,2.5966,2.4379,0.0,0.0,0.0,0.0,0.0,0.0,2.5502,2.6735,2.7409,2.7107,2.701,2.6558,2.565,2.4992,2.4342,2.3634,2.2739,2.1951,2.136,2.0374,0.0,0.0,0.0,0.0,0.0,0.0,0.0,0.0,0.0,0.0,0.0,0.0,0.0,0.0,0.0,0.0,0.0,0.0,0.0,0.0,0.0,0.0,0.0,0.0,0.0,0.0,0.0,0.0,0.0,3.3066,3.3867,3.3867,3.4023,3.3984,0.0,0.0,0.0,0.0,0.0,0.0,0.0,0.0,0.0,3.6504,3.8027,3.9043,3.9473,4.0312,4.0957,4.1387,4.1777,4.2129,4.2441,4.2812,4.3242,4.3691,4.3633,4.2969,4.1698,3.9718,3.8256,3.7196,0.0,0.0,0.0,0.0,3.4015,3.3965,3.3531,3.3506,3.3719,3.3792,0.0,0.0,0.0,0.0,0.0,0.0,0.0,3.0122,3.2877,3.519,3.6926,3.7391,3.7663,3.7617,3.7187,3.5035,3.2612,3.0352,2.8591,2.703,2.5567,2.4418,0.0,0.0,0.0,2.6722,2.7896,2.8892,2.9381,2.8776,2.8384,2.7705,2.6655,2.5832,2.505,2.4302,2.3728,2.3086,2.2392,2.1443,2.0641,0.0,0.0,0.0,0.0,0.0,0.0,0.0,0.0,0.0,0.0,0.0,0.0,0.0,0.0,0.0,0.0,0.0,0.0,0.0,0.0,0.0,0.0,0.0,0.0,0.0,0.0,0.0,0.0,3.4492,3.5449,3.5664,3.5781,3.5684,0.0,0.0,0.0,0.0,0.0,0.0,3.6328,3.7285,3.8105,3.873,4.0332,4.1387,4.1816,4.2676,4.3301,4.375,4.3848,4.4238,4.4883,4.5,4.5391,4.5976,4.5762,4.5547,4.5156,4.2256,4.0608,3.9718,3.8358,3.7923,3.8114,3.752,3.7821,3.8401,3.8268,3.8236,3.831,3.831,3.6669,3.4189,3.2164,0.0,0.0,0.0,0.0,3.2613,3.523,3.6932,3.8243,3.8891,3.9082,3.8965,3.8516,3.7504,3.5863,3.2935,3.1065,2.9527,2.834,2.7401,0.0,2.8037,2.862,2.9328,3.036,3.1104,3.1216,3.0494,2.9792,2.8894,2.7817,2.6876,2.5918,2.5093,2.4769,2.4269,2.3581,2.2767,2.2049,2.1452,0.0,0.0,0.0,0.0,0.0,0.0,0.0,0.0,0.0,0.0,0.0,0.0,0.0,0.0,0.0,0.0,0.0,0.0,0.0,0.0,0.0,0.0,0.0,0.0,0.0,0.0,0.0,0.0,0.0,3.8281,3.873,0.0,0.0,0.0,0.0,3.7734,3.8476,3.8965,3.9004,4.0234,4.0957,4.1016,4.2266,4.3144,4.3574,4.4453,4.5117,4.5547,4.5957,4.6172,4.623,4.6621,4.6816,4.6894,4.7285,4.6992,4.6133,4.4766,4.3691,4.2832,4.2283,4.1854,4.1523,4.1523,4.1796,4.2164,4.2592,4.302,4.3351,4.3351,4.0569,3.6871,3.5117,3.3253,0.0,0.0,3.4776,3.6034,3.7651,3.8917,3.9902,4.0332,4.043,4.0312,3.9883,3.8825,3.734,3.5249,3.3348,3.1932,3.1432,0.0,3.0627,3.1363,3.1522,3.1931,3.2994,3.3167,3.3001,3.2522,3.1347,3.013,2.9121,2.7865,2.6829,2.6276,2.5866,2.5632,2.5296,2.4666,2.4036,2.3486,2.2827,0.0,0.0,0.0,0.0,0.0,0.0,0.0,0.0,0.0,0.0,0.0,0.0,0.0,0.0,0.0,0.0,0.0,0.0,0.0,0.0,0.0,0.0,0.0,0.0,0.0,0.0,0.0,0.0,3.9766,4.0215,0.0,4.0254,3.9609,3.9531,4.0351,4.0703,4.123,4.2051,4.2832,4.3496,4.4062,4.5039,4.5625,4.5781,4.6367,4.6738,4.6894,4.7051,4.7266,4.7539,4.7676,4.791,4.8164,4.8027,4.7812,4.748,4.6738,4.5449,4.3848,4.3125,4.293,4.3066,4.3359,4.373,4.4199,4.4902,4.5078,4.4785,4.3341,4.1433,3.9305,3.7513,3.6022,3.5263,3.6502,3.7261,3.8135,3.9696,4.0627,4.123,4.1641,4.1738,4.1641,4.1211,4.0143,3.9121,3.8306,3.6284,3.4595,3.418,3.4107,3.4269,3.4838,3.4928,3.5153,3.5861,3.5943,3.5591,3.4614,3.2935,3.136,3.0253,2.8477,2.7297,2.6878,2.6752,2.6458,2.6027,2.5606,2.5016,2.4469,2.3655,2.2857,0.0,0.0,0.0,0.0,0.0,0.0,0.0,0.0,0.0,0.0,0.0,0.0,0.0,0.0,0.0,0.0,0.0,0.0,0.0,0.0,0.0,0.0,0.0,0.0,0.0,3.9082,4.0801,4.1504,4.1992,4.2266,4.2266,4.1758,4.1758,4.2617,4.2949,4.3476,4.4316,4.4922,4.5508,4.6074,4.6777,4.7285,4.7578,4.7871,4.8164,4.8457,4.8457,4.8516,4.8652,4.8652,4.873,4.8848,4.8555,4.834,4.8183,4.791,4.6875,4.5391,4.4668,4.4629,4.5019,4.5195,4.5605,4.6172,4.6738,4.668,4.6074,4.431,4.3042,4.196,4.0669,3.9669,3.9072,3.9828,4.0107,4.0521,4.1592,4.195,4.207,4.2363,4.2422,4.2344,4.207,4.1327,4.0725,4.0548,3.8495,3.6714,3.6584,3.6735,3.7031,3.7461,3.7397,3.7509,3.7951,3.7944,3.739,3.6196,3.4184,3.2534,3.144,2.9571,2.823,2.7903,2.786,2.751,2.6803,2.6426,2.6054,2.5641,2.4602,2.3665,2.2793,0.0,0.0,0.0,0.0,0.0,0.0,0.0,0.0,0.0,0.0,0.0,0.0,0.0,0.0,0.0,0.0,0.0,0.0,0.0,0.0,0.0,0.0,0.0,3.9199,4.0781,4.2344,4.3613,4.418,4.4453,4.4473,4.4473,4.4492,4.4492,4.5273,4.5742,4.5762,4.6523,4.6973,4.7012,4.7422,4.8047,4.8887,4.8906,4.9336,5.0176,5.0176,4.9961,4.9551,4.9551,4.9316,4.8906,4.8906,4.8652,4.8262,4.8262,4.8008,4.7617,4.7129,4.7207,4.7539,4.7109,4.75,4.8223,4.8223,4.793,4.7461,4.6582,4.5742,4.498,4.4551,4.4101,4.375,4.375,4.3457,4.3144,4.3144,4.2832,4.25,4.25,4.25,4.25,4.25,4.248,4.2344,4.1914,3.9833,3.8233,3.856,3.8633,3.875,3.916,3.8867,0.0,3.9296,3.8956,3.8254,3.7087,3.5099,3.349,3.2681,3.1117,2.9839,2.9198,2.9212,2.8758,2.7683,2.7231,2.7013,2.7013,2.574,2.4437,2.3149,0.0,0.0,0.0,0.0,0.0,0.0,0.0,0.0,0.0,0.0,0.0,0.0,0.0,0.0,0.0,0.0,0.0,0.0,0.0,0.0,0.0,3.9121,4.0488,4.0625,4.2383,4.4043,4.5019,4.5508,4.5898,4.6211,4.623,4.6367,4.668,4.6914,4.7187,4.75,4.7734,4.8144,4.8789,4.8926,4.9258,4.9805,4.9824,4.9941,5.0176,5.0176,5.0117,5.0,5.0,4.9941,4.9824,4.9824,4.9746,4.9609,4.9297,4.9277,4.9336,4.7949,4.748,4.7598,4.7793,4.8203,4.8633,4.832,4.8125,4.7851,4.668,4.6152,4.582,4.5078,4.4766,4.4668,4.4668,4.457,4.4492,4.4492,4.4394,4.4316,4.4316,4.4316,4.4238,4.3926,4.3594,4.3223,4.2812,4.1913,4.0919,4.0137,3.9726,3.957,3.9687,3.9632,3.9596,3.9732,3.9656,3.9105,3.784,3.5633,3.3907,3.3126,3.1496,3.0584,3.0787,3.0233,2.97,2.9217,2.8193,2.7583,2.7349,2.6061,2.4926,0.0,0.0,0.0,0.0,0.0,0.0,0.0,0.0,0.0,0.0,0.0,0.0,0.0,0.0,0.0,0.0,0.0,0.0,0.0,0.0,0.0,0.0,4.0684,4.2226,4.2949,4.4141,4.5176,4.5859,4.6465,4.6933,4.7187,4.7207,4.7383,4.7812,4.7851,4.8105,4.873,4.875,4.9082,4.9785,4.9805,5.0,5.043,5.0449,5.0527,5.0703,5.0703,5.0605,5.0449,5.0449,5.0351,5.0176,5.0176,5.0176,5.0156,4.9902,4.9941,5.0039,0.0,0.0,0.0,0.0,4.8808,4.8828,4.8574,4.8476,4.832,4.7402,4.7109,4.6933,4.6074,4.5703,4.5527,4.5351,4.5176,4.5019,4.5019,4.5019,4.5019,4.5019,4.5019,4.4961,4.4707,4.4453,4.4141,4.3711,4.3281,0.0,4.1758,4.1094,4.0644,4.0449,4.043,4.043,4.043,4.043,3.9949,3.8671,3.6525,3.4946,3.4278,3.2869,0.0,0.0,0.0,3.0905,2.957,2.8477,0.0,0.0,0.0,0.0,0.0,2.4867,0.0,0.0,2.372,2.4071,0.0,0.0,0.0,0.0,0.0,0.0,0.0,0.0,0.0,0.0,0.0,0.0,0.0,0.0,0.0,0.0,4.2226,4.3926,4.5527,4.5879,4.6094,4.6465,4.7187,4.7676,4.7715,4.7734,4.7891,4.832,4.8359,4.8711,4.9551,4.9648,0.0,0.0,0.0,5.0508,5.0879,5.0879,5.1055,5.1426,5.1426,5.123,5.0879,5.0879,5.0664,5.0312,5.0312,5.0312,5.0312,5.0273,5.0254,5.0176,4.9336,4.9492,5.0137,4.9746,4.9355,4.9004,4.8945,0.0,0.0,4.8359,4.8203,4.8047,4.7246,4.6738,4.6367,4.5996,4.5586,4.5234,4.5234,4.5195,4.5176,4.5176,4.5176,4.5156,4.5117,4.5098,4.4961,4.4492,4.4062,4.3633,4.3164,4.2363,4.168,4.1308,4.1211,4.1172,4.1172,4.1172,4.0763,3.9528,3.7668,0.0,3.5874,3.4819,3.4174,3.4342,3.3811,3.2317,2.9544,2.8655,2.7925,2.7217,2.713,2.6837,2.6296,2.6574,2.6881,2.7174,2.5915,2.5827,0.0,0.0,0.0,0.0,0.0,0.0,0.0,0.0,0.0,0.0,0.0,0.0,0.0,0.0,0.0,4.1758,4.3808,4.541,4.6094,4.707,4.7754,4.7832,4.7988,4.8223,4.8574,4.8613,4.8789,4.9238,4.9277,4.9512,5.0019,5.0371,5.0605,5.0683,5.1016,5.123,5.1308,5.1308,5.1348,5.1426,5.1426,0.0,5.1308,5.1308,5.1269,5.1191,5.1191,5.1191,5.1172,5.082,5.0683,5.0625,5.0117,5.0019,5.0176,5.0078,5.0,4.9863,4.9512,4.9394,4.9258,4.8457,4.8203,4.8105,4.7598,4.7402,0.0,4.7226,4.6894,4.6562,4.6562,4.6308,4.6055,4.6055,4.6055,4.5957,4.5625,4.5547,4.5312,4.4551,4.4316,4.4004,4.3223,4.2363,4.1777,4.1699,4.1387,4.1172,4.1172,4.1172,4.0841,3.9855,3.8527,3.7558,3.7181,3.6563,3.6358,3.6771,3.5471,3.3631,3.1141,3.0012,2.9169,2.852,2.8022,2.7832,2.7964,2.8037,2.8227,2.8505,2.7481,2.7393,0.0,0.0,0.0,0.0,0.0,0.0,0.0,0.0,0.0,0.0,0.0,3.6816,3.832,0.0,4.1484,4.3418,4.5,4.6211,4.6855,4.7676,4.8203,4.8203,4.8594,4.8945,4.918,4.9394,4.9609,4.9844,5.0032,5.0397,5.085,5.1352,5.1666,5.1884,5.2102,5.2104,5.1814,5.1814,5.1717,5.1426,5.1717,5.1814,5.1814,5.2104,5.2221,5.2221,5.2221,5.2221,5.2201,5.1983,5.1904,5.1864,5.1666,5.1162,5.0488,5.0488,5.0351,5.0156,4.9922,4.9707,4.9453,4.9004,4.8711,4.8457,4.8027,4.7891,4.7851,4.7637,4.7422,4.7207,4.6992,4.6777,4.6562,4.6348,4.6308,4.625,4.6035,4.5996,4.5742,4.4883,4.4707,4.4433,4.3555,4.2851,4.2363,4.2148,4.1933,4.1797,4.1797,4.1797,4.1561,4.0954,3.9729,3.9003,3.8704,3.8288,3.8064,3.8122,3.6764,3.5175,3.3332,3.1798,3.0559,2.9841,2.9284,2.9209,2.9538,2.9922,3.049,3.1201,3.0721,3.0106,0.0,0.0,0.0,0.0,0.0,0.0,0.0,3.4258,3.4844,3.582,3.7031,3.8437,4.0078,4.1504,4.3047,4.4961,4.6142,4.7003,4.7598,4.8157,4.8431,4.834,4.9043,4.9531,4.9531,4.9922,5.031,5.0483,5.0842,5.1305,5.1857,5.2339,5.2711,5.2992,5.3073,5.288,5.2394,5.2298,5.2008,5.1717,5.2008,5.2298,5.2394,5.28,5.2992,5.2992,5.2992,5.2992,5.2992,5.2992,5.2992,5.2992,5.2992,5.2291,5.1226,5.1226,5.101,5.0696,5.0617,5.0342,5.0028,4.9757,4.9463,4.9091,4.8457,4.834,4.8262,4.793,4.7773,4.7617,4.7266,4.7051,4.6836,4.6504,4.6367,4.6308,4.6308,4.6308,4.6074,4.5293,4.5078,4.4766,4.3984,4.3476,4.3047,4.2617,4.248,4.2422,4.2422,4.2422,4.2261,4.1959,4.1024,4.0445,4.0385,4.0061,3.9758,3.9357,3.8301,3.7162,3.5748,3.4075,3.256,3.1348,3.1165,3.1196,3.1456,3.2265,3.3257,3.4227,3.4183,3.315,3.1699,3.2519,3.375,3.3887,3.4512,3.5215,0.0,3.6074,3.6738,3.7969,3.9258,4.0566,4.1894,4.3516,4.5,4.5996,4.7563,4.859,4.8216,4.8882,4.9249,4.8881,4.9219,4.9531,4.9531,4.9922,5.0522,5.1372,5.1487,5.1877,5.2796,5.3177,5.3334,5.3013,5.3375,5.3278,5.2896,5.2394,5.2394,5.28,5.2394,5.2491,5.2896,5.2992,5.2992,5.2992,5.2992,5.2992,5.2992,5.2992,5.2992,5.2992,5.2992,5.2876,5.272,5.272,5.27,5.2599,5.2199,5.2038,5.1763,5.0609,5.0145,5.0007,4.911,4.8789,4.8769,4.873,4.8437,4.8125,4.8086,4.75,4.6914,4.6875,4.6582,4.6308,4.6308,4.6308,4.6172,4.5703,4.5293,4.4883,4.4394,4.3945,4.3496,4.3066,4.2676,4.2422,4.2422,4.2422,4.2342,4.2342,4.2184,4.2125,4.2125,4.2086,4.1872,4.1444,4.1012,3.9952,3.8377,3.7435,3.588,3.3797,3.4095,3.4256,3.4092,3.5043,3.5925,3.6839,3.6728,3.5548,3.291,3.3711,3.4961,3.5469,3.623,3.7051,3.7715,3.8223,3.8906,4.0195,4.1484,4.2773,4.4082,4.5312,4.6494,4.7642,4.872,4.9425,4.9755,5.0172,5.0258,5.0113,5.0284,5.0353,5.0353,5.1269,5.1956,5.2403,5.2711,5.3079,5.3452,5.3848,5.406,5.3876,5.404,5.3944,5.3473,5.3261,5.3089,5.2992,5.3089,5.3281,5.3473,5.376,5.3856,5.3856,5.3856,5.3856,5.3856,5.3856,5.3856,5.3856,5.3856,5.3856,5.376,5.3185,5.2992,5.2972,5.2791,5.255,5.2173,5.1603,5.0956,5.0218,4.9855,4.934,4.8867,4.8867,4.873,4.8535,4.8281,4.7949,4.7539,4.7051,4.6797,4.6601,4.6348,4.6308,4.6172,4.5762,4.5527,4.5273,4.4844,4.4609,4.4414,4.4238,4.3613,4.3164,4.3164,4.3164,4.3086,4.2832,4.2812,4.2695,4.2441,4.2422,4.2344,4.2168,4.1769,4.1132,4.0203,3.9058,3.7667,3.5925,3.6108,3.6175,3.6075,3.7503,3.8803,3.9909,3.9777,3.9218,3.4199,3.5,3.6152,3.7129,3.8008,3.8867,3.9726,4.0273,4.0918,4.209,4.3262,4.4394,4.5488,4.6552,4.7592,4.8672,4.972,5.0483,5.0981,5.1297,5.1343,5.1081,5.1196,5.1229,5.1089,5.2193,5.2948,5.3185,5.3569,5.3856,5.3951,5.4354,5.4544,5.4544,5.4544,5.4333,5.3951,5.3856,5.3664,5.3377,5.3664,5.3856,5.4047,5.4354,5.4544,5.4544,5.4544,5.4544,5.4544,5.4544,5.4544,5.4544,5.4544,5.4544,5.4428,5.3664,5.3377,5.3377,5.3377,5.3174,5.287,5.2654,5.1886,5.1063,5.0756,5.0218,4.9663,4.936,4.9321,4.913,4.8588,4.8301,4.8047,4.7422,4.7109,4.6836,4.6543,4.6387,4.6211,4.5918,4.5762,4.5566,4.5254,4.5098,4.5019,4.5019,4.4473,4.4023,4.3906,4.3789,4.3594,4.3281,4.3242,4.3125,4.2812,4.2773,4.2734,4.2617,4.2411,4.2168,4.1728,4.0745,3.9648,3.8303,3.8509,3.8645,3.8377,4.0162,4.1693,4.2892,4.2799,4.263,3.5605,3.6582,3.7539,3.8809,3.9785,4.0664,4.1523,4.2051,4.2598,4.3457,4.4355,4.5117,4.5586,4.7071,4.8295,4.8315,5.0569,5.2023,5.1154,5.212,5.2552,5.1194,5.1756,5.2229,5.1688,5.2087,5.272,5.3719,5.376,5.3951,5.4449,5.4524,5.4544,5.4544,5.4544,5.4524,5.4449,5.4047,5.4047,5.4449,5.4047,5.4047,5.4449,5.4524,5.4544,5.4544,5.4544,5.4544,5.4544,5.4544,5.4544,5.4544,5.4544,5.4544,5.4544,5.4449,5.4449,5.4449,5.4449,5.4428,5.4251,5.3419,5.3066,5.287,5.1973,5.1645,5.145,5.0544,5.0238,5.0046,4.913,4.8535,4.8203,4.8164,4.7539,4.6933,4.6914,4.6582,4.6289,4.6289,4.5957,4.5664,4.5664,4.5312,4.5019,4.5019,4.5,4.4844,4.4433,4.3984,4.3691,4.3691,4.3691,4.3691,4.3672,4.3672,4.3496,4.3086,4.3437,4.3476,4.3086,4.2963,4.2345,4.0866,4.1796,4.1981,4.1452,4.3368,4.4725,4.5574,4.5574,4.534,3.6601,3.7695,3.8945,4.0527,4.1582,4.2441,4.332,4.3848,4.4238,4.4512,4.5039,4.5672,4.645,4.7533,4.8574,4.957,5.123,5.2445,5.2415,5.3058,5.3304,5.259,5.2404,5.2322,5.224,5.2662,5.3124,5.3764,5.3785,5.4024,5.4428,5.4544,5.4544,5.4544,5.4544,5.4544,5.4544,5.4333,5.4333,5.4544,5.4333,5.4354,5.4544,5.4544,5.4544,5.4544,5.4544,5.4544,5.4544,5.4544,5.4544,5.4544,5.4544,5.4544,5.4544,5.4544,5.4544,5.4544,5.4544,5.4544,5.4408,5.4168,5.3616,5.3046,5.2714,5.2188,5.1645,5.1317,5.0776,5.0218,4.9894,4.9242,4.8574,4.8281,4.7988,4.7617,4.7051,4.6816,4.6641,4.6367,4.6191,4.6094,4.6094,4.5976,4.5879,4.5879,4.5391,4.498,4.4824,4.4433,4.416,4.416,4.3887,4.3711,4.3711,4.3984,4.4268,4.4442,4.4837,4.5099,4.5274,4.4976,4.4466,4.3706,4.4029,4.4087,4.3917,4.5129,4.6339,4.7496,4.7454,4.7581,3.8319,3.9583,4.0927,4.2368,4.3376,4.4225,4.4789,4.5196,4.5385,4.5058,4.5371,4.5876,4.6425,4.7419,4.849,4.9732,5.1493,5.2786,5.3178,5.3805,5.3978,5.3302,5.2879,5.2632,5.247,5.2952,5.3299,5.3551,5.3758,5.3985,5.4275,5.4441,5.4544,5.4544,5.4544,5.4544,5.4544,5.4544,5.4544,5.4544,5.4544,5.4544,5.4544,5.4544,5.4544,5.4544,5.4544,5.4544,5.4544,5.4544,5.4544,5.4544,5.4544,5.4544,5.4544,5.4544,5.4544,5.4544,5.4544,5.4544,5.4544,5.4544,5.4052,5.3616,5.3616,5.3222,5.2559,5.2141,5.1557,5.0976,5.047,4.9802,4.9341,4.9064,4.8867,4.861,4.8057,4.7702,4.7386,4.7109,4.6931,4.6832,4.6832,4.6832,4.6832,4.6832,4.6186,4.5601,4.5273,4.4883,4.4629,4.4629,4.4355,4.418,4.418,4.4621,4.4946,4.5262,4.5708,4.6101,4.6437,4.6101,4.5847,4.5594,4.5752,4.5831,4.5831,4.6695,4.7652,4.8617,4.8836,4.9115,4.0794,4.2245,4.3475,4.4361,4.5208,4.587,4.5808,4.6055,4.6042,4.5163,4.5312,4.5601,4.5594,4.6741,4.7935,4.8923,5.1376,5.3157,5.3178,5.4296,5.4648,5.3364,5.3199,5.3011,5.2659,5.3072,5.3342,5.3394,5.3758,5.3914,5.3934,5.437,5.4544,5.4544,5.4544,5.4544,5.4544,5.4565,5.4586,5.4606,5.4586,5.4565,5.4565,5.4565,5.4565,5.4565,5.4586,5.4606,5.4606,5.4586,5.4565,5.4565,5.4544,5.4544,5.4544,5.4544,5.4544,5.4544,5.4544,5.4544,5.4544,5.4544,5.4544,5.4544,5.4544,5.4544,5.4242,5.2866,5.2413,5.2096,5.069,5.0357,5.0337,5.0337,5.0035,4.9733,4.9693,4.9029,4.8446,4.8405,4.8063,4.7782,4.7782,4.7782,4.7762,4.7742,4.7394,4.6801,4.5848,4.5332,4.5058,4.5058,4.5039,4.5019,4.5104,4.5464,4.5803,4.5783,4.6225,4.6498,4.6498,4.6498,4.6498,4.6498,4.6901,4.7123,4.7123,4.7996,4.8724,4.9174,4.963,5.0073,4.2729,4.4079,4.5309,4.6112,4.6494,4.6776,4.7087,4.6749,4.6049,4.5277,4.4607,4.4332,4.472,4.587,4.7277,4.8843,5.1081,5.2785,5.3137,5.3758,5.4068,5.3716,5.3385,5.3445,5.3999,5.4431,5.5194,5.6368,5.5887,5.5484,5.5479,5.5574,5.5472,5.5114,5.4735,5.4544,5.4544,5.4855,5.5186,5.5538,5.5186,5.502,5.502,5.502,5.502,5.5041,5.5393,5.5538,5.5496,5.5165,5.502,5.4979,5.4668,5.4544,5.4544,5.4544,5.4544,5.4544,5.4544,5.4544,5.4544,5.4544,5.4544,5.4544,5.4544,5.4544,5.4325,5.3632,5.2939,5.227,5.1514,5.0853,5.0337,5.0337,5.0256,5.0075,4.9753,4.9512,4.925,4.8888,4.8727,4.8647,4.8647,4.8647,4.8546,4.8244,4.8117,4.7694,4.6821,4.604,4.568,4.5917,4.5726,4.5698,4.6016,4.6401,4.6836,4.7176,4.765,4.8025,4.8366,4.8366,4.8366,4.8366,4.849,4.8531,4.8551,4.9176,4.963,5.0084,5.0502,5.1005,4.482,4.5923,4.6821,4.743,4.7736,4.7919,4.7743,4.6831,4.5832,4.4968,4.3765,4.3094,4.392,4.4926,4.6163,4.8188,5.0384,5.2213,5.3061,5.4059,5.4821,5.4798,5.4824,5.5123,5.5821,5.6508,5.7423,5.8693,5.7916,5.7311,5.7255,5.6816,5.6371,5.5923,5.4999,5.4627,5.4813,5.5269,5.5621,5.5869,5.56,5.5476,5.5476,5.5476,5.5476,5.5496,5.5766,5.5869,5.5848,5.56,5.5372,5.5165,5.4917,5.471,5.4565,5.4751,5.4813,5.4813,5.4813,5.4813,5.4793,5.4606,5.4544,5.4544,5.4544,5.4544,5.4399,5.3737,5.3178,5.2642,5.1872,5.1341,5.0975,5.0975,5.0975,5.0914,5.0669,5.0445,5.018,4.9712,4.961,4.961,4.961,4.961,4.9467,4.904,4.8803,4.8467,4.7742,4.7048,4.6563,4.663,4.6604,4.6701,4.6937,4.7415,4.7728,4.7984,4.8671,4.9111,4.9369,4.9556,4.9659,4.9659,4.9659,4.9659,4.9659,4.9928,5.028,5.0736,5.0984,5.1357,4.6658,4.7444,4.7879,4.8355,4.8728,4.8746,4.7827,4.6591,4.5347,4.4297,4.2722,4.1955,4.3118,4.3798,4.4967,4.7196,4.9514,5.1536,5.3058,5.4896,5.6179,5.6463,5.6907,5.7462,5.8098,5.8965,5.9914,6.086,6.0154,5.9566,5.9201,5.8338,5.7519,5.6818,5.5546,5.5112,5.555,5.6029,5.628,5.6342,5.6363,5.6245,5.6147,5.6168,5.607,5.5973,5.6035,5.6055,5.6055,5.5993,5.5683,5.5269,5.5207,5.4917,5.4586,5.4958,5.5124,5.5165,5.5124,5.5145,5.5103,5.4668,5.4544,5.4544,5.4544,5.4544,5.4358,5.3509,5.324,5.2992,5.2122,5.1853,5.1791,5.1791,5.1791,5.1791,5.1791,5.1481,5.1087,5.0673,5.0611,5.0611,5.0611,5.0611,5.0425,4.9928,4.9564,4.903,4.8519,4.7941,4.7528,4.7268,4.7528,4.7788,4.7874,4.8286,4.8478,4.854,4.9362,4.9783,4.9845,5.0218,5.0425,5.0425,5.0425,5.0425,5.0425,5.0487,5.0715,5.1108,5.117,5.1439,4.7279,4.79,4.8376,4.8831,4.8728,4.8272,4.7382,4.582,4.416,4.2611,4.1438,4.0875,4.1414,4.2548,4.4156,4.6701,4.9059,5.1339,5.356,5.5404,5.706,5.8288,5.8842,5.9607,6.0962,6.1499,6.2393,6.3861,6.4075,6.3165,6.0809,6.02,5.9109,5.7377,5.7119,5.7149,5.7647,5.8123,5.8555,5.8966,5.8579,5.819,5.7703,5.7333,5.6941,5.6469,5.6821,5.6987,5.6966,5.6594,5.6159,5.5724,5.5331,5.4917,5.4544,5.4627,5.4875,5.5124,5.4772,5.4896,5.5103,5.4668,5.4544,5.4544,5.4544,5.4544,5.442,5.3882,5.3468,5.3054,5.2516,5.2081,5.1791,5.1791,5.1791,5.1791,5.1791,5.1729,5.1646,5.1584,5.1564,5.1564,5.1564,5.1564,5.1274,5.0425,5.0213,4.9728,4.856,4.7941,4.7788,4.8113,4.8199,4.8458,4.8802,4.8887,4.9138,4.9531,4.9701,4.9928,5.028,5.0384,5.0425,5.0425,5.0425,5.0425,5.0425,5.0798,5.1025,5.1108,5.1501,5.1936,4.8024,4.8396,4.8479,4.8955,4.8728,4.8024,4.6637,4.4596,4.2769,4.1681,4.0068,3.9205,4.0472,4.1318,4.2556,4.5154,4.7527,4.9904,5.2536,5.5397,5.7804,5.9476,6.0803,6.1901,6.2872,6.3384,6.4035,6.4963,6.5431,6.5024,6.3438,6.2131,6.0725,5.8973,5.9242,5.9396,5.962,6.0136,6.0629,6.1122,6.0667,6.0031,5.9225,5.8758,5.7866,5.6573,5.678,5.6738,5.6511,5.6283,5.5931,5.5496,5.5269,5.4917,5.4565,5.4793,5.5,5.5145,5.4938,5.5,5.5103,5.4668,5.4544,5.4544,5.4544,5.4544,5.4399,5.3696,5.3344,5.3013,5.2309,5.1978,5.1791,5.1791,5.1791,5.1791,5.1791,5.1791,5.1791,5.1791,5.1791,5.1791,5.1791,5.1791,5.1564,5.088,5.0777,5.044,4.9584,4.924,4.8902,4.8413,4.8835,4.9238,4.9431,4.9638,4.9866,5.0094,5.0322,5.0549,5.0777,5.1005,5.1129,5.1129,5.1129,5.1129,5.115,5.1357,5.146,5.1481,5.1957,5.2267,4.8207,4.8498,4.8374,4.8831,4.85,4.761,4.5809,4.3489,4.1459,4.0713,3.8819,3.781,3.963,4.0129,4.0995,4.3565,4.5747,4.8232,5.1333,5.5176,5.8359,6.0487,6.2625,6.4002,6.444,6.4789,6.5137,6.5508,6.5853,6.5853,6.5248,6.3714,6.225,6.0949,6.1253,6.1461,6.1461,6.1994,6.2504,6.3013,6.2473,6.1845,6.0991,6.0332,5.9039,5.7242,5.7242,5.6969,5.655,5.655,5.6278,5.5838,5.5763,5.53,5.485,5.5108,5.5199,5.5165,5.5082,5.5103,5.5103,5.4668,5.4544,5.4544,5.4544,5.4461,5.4234,5.353,5.3178,5.2868,5.2143,5.1874,5.1791,5.1791,5.1791,5.1791,5.1791,5.1791,5.1791,5.1791,5.1791,5.1791,5.1791,5.1791,5.1646,5.117,5.1108,5.0943,5.0466,5.0425,4.996,4.8913,4.9506,4.9908,4.9908,5.0218,5.0466,5.057,5.0901,5.115,5.1253,5.1605,5.1791,5.1791,5.1791,5.1853,5.1957,5.1957,5.1998,5.2102,5.2474,5.2702,4.7106,4.7517,4.7909,4.8353,4.7796,4.6678,4.4836,4.2718,4.0713,3.9081,3.7966,3.7606,3.8497,3.9,4.0063,4.2596,4.4277,4.6636,5.0747,5.4874,5.8616,6.138,6.4149,6.5853,6.594,6.594,6.6026,6.6026,6.6112,6.5681,6.4789,6.4178,6.3562,6.3008,6.3056,6.308,6.308,6.3631,6.4182,6.4708,6.4128,6.3594,6.313,6.2076,6.077,5.9268,5.9268,5.9104,5.8647,5.8647,5.8365,5.793,5.7384,5.6632,5.585,5.5441,5.5237,5.5124,5.4731,5.4855,5.5103,5.4668,5.4544,5.4544,5.4544,5.4234,5.3882,5.382,5.3178,5.2536,5.2454,5.2122,5.1791,5.1791,5.1791,5.1791,5.1791,5.1791,5.1791,5.1791,5.1791,5.1791,5.1791,5.1791,5.1646,5.117,5.1108,5.0943,5.0466,5.0425,5.0384,5.0213,5.0322,5.0363,5.0363,5.0404,5.0591,5.1025,5.1087,5.1294,5.1729,5.1771,5.1791,5.1791,5.1791,5.1998,5.2433,5.2433,5.264,5.3054,5.3095,5.3344,4.6788,4.7589,4.8131,4.8035,4.7257,4.606,4.4009,4.1651,3.9593,3.8347,3.7242,3.6809,3.7895,3.8456,3.9455,4.1782,4.3491,4.5796,4.9395,5.3573,5.7154,5.9547,6.2347,6.4279,6.463,6.4931,6.5383,6.6061,6.6112,6.594,6.557,6.5335,6.5161,6.4963,6.4963,6.4963,6.4963,6.5185,6.558,6.6148,6.5608,6.4957,6.4151,6.3502,6.2199,6.0413,6.0413,6.0214,5.9741,5.9741,5.9629,5.9449,5.894,5.7995,5.6796,5.6371,5.5556,5.4772,5.4586,5.4648,5.4772,5.4586,5.4544,5.4544,5.4544,5.4213,5.3799,5.353,5.2992,5.2433,5.2143,5.1936,5.1791,5.1791,5.1791,5.1791,5.1791,5.1791,5.1791,5.1791,5.1791,5.1791,5.1791,5.1791,5.1729,5.1564,5.1522,5.146,5.1274,5.1253,5.1253,5.1253,5.1005,5.0839,5.0839,5.1087,5.1336,5.1522,5.1522,5.1729,5.2205,5.2226,5.235,5.264,5.264,5.2723,5.2909,5.2909,5.2992,5.3199,5.3468,5.3675,4.5901,4.7123,4.7824,4.7078,4.631,4.5185,4.3054,4.0727,3.8737,3.8036,3.6897,3.6357,3.7594,3.8073,3.8888,4.0894,4.2476,4.4579,4.776,5.1696,5.5101,5.7445,6.0101,6.2144,6.2873,6.3877,6.4931,6.6036,6.6112,6.6112,6.6112,6.6112,6.6187,6.6363,6.6363,6.6438,6.6614,6.6614,6.6815,6.7216,6.6666,6.6044,6.5174,6.4655,6.3528,6.192,6.192,6.1641,6.1242,6.1242,6.1242,6.1152,6.0544,5.9453,5.8237,5.7634,5.6559,5.5357,5.5357,5.5357,5.5357,5.5188,5.5094,5.4904,5.483,5.4204,5.3592,5.3282,5.2743,5.2226,5.1895,5.1791,5.1791,5.1791,5.1791,5.1791,5.1791,5.1791,5.1791,5.1791,5.1791,5.1791,5.1791,5.1791,5.1791,5.1791,5.1791,5.1791,5.1791,5.1791,5.1791,5.1791,5.1501,5.1315,5.1315,5.1605,5.1853,5.1998,5.1998,5.2226,5.2681,5.2702,5.2847,5.3178,5.3178,5.324,5.3385,5.3385,5.3447,5.3592,5.3903,5.4048,4.4307,4.5659,4.6677,4.5406,4.4785,4.3979,4.2108,4.0118,3.8454,3.7966,3.6897,3.6357,3.7594,3.7831,3.832,3.9956,4.1007,4.2721,4.5775,4.9344,5.258,5.5212,5.7907,5.9985,6.109,6.3174,6.4931,6.6036,6.6112,6.6112,6.6112,6.6112,6.6363,6.694,6.6965,6.7241,6.7769,6.7769,6.7794,6.7794,6.7352,6.6795,6.6235,6.5787,6.507,6.4026,6.4026,6.3803,6.3298,6.3298,6.3298,6.3209,6.2232,6.1222,6.0295,5.9315,5.8326,5.747,5.747,5.747,5.7399,5.6976,5.6414,5.5944,5.5378,5.4278,5.3199,5.3178,5.2516,5.1812,5.1791,5.1791,5.1791,5.1791,5.1791,5.1791,5.1791,5.1791,5.1791,5.1791,5.1791,5.1791,5.1791,5.1791,5.1791,5.1791,5.1791,5.1791,5.1791,5.1791,5.1791,5.1791,5.1791,5.1791,5.1791,5.1791,5.1998,5.2454,5.2495,5.2702,5.3157,5.3178,5.3178,5.3178,5.3178,5.3406,5.3746,5.3746,5.4068,5.4524,5.4524,5.4524,4.2837,4.4064,4.5008,4.4018,4.3178,4.2249,4.0764,3.9002,3.757,3.7173,3.6494,3.6357,3.7594,3.8073,3.8926,4.0763,4.2364,4.4132,4.6537,4.9978,5.3029,5.509,5.8508,6.109,6.2195,6.3626,6.4931,6.6036,6.6112,6.6112,6.6112,6.6112,6.6187,6.6388,6.6388,6.6463,6.6639,6.7041,6.7041,6.6639,6.6866,6.6754,6.6205,6.6429,6.6415,6.6091,6.6091,6.5992,6.5793,6.5397,6.5471,6.5818,6.5116,6.4311,6.3406,6.2794,6.1672,6.0541,6.0541,6.0337,5.995,5.9441,5.8269,5.689,5.635,5.4798,5.3054,5.2412,5.2019,5.1791,5.1791,5.1791,5.1791,5.1791,5.1791,5.1791,5.1791,5.1791,5.1791,5.1791,5.1791,5.1791,5.1791,5.1791,5.1791,5.1791,5.1791,5.1791,5.1791,5.1791,5.1791,5.1791,5.1791,5.1791,5.1791,5.2081,5.2329,5.2495,5.2785,5.3157,5.3613,5.3633,5.3778,5.411,5.411,5.4172,5.4317,5.4317,5.4399,5.4544,5.4544,5.4544,4.0859,4.2191,4.2901,4.1856,4.1218,4.0534,3.9439,3.8062,3.6917,3.6729,3.6445,3.6593,3.7855,3.8436,3.9403,4.1347,4.3184,4.5004,4.7096,5.0499,5.3744,5.6295,5.9092,6.1366,6.2697,6.3827,6.4931,6.6036,6.6112,6.6112,6.6112,6.6112,6.6112,6.6112,6.6338,6.6438,6.6438,6.6789,6.6589,6.581,6.6162,6.6162,6.5835,6.6388,6.6764,6.699,6.7191,6.7292,0.0,6.689,6.6965,6.7292,6.6765,6.6143,6.5403,6.4951,6.4019,6.3148,6.2845,6.2565,6.217,6.1279,5.9632,5.7824,5.6756,5.4988,5.2992,5.206,5.1791,5.1791,5.1791,5.1791,5.1791,5.1791,5.1791,5.1791,5.1791,5.1791,5.1791,5.1791,5.1791,5.1791,5.1791,5.1791,5.1791,5.1791,5.1791,5.1791,5.1791,5.1791,5.1791,5.1791,5.1791,5.1874,5.204,5.2329,5.2578,5.2743,5.3178,5.3633,5.4089,5.4015,5.4234,5.4524,5.4544,5.4544,5.4544,5.4544,5.4544,5.4544,5.4544,5.4544,0.0,3.9883,4.0644,3.9414,3.9082,3.8848,3.8027,3.7207,0.0,3.6621,3.6621,3.7035,3.8256,3.8819,3.983,4.1834,4.3599,4.5439,4.7551,5.1028,5.4743,5.8376,5.9809,6.114,6.2797,6.3902,6.4982,6.6036,6.6112,6.6112,6.6112,6.6112,6.6112,6.6112,6.6639,6.689,6.6865,6.6865,6.6312,6.5233,6.5283,6.5283,6.5258,6.5835,6.6413,6.694,6.7543,6.7794,6.7794,6.7794,6.7819,6.7781,6.7427,6.6983,6.6561,6.6113,6.5663,6.5205,6.4649,6.4408,6.406,6.2439,6.0748,5.8883,5.6902,5.4979,5.3177,5.2242,5.1972,5.1972,5.1882,5.1882,5.1791,5.1791,5.1791,5.1791,5.1791,5.1791,5.1791,5.1791,5.1791,5.1791,5.1791,5.1791,5.1791,5.1791,5.1791,5.1791,5.1791,5.1791,5.1791,5.1791,5.1833,5.2019,5.2454,5.2516,5.2743,5.3199,5.3654,5.4089,5.4524,5.4544,5.4544,5.4544,5.4544,5.4544,5.4544,5.4544,5.4544,5.4544,5.4544,5.4544,3.5527,0.0,3.8613,3.8301,3.7988,3.7617,0.0,3.6562,3.6172,3.6172,3.6172,3.6612,3.8216,3.9065,4.0313,4.3024,4.4757,4.6678,4.9275,5.3497,5.7221,5.9631,6.1291,6.2722,6.3952,6.4705,6.5383,6.6061,6.6112,6.6112,6.6112,6.6112,6.6112,6.6112,6.6237,6.6112,6.5685,6.5685,6.5333,6.4655,6.5082,6.5082,6.4705,6.566,6.6187,6.6363,6.7367,6.7794,6.7794,6.7794,6.8045,6.8422,6.8244,6.8429,6.869,6.8599,6.8419,6.8344,6.7683,6.7051,6.5892,6.3112,6.2031,6.1258,5.8879,5.6931,5.5241,5.418,5.3655,5.3298,5.294,5.2581,5.2242,5.1882,5.1791,5.1791,5.1791,5.1791,5.1791,5.1791,5.1791,5.1791,5.1791,5.1791,5.1791,5.1791,5.1791,5.1791,5.1791,5.1791,5.1791,5.1791,5.2122,5.2371,5.2495,5.2826,5.322,5.3654,5.411,5.442,5.4524,5.4544,5.4544,5.4544,5.4544,5.4544,5.4544,5.4544,5.4544,5.4544,5.4544,5.4544,3.4531,3.5703,3.6758,3.6758,3.6601,3.6367,3.6133,3.5898,3.5742,3.5742,3.6035,3.674,3.8162,3.9702,4.1449,4.3609,4.6127,4.9154,5.2791,5.6153,5.9075,6.1161,6.2496,6.355,6.4379,6.4731,6.5032,6.5333,6.5584,6.5735,6.5735,6.5986,6.6112,6.6112,6.586,6.5584,6.5283,6.5283,6.5007,6.4454,6.4781,6.4881,6.4881,6.5735,6.6262,6.6564,6.7693,6.817,6.8196,6.8447,6.8723,6.8999,6.8999,6.9175,6.9361,6.9361,6.9361,6.93,6.8246,6.6878,6.5246,6.3619,6.3022,6.2529,6.0968,5.9673,5.8222,5.6347,5.5554,5.4939,5.4056,5.3455,5.294,5.1972,5.1791,5.1791,5.1791,5.1791,5.1791,5.1791,5.1791,5.1791,5.1791,5.1791,5.1791,5.1791,5.1791,5.1791,5.1791,5.1998,5.2122,5.2122,5.2536,5.2888,5.3095,5.3344,5.3592,5.382,5.4275,5.4544,5.4544,5.4544,5.4544,5.4544,5.4544,5.4544,5.4544,5.4544,5.4544,5.4544,5.4544,5.4544,3.4394,3.5039,3.5508,3.5634,3.572,3.5787,3.5854,3.5862,3.5803,3.5803,3.6395,3.7311,3.8589,4.0763,4.29,4.4483,4.8092,5.2152,5.6274,5.8478,6.0387,6.2446,6.3299,6.3927,6.453,6.4505,6.4505,6.458,6.4957,6.5157,6.5157,6.5609,6.586,6.586,6.5409,6.5157,6.5157,6.5157,6.4931,6.4454,6.4454,6.4705,6.5183,6.5735,6.6262,6.6789,6.797,6.8497,6.8547,6.9175,6.9361,6.9361,6.9361,6.9361,6.9361,6.9361,6.9351,6.8949,6.7191,6.5403,6.3941,6.3888,6.3682,6.3459,6.2929,6.2552,6.1676,5.9038,5.7659,5.675,5.5356,5.4587,5.39,5.2581,5.2152,5.2062,5.2062,5.1972,5.1902,5.1895,5.1853,5.1833,5.1895,5.1853,5.1791,5.1791,5.1791,5.1833,5.1895,5.2247,5.2516,5.2599,5.3013,5.3427,5.382,5.3903,5.3944,5.3944,5.4317,5.4544,5.4544,5.4606,5.4627,5.4627,5.4627,5.4627,5.4627,5.4627,5.4627,5.4627,5.4627,5.4627,3.4043,3.5019,3.6084,3.6759,3.7132,3.7473,3.7746,3.7779,3.7693,3.7693,3.7796,3.8585,4.0985,4.2516,4.4414,4.7539,5.1414,5.4566,5.612,5.8554,6.0663,6.1969,6.3048,6.4078,6.5057,6.4731,6.4655,6.5132,6.4806,6.458,6.458,6.468,6.4731,6.4731,6.463,6.458,6.458,6.458,6.4555,6.4454,6.4454,6.4505,6.4605,6.5157,6.5459,6.5634,6.7241,6.7919,6.7995,6.9024,6.9361,6.9361,6.9361,6.9361,6.9361,6.9361,6.8848,6.7744,6.5609,6.468,6.432,6.3886,6.4303,6.4843,6.4393,6.4434,6.4508,6.3077,6.0653,5.8259,5.7205,5.6362,5.5401,5.4454,5.3833,5.3476,5.3098,5.2671,5.2347,5.24,5.206,5.1936,5.2309,5.206,5.1791,5.1791,5.1791,5.1936,5.2329,5.2454,5.264,5.3033,5.3468,5.3778,5.3746,5.4213,5.442,5.442,5.4503,5.4544,5.4544,5.4896,5.5082,5.5082,5.5082,5.5082,5.5082,5.5082,5.5082,5.5082,5.5082,5.5082,3.4238,3.5195,3.6308,3.7579,3.843,3.9081,3.9441,3.9923,4.0192,3.9932,3.9908,4.0516,4.2393,4.4301,4.7138,5.1603,5.4173,5.5999,5.7374,5.9156,6.0738,6.1868,6.2722,6.3425,6.3902,6.3726,6.3676,6.3952,6.4002,6.4053,6.4053,6.4304,6.4454,6.4454,6.4454,6.4454,6.4454,6.4454,6.4605,6.4906,6.5208,6.5358,6.5358,6.5609,6.5735,6.5785,6.689,6.7367,6.7417,6.8221,6.8723,6.8999,6.8999,6.9175,6.9311,6.91,6.7919,6.6287,6.5258,6.4329,6.3626,6.4002,6.4454,6.4906,6.5258,6.5333,6.5132,6.4329,6.2677,6.0761,5.9243,5.8594,5.7941,5.6787,5.6397,5.5976,5.5014,5.4384,5.3835,5.3011,5.2702,5.2619,5.2826,5.2681,5.2557,5.2557,5.2557,5.2619,5.2847,5.3075,5.3302,5.3509,5.3944,5.4213,5.4213,5.442,5.4544,5.4544,5.4544,5.4544,5.4544,5.4958,5.5186,5.5186,5.5434,5.5559,5.5559,5.5559,5.5559,5.5538,5.531,5.5186,3.4355,3.5273,3.6377,3.7806,3.9206,4.0409,4.0926,4.1949,4.2668,4.226,4.2336,4.2833,4.438,4.6917,5.0201,5.4699,5.5968,5.6972,5.8629,5.9809,6.0889,6.1893,6.2496,6.2873,6.3023,6.2898,6.2898,6.3023,6.3324,6.35,6.35,6.3877,6.4078,6.4078,6.4078,6.4078,6.4078,6.4228,6.463,6.5283,6.571,6.5986,6.6112,6.6112,6.6036,6.5961,6.6664,6.689,6.6815,6.7518,6.8045,6.8422,6.8422,6.8698,6.8974,6.8296,6.7041,6.5634,6.5383,6.4555,6.3726,6.458,6.4856,6.5007,6.586,6.581,6.5358,6.4806,6.4103,6.3077,6.0987,6.0484,6.0272,5.9045,5.8743,5.8427,5.7089,5.63,5.5527,5.4322,5.3982,5.394,5.4045,5.3982,5.3898,5.3898,5.3898,5.394,5.4066,5.4266,5.4518,5.4623,5.4958,5.5188,5.5188,5.5188,5.5188,5.5188,5.4714,5.4586,5.4689,5.5103,5.5393,5.5496,5.5848,5.6035,5.6035,5.6035,5.6035,5.6035,5.5683,5.5517,3.3984,3.5039,3.6239,3.7044,3.898,4.0932,4.2037,4.3444,4.4605,4.4824,4.4914,4.5736,4.826,5.0978,5.3346,5.5117,5.6269,5.7549,5.9207,6.0412,6.1341,6.1943,6.2496,6.3048,6.3576,6.3149,6.3048,6.3576,6.3174,6.2898,6.2898,6.2923,6.2948,6.2948,6.2948,6.2948,6.2948,6.3475,6.4279,6.5283,6.5333,6.5609,6.6112,6.6112,6.5835,6.5409,6.6513,6.6664,6.6262,6.7342,6.7819,6.7869,6.7869,6.7869,6.7794,6.6689,6.6538,6.6714,6.566,6.5559,6.5886,6.5961,6.5986,6.6011,6.6086,6.6086,6.5936,6.5383,6.5208,6.4553,6.2041,6.1433,6.1401,6.0941,6.0466,5.9973,5.8982,5.8117,5.7289,5.6662,5.6195,5.6021,5.6478,5.6195,5.5891,5.5891,5.5891,5.6043,5.65,5.6587,5.6761,5.7197,5.7262,5.7284,5.7284,5.7284,5.7284,5.7284,5.5546,5.471,5.5124,5.5579,5.6014,5.6449,5.649,5.6511,5.6511,5.6511,5.6511,5.6511,5.649,5.6469,3.526,3.6406,3.7543,3.8367,3.9988,4.1684,4.2955,4.5005,4.691,4.7714,4.8546,4.9523,5.0499,5.2639,5.4583,5.5694,5.7123,5.8529,5.9834,6.0688,6.1391,6.1943,6.2496,6.2923,6.3124,6.2948,6.2923,6.3149,6.2948,6.2822,6.2822,6.2822,6.2822,6.2822,6.2822,6.2822,6.2822,6.3048,6.355,6.4304,6.463,6.4881,6.5107,6.5434,6.5484,6.5333,6.6112,6.6312,6.6137,6.6589,6.6965,6.7317,6.7668,6.7593,6.7241,6.6815,6.6338,6.5911,6.5835,6.5484,6.5208,6.5886,6.5886,6.566,6.6011,6.6112,6.5986,6.5434,6.5283,6.4897,6.3261,6.3418,6.3796,6.3305,6.3387,6.3133,6.1858,6.1151,6.0306,5.9227,5.8819,5.8751,5.8954,5.8819,5.8684,5.8684,5.8684,5.8774,5.8954,5.8977,5.9045,5.9225,5.9247,5.9247,5.9247,5.9632,5.9813,5.9813,5.7929,5.6907,5.7078,5.7828,5.8223,5.8025,5.8028,5.7978,5.7978,5.7978,5.8155,5.8429,5.8523,5.8492,3.6596,3.7647,3.8711,3.9484,4.0764,4.2196,4.3744,4.6357,4.8731,4.9858,5.1393,5.2485,5.2173,5.3711,5.5326,5.6271,5.76,5.8905,6.0136,6.0663,6.119,6.1918,6.2345,6.2647,6.2822,6.2822,6.2822,6.2822,6.2822,6.2822,6.2822,6.2822,6.2822,6.2822,6.2822,6.2822,6.2822,6.2822,6.3023,6.3425,6.3776,6.4128,6.4479,6.4856,6.4931,6.4831,6.5534,6.576,6.5609,6.5961,6.6338,6.6714,6.694,6.689,6.6714,6.6714,6.6338,6.5911,6.6463,6.6162,6.566,6.6614,6.6413,6.5886,6.6262,6.6262,6.6036,6.566,6.5559,6.5333,6.4429,6.4731,6.5183,6.4806,6.5093,6.5075,6.3954,6.3338,6.2629,6.1511,6.1242,6.1242,6.1242,6.1242,6.1242,6.1242,6.1242,6.1242,6.1242,6.1242,6.1242,6.1242,6.1382,6.1475,6.1475,6.2055,6.2359,6.2359,6.1256,6.0345,5.9689,6.0311,6.0468,6.0066,5.9517,5.9395,5.9494,5.9395,5.9668,6.0332,6.0659,6.0793,3.7593,3.8741,3.9686,4.0212,4.1067,4.2434,4.4631,4.733,4.9789,5.1093,5.313,5.434,5.3367,5.4448,5.5767,5.6846,5.7524,5.8478,6.0085,6.0311,6.0738,6.1843,6.1994,6.222,6.2772,6.2822,6.2822,6.2822,6.2822,6.2822,6.2822,6.2822,6.2822,6.2822,6.2822,6.2822,6.2822,6.2822,6.2822,6.2822,6.2822,6.34,6.4454,6.4454,6.4178,6.3751,6.4831,6.4982,6.4555,6.566,6.6112,6.6036,6.5509,6.5634,6.6112,6.6112,6.6488,6.7041,6.7593,6.7794,6.7869,6.8422,6.7869,6.6965,6.6965,6.6564,6.6112,6.6112,6.6112,6.5986,6.5434,6.5308,6.5308,6.5283,6.5368,6.5248,6.4789,6.4353,6.3826,6.3386,6.3298,6.3298,6.3298,6.3298,6.3298,6.3298,6.3298,6.3298,6.3298,6.3298,6.3298,6.3298,6.3843,6.4181,6.4181,6.4686,6.4999,6.4999,6.5481,6.4802,6.2801,6.2707,6.2654,6.2607,6.1066,6.0602,6.111,6.0602,6.0872,6.1935,6.2871,6.3347,3.9516,4.0988,4.226,4.3144,4.4187,4.5301,4.6955,4.8332,5.0294,5.4132,5.5112,5.5304,5.5299,5.5995,5.6646,5.6972,5.7851,5.878,5.9633,6.006,6.0437,6.0788,6.119,6.1492,6.1642,6.1667,6.1667,6.1667,6.1667,6.1667,6.1667,6.1667,6.1667,6.1667,6.1667,6.1667,6.1667,6.2044,6.2245,6.2245,6.2647,6.2998,6.3324,6.3726,6.3827,6.3726,6.4429,6.4831,6.5082,6.5409,6.5308,6.4982,6.5208,6.5383,6.5584,6.5961,6.6212,6.6438,6.7015,6.6965,6.6714,6.7292,6.6965,6.6363,6.6363,6.6237,6.6112,6.6112,6.6112,6.6061,6.5911,6.586,6.576,6.5383,6.5624,6.5853,6.5681,6.5594,6.5421,6.531,6.5223,6.5223,6.5223,6.5223,6.5223,6.5223,6.5223,6.5223,6.5223,6.5223,6.5223,6.5223,6.5831,6.6154,6.6154,6.7022,6.7568,6.7568,6.8064,6.7256,6.4895,6.5159,6.507,6.427,6.313,6.2556,6.2771,6.2556,6.3012,6.4104,6.5141,6.5516,4.0893,4.2821,4.4495,4.5826,4.7205,4.8779,5.0866,5.1294,5.2305,5.5954,5.6576,5.6575,5.6798,5.7148,5.7449,5.765,5.8278,5.8905,5.9433,5.9784,6.006,6.0286,6.0638,6.0939,6.1165,6.119,6.119,6.119,6.119,6.119,6.119,6.119,6.119,6.119,6.119,6.119,6.119,6.1718,6.1994,6.2019,6.2571,6.2822,6.2847,6.3199,6.335,6.3375,6.3927,6.4479,6.4957,6.4731,6.458,6.4479,6.4605,6.4906,6.5333,6.566,6.5936,6.6187,6.6764,6.6589,6.6212,6.6789,6.6589,6.6112,6.6112,6.6112,6.6112,6.6112,6.6112,6.6112,6.6112,6.6112,6.6036,6.5685,6.586,6.6112,6.6112,6.6112,6.6112,6.6112,6.6112,6.6112,6.6112,6.6112,6.6112,6.6112,6.6112,6.6112,6.6112,6.6112,6.6112,6.6112,6.684,6.7317,6.7317,6.8321,6.8949,6.8949,6.925,6.8733,6.7182,6.75,6.7328,6.6472,6.5212,6.4742,6.4954,6.4742,6.5118,6.6193,6.7212,6.7696,4.1633,4.4132,4.6398,4.8098,5.0129,5.2496,5.5459,5.5455,5.5381,5.7046,5.7774,5.8051,5.8177,5.8202,5.8353,5.883,5.893,5.9081,5.9508,5.9558,5.9734,6.0186,6.0236,6.0462,6.0989,6.104,6.104,6.104,6.104,6.104,6.104,6.104,6.104,6.104,6.104,6.104,6.104,6.1567,6.1868,6.1943,6.2496,6.2772,6.2822,6.2822,6.2822,6.2873,6.345,6.3927,6.4279,6.3927,6.4002,6.4354,6.3977,6.4429,6.5308,6.5333,6.5685,6.6187,6.6714,6.6564,6.6187,6.6714,6.6538,6.6112,6.6112,6.6112,6.6112,6.6112,6.6112,6.6112,6.6112,6.6112,6.6112,6.6112,6.6112,6.6112,6.6112,6.6112,6.6112,6.6112,6.6112,6.6112,6.6112,6.6112,6.6112,6.6112,6.6112,6.6112,6.6112,6.6112,6.6112,6.6112,6.7116,6.7769,6.7719,6.8748,6.9351,6.93,6.93,6.93,6.93,6.9311,6.918,6.8726,6.728,6.6794,6.7304,6.6794,6.7095,6.8063,6.8974,6.9361,4.1363,4.4229,4.7017,4.9592,5.2645,5.5384,5.7302,5.7879,5.8086,5.8464,5.8965,5.9648,6.0308,6.0487,6.0512,6.0613,6.0638,6.0537,6.0186,6.0136,6.001,5.9709,5.9684,5.9709,5.9834,5.9859,5.9859,5.9859,5.9859,5.9859,5.9859,5.9859,5.9859,5.9859,5.9859,5.9859,5.9859,6.0412,6.0914,6.1366,6.1918,6.2395,6.2822,6.2822,6.2822,6.2873,6.345,6.35,6.3249,6.4002,6.4128,6.3927,6.4655,6.5082,6.5333,6.5785,6.6011,6.6137,6.6262,6.6212,6.6137,6.6262,6.6212,6.6112,6.6112,6.6112,6.6112,6.6112,6.6112,6.6112,6.6112,6.6112,6.6112,6.6112,6.6112,6.6112,6.6112,6.6112,6.6112,6.6112,6.6112,6.6112,6.6112,6.6112,6.6112,6.6112,6.6112,6.6112,6.6112,6.6112,6.6112,6.6112,6.7116,6.7618,6.7191,6.817,6.8622,6.817,6.8145,6.8145,6.8145,6.8974,6.918,6.8726,6.8038,6.7672,6.788,6.7672,6.7947,6.8544,6.918,6.9361,4.0803,4.4274,4.8187,5.3035,5.5829,5.7737,5.9359,6.0039,6.0372,6.0372,6.0422,6.0601,6.114,6.119,6.119,6.119,6.119,6.109,6.0788,6.0738,6.0512,5.996,5.9885,5.9784,5.9508,5.9483,5.9483,5.9483,5.9483,5.9483,5.9483,5.9483,5.9483,5.9483,5.9483,5.9483,5.9483,6.0035,6.0613,6.119,6.1743,6.2295,6.2822,6.2822,6.2822,6.2847,6.3149,6.3274,6.3299,6.3852,6.4078,6.4128,6.468,6.5057,6.5333,6.5609,6.5886,6.6112,6.6112,6.6112,6.6112,6.6112,6.6112,6.6112,6.6112,6.6112,6.6112,6.6112,6.6112,6.6112,6.6112,6.6112,6.6112,6.6112,6.6112,6.6112,6.6112,6.6112,6.6112,6.6112,6.6112,6.6112,6.6112,6.6112,6.6112,6.6112,6.6112,6.6112,6.6112,6.6112,6.6112,6.6112,6.7116,6.7568,6.7015,6.7995,6.8396,6.7819,6.7794,6.7794,6.7794,6.8346,6.8594,6.869,6.8668,6.8701,6.8701,6.8701,6.8792,6.8999,6.927,6.9361,3.9996,4.4619,5.0009,5.6594,5.8691,5.9544,6.0985,6.1667,6.2044,6.2119,6.1793,6.1441,6.1341,6.1391,6.1441,6.1341,6.1416,6.1441,6.1341,6.1316,6.1115,6.0537,6.0462,6.0286,5.9834,5.9784,5.9734,5.9633,5.9633,5.9583,5.9508,5.9483,5.9483,5.9483,5.9483,5.9483,5.9483,5.996,6.0512,6.119,6.1843,6.2395,6.2822,6.2822,6.2822,6.2822,6.2822,6.3099,6.355,6.3751,6.4078,6.4479,6.468,6.5032,6.5434,6.5434,6.571,6.6112,6.6112,6.6112,6.6112,6.6112,6.6112,6.6112,6.6112,6.6112,6.6112,6.6112,6.6112,6.6112,6.6112,6.6112,6.6112,6.6112,6.6112,6.6112,6.6112,6.6112,6.6112,6.6112,6.6112,6.6112,6.6112,6.6112,6.6112,6.6112,6.6112,6.6112,6.6112,6.6187,6.6262,6.6262,6.7267,6.7719,6.7166,6.8045,6.8396,6.7819,6.7719,6.7668,6.7668,6.7668,6.7869,6.8321,6.8974,6.9351,6.9361,6.9361,6.9361,6.9361,6.9361,6.9361,3.9207,4.5959,5.3,5.7608,5.9498,6.0434,6.1642,6.1943,6.2144,6.2621,6.2672,6.2471,6.1994,6.2295,6.2446,6.1969,6.2295,6.2446,6.1969,6.1893,6.1692,6.114,6.1065,6.104,6.0964,6.0964,6.0738,6.0236,6.0211,6.001,5.9508,5.9483,5.9483,5.9483,5.9483,5.9483,5.9483,5.9558,6.0136,6.119,6.222,6.2747,6.2822,6.2822,6.2822,6.2822,6.2822,6.2873,6.3023,6.3977,6.4404,6.4555,6.5509,6.5936,6.6011,6.6011,6.6036,6.6112,6.6112,6.6112,6.6112,6.6112,6.6112,6.6112,6.6112,6.6112,6.6112,6.6112,6.6112,6.6112,6.6112,6.6112,6.6112,6.6112,6.6112,6.6112,6.6112,6.6112,6.6112,6.6112,6.6112,6.6112,6.6112,6.6112,6.6112,6.6112,6.6112,6.6112,6.6112,6.6564,6.6865,6.6865,6.7844,6.8296,6.7744,6.8271,6.8396,6.7819,6.7342,6.7091,6.7091,6.7091,6.7116,6.7191,6.8221,6.8974,6.9361,6.9361,6.9361,6.9361,6.9361,6.9361,4.2201,4.8108,5.3624,5.8883,6.0455,6.109,6.222,6.2471,6.2546,6.2772,6.2822,6.2747,6.2496,6.2672,6.2747,6.2496,6.2672,6.2747,6.2496,6.2471,6.227,6.1718,6.1642,6.1517,6.1215,6.119,6.109,6.0814,6.0512,6.0211,5.996,5.9659,5.9483,5.9483,5.9483,5.9483,5.9483,5.9483,5.9885,6.0713,6.1843,6.237,6.237,6.2697,6.2822,6.2822,6.2822,6.2998,6.335,6.3827,6.4203,6.4505,6.5007,6.5183,6.5183,6.5183,6.5383,6.566,6.566,6.586,6.6112,6.6112,6.6112,6.6112,6.6112,6.6112,6.6112,6.6112,6.6112,6.6112,6.6112,6.6112,6.6112,6.6112,6.6112,6.6112,6.6112,6.6112,6.6112,6.6112,6.6363,6.6488,6.6162,6.6388,6.6488,6.6162,6.6112,6.6237,6.6564,6.6815,6.7091,6.7417,6.8145,6.8396,6.7844,6.8296,6.8396,6.7819,6.7568,6.7292,6.699,6.6965,6.7116,6.7417,6.8221,6.8597,6.8522,6.8848,6.8823,6.8522,6.8522,6.8522,4.4179,4.8743,5.2675,5.8433,6.018,6.0785,6.2119,6.2521,6.2647,6.2797,6.2822,6.2822,6.2822,6.2822,6.2772,6.2647,6.2747,6.2822,6.2822,6.2822,6.2672,6.227,6.222,6.2044,6.1642,6.1592,6.1542,6.1391,6.0989,6.0613,6.0337,5.9935,5.9633,5.9508,5.9483,5.9483,5.9483,5.9633,5.991,6.0337,6.1316,6.1793,6.1818,6.222,6.2496,6.2621,6.2772,6.3073,6.3475,6.3626,6.3927,6.4279,6.4404,6.4454,6.4479,6.463,6.4931,6.5308,6.5459,6.576,6.6112,6.6112,6.6112,6.6112,6.6112,6.6112,6.6112,6.6112,6.6112,6.6112,6.6112,6.6112,6.6112,6.6112,6.6112,6.6112,6.6112,6.6237,6.6338,6.6338,6.6789,6.7041,6.6614,6.689,6.7041,6.6614,6.6538,6.6689,6.7141,6.7317,6.7543,6.797,6.8497,6.8673,6.8246,6.8597,6.8648,6.8246,6.8095,6.7819,6.7417,6.7267,6.7367,6.7794,6.8346,6.8497,6.8221,6.8622,6.8622,6.8221,6.8221,6.8221,4.2996,4.6634,5.0359,5.5112,5.7269,5.8768,6.081,6.1667,6.2195,6.2722,6.2822,6.2822,6.2822,6.2822,6.2647,6.2144,6.2496,6.2822,6.2822,6.2822,6.2822,6.2797,6.2797,6.2772,6.2747,6.2747,6.2521,6.1994,6.1943,6.1441,6.0387,6.0286,6.0035,5.9508,5.9483,5.9483,5.9483,6.001,6.0286,6.0337,6.0939,6.1215,6.1215,6.1266,6.1542,6.2069,6.2596,6.2847,6.2923,6.3475,6.3701,6.3776,6.4279,6.4454,6.453,6.5057,6.5258,6.5358,6.5886,6.6086,6.6112,6.6112,6.6112,6.6112,6.6112,6.6112,6.6112,6.6112,6.6112,6.6112,6.6112,6.6112,6.6112,6.6112,6.6112,6.6112,6.6112,6.6538,6.694,6.694,6.7367,6.7744,6.7719,6.7744,6.7744,6.7719,6.7719,6.7719,6.7744,6.8221,6.8547,6.8572,6.9074,6.9401,6.9351,6.9285,6.9401,6.9351,6.8874,6.8572,6.8547,6.8045,6.7769,6.7794,6.8346,6.8874,6.9351,6.9285,6.9285,6.9351,6.9351,6.9351,4.1723,4.4505,4.7609,5.204,5.4347,5.6391,5.9562,6.0692,6.1421,6.2565,6.2822,6.2822,6.2822,6.2822,6.2772,6.2571,6.2697,6.2822,6.2822,6.2822,6.2822,6.2822,6.2822,6.2822,6.2822,6.2822,6.2829,6.2952,6.2269,6.1847,6.1651,6.0965,6.0481,6.0278,6.0278,6.0278,6.0278,6.0686,6.0712,6.0197,6.0778,6.0874,6.0663,6.1391,6.1818,6.2044,6.2596,6.2822,6.2847,6.3048,6.3149,6.3149,6.335,6.3425,6.3475,6.4053,6.4479,6.4831,6.5383,6.581,6.6112,6.6112,6.6112,6.6112,6.6112,6.6112,6.6112,6.6112,6.6112,6.6112,6.6112,6.6112,6.6212,6.6589,6.6664,6.6764,6.7116,6.7066,6.6965,6.6965,6.7719,6.8221,6.7869,6.8095,6.8221,6.7844,6.7794,6.7919,6.8296,6.8497,6.8748,6.9125,6.9325,6.9361,6.9361,6.9361,6.9361,6.9361,6.925,6.8999,6.8648,6.8447,6.8321,6.8321,6.8522,6.8547,6.8396,6.8396,6.8396,6.8371,6.802,6.8045,4.0442,4.26,4.5089,4.8732,5.1106,5.3497,5.7294,5.8865,6.0014,6.1888,6.2421,6.2596,6.2797,6.2822,6.2822,6.2822,6.2822,6.2822,6.2822,6.2822,6.2822,6.2822,6.2822,6.2822,6.2822,6.2904,6.3073,6.322,6.2669,6.2242,6.2172,6.1429,6.1018,6.1117,6.1318,6.1519,6.1669,6.1819,6.1519,6.0939,6.0737,6.0528,6.0242,6.1094,6.1542,6.1768,6.232,6.2647,6.2822,6.2822,6.2822,6.2822,6.2822,6.2948,6.3174,6.3751,6.4279,6.4831,6.5383,6.581,6.6112,6.6112,6.6112,6.6112,6.6112,6.6112,6.6112,6.6112,6.6112,6.6112,6.6112,6.6262,6.6538,6.7116,6.7267,6.7367,6.7719,6.7518,6.7317,6.7493,6.8271,6.8773,6.8422,6.8648,6.8773,6.8396,6.8346,6.8497,6.8848,6.8899,6.9049,6.9401,6.9361,6.9361,6.9361,6.9361,6.9361,6.9361,6.9361,6.9275,6.8899,6.8899,6.8899,6.8899,6.8899,6.8723,6.8346,6.817,6.817,6.8346,6.7794,6.7819,0.0,0.0,0.0,4.516,4.7475,5.0194,5.3973,5.6079,5.7946,6.0584,6.1592,6.2169,6.2722,6.2847,6.2847,6.2822,6.2822,6.2822,6.2822,6.2822,6.2822,6.2822,6.2822,6.2822,6.2822,6.323,6.3245,6.2712,6.3035,6.2787,6.171,6.1608,6.171,6.1947,6.2688,6.3226,6.3665,6.3226,6.2884,6.2492,6.0939,6.0125,6.0125,6.0216,6.0638,6.119,6.1768,6.232,6.2797,6.2822,6.2822,6.2822,6.2822,6.3174,6.3726,6.4279,6.4806,6.5358,6.5911,6.6112,6.6112,6.6112,6.6112,6.6112,6.6112,6.6112,6.6112,6.6112,6.6112,6.6112,6.6137,6.6564,6.7141,6.7693,6.7819,6.7819,6.7844,6.7819,6.797,6.8522,6.9074,6.9361,6.9361,6.9361,6.9361,6.9361,6.9361,6.9361,6.9361,6.9361,6.9361,6.9361,6.9361,6.9361,6.9361,6.9451,6.9451,6.9361,6.9451,6.9451,6.9361,6.9361,6.9361,6.9361,6.9451,6.9451,6.9451,6.8874,6.8874,6.9401,6.8874,6.8899,3.8584,0.0,0.0,0.0,0.0,0.0,5.1702,5.3955,5.6054,5.9278,6.104,6.2169,6.2722,6.3174,6.3324,6.2898,6.2822,6.2822,6.2822,6.2822,6.2822,6.2822,6.2822,6.2822,6.2822,6.323,6.3584,6.3673,6.3278,6.3078,6.3155,6.2348,6.2205,6.2741,6.3792,6.4346,6.4446,6.4346,6.3838,6.2937,6.162,6.0737,6.015,6.0553,6.0725,6.0613,6.1592,6.2094,6.227,6.2672,6.2822,6.2822,6.2822,6.2923,6.3174,6.4128,6.4555,6.4831,6.5785,6.6112,6.6112,6.6112,6.6112,6.6112,6.6112,6.6112,6.6112,6.6112,6.6112,6.6212,6.6639,6.7141,6.7719,6.8271,6.8396,6.8497,6.8899,6.8673,6.8447,6.8597,6.9074,6.9361,6.9361,6.9361,6.9361,6.9361,6.9361,6.9361,6.9361,6.9361,6.9361,6.9361,6.9361,6.9361,6.9361,6.9812,6.9786,6.9451,6.9786,6.9812,6.9451,6.9361,6.9361,6.9361,6.9812,6.9966,6.9966,6.8675,6.8321,6.8848,6.8698,6.8698,3.8478,3.9059,4.0009,4.1754,0.0,0.0,4.9211,5.1388,5.3452,5.7024,5.893,6.0236,6.1266,6.1718,6.1843,6.1492,6.1642,6.2019,6.2722,6.2822,6.2822,6.2822,6.2822,6.2822,6.2822,6.3392,6.3776,6.3812,6.3698,6.3519,6.3358,6.2469,6.247,6.3553,6.4779,6.5637,6.6046,6.5637,6.4995,6.4011,6.222,6.1117,6.066,6.0863,6.0831,6.0622,6.1345,6.1873,6.226,6.2588,6.284,6.3067,6.3311,6.3437,6.3823,6.4901,6.5441,6.5855,6.689,6.7112,6.6942,6.6942,6.6771,6.6711,6.6711,6.6711,6.6711,6.6856,6.6771,6.6803,6.7464,6.7743,6.7995,6.8773,6.9153,6.9318,6.9376,6.938,6.9217,6.8974,6.9225,6.9361,6.9361,6.9361,6.9361,6.9361,6.9361,6.9361,6.9361,6.9361,6.9361,6.9361,6.9361,6.9541,6.9696,6.9966,7.0145,7.0056,7.0145,7.0056,6.9722,6.9541,6.9541,6.9722,7.0056,7.0006,6.9815,6.8826,6.8459,6.8448,6.8524,6.8663,3.8966,3.9618,4.0563,4.1661,4.2341,0.0,4.6743,4.858,5.0622,5.4114,5.5817,5.7148,5.8755,5.9031,5.9031,5.9031,5.9558,6.0588,6.2395,6.2697,6.2772,6.2822,6.2822,6.2822,6.2822,6.3554,6.3914,6.3427,6.4038,6.3959,6.2888,6.2287,6.2693,6.4165,6.5637,6.6762,6.761,6.6832,6.6131,6.5479,6.2789,6.1571,6.1445,6.1198,6.1041,6.1014,6.118,6.1789,6.2669,6.2825,6.3181,6.3635,6.3958,6.4427,6.497,6.6132,6.6892,6.752,6.8564,6.8716,6.8351,6.8267,6.7957,6.7646,6.7561,6.7561,6.7646,6.8041,6.7873,6.7792,6.829,6.8132,6.797,6.9024,6.9699,6.9904,6.9531,6.98,6.998,6.9606,6.9451,6.9361,6.9361,6.9361,6.9361,6.9361,6.9361,6.9361,6.9361,6.9361,6.9361,6.9361,6.9361,6.9631,7.0145,7.0235,7.0414,7.0859,7.0592,7.0324,7.0235,6.9786,6.9812,7.0235,7.0324,7.0056,6.9367,6.928,6.886,6.8245,6.8376,6.8674,4.0672,4.094,4.1355,4.2427,4.2754,0.0,4.514,4.6811,4.8604,5.0905,5.298,5.4737,5.5968,5.6194,5.6194,5.6194,5.7022,5.8579,6.114,6.1893,6.2345,6.2772,6.2822,6.2822,6.2822,6.3554,6.4094,6.3966,6.3908,6.3541,6.2862,6.2287,6.2545,6.3773,6.5209,6.637,6.7195,6.7027,6.6609,6.5834,6.3746,6.2444,6.1796,6.1448,6.1145,6.0789,6.1299,6.2069,6.3077,6.4143,6.4375,6.3958,6.4064,6.4332,6.4888,6.6235,6.7348,6.8305,6.9589,7.0126,7.0038,6.938,6.8852,6.8377,6.773,6.7704,6.8125,6.8544,6.8602,6.8481,6.8382,6.7725,6.7379,6.841,6.8738,6.9016,6.9738,6.9663,6.9613,6.998,6.9722,6.9361,6.9361,6.9361,6.9361,6.9361,6.9361,6.9361,6.9361,6.9361,6.9361,6.9361,6.9361,6.9631,7.0145,7.0503,7.077,7.0859,7.1151,7.1151,7.077,7.0681,7.0681,7.077,7.1126,7.1024,7.0341,6.954,6.8655,6.7656,6.8134,6.8208,4.2012,4.2086,4.2356,4.3413,4.321,0.0,0.0,4.554,4.6645,4.8698,5.0268,5.1674,5.308,5.3356,5.3356,5.3356,5.4486,5.6143,5.8378,6.0387,6.2019,6.3124,6.2998,6.2822,6.2822,6.3554,6.428,6.4761,6.4091,6.3541,6.328,6.2443,6.2396,6.3406,6.4446,6.5522,6.6567,6.6651,6.6581,6.6286,6.4545,6.3379,6.2741,6.2083,6.1553,6.1067,6.1429,6.22,6.3356,6.4725,6.5589,6.6098,6.6027,6.6211,6.6732,6.7945,6.8791,6.9639,7.1089,7.1454,7.1118,7.061,7.0173,6.9707,6.8961,6.9515,7.0418,7.0418,7.0065,6.9594,6.9332,6.8494,6.7873,6.8606,6.902,6.9347,6.9911,7.0014,7.0105,7.049,7.0324,6.9991,6.9451,6.9361,6.9361,6.9361,6.92,6.9125,6.9401,6.92,6.915,6.9401,6.9361,6.9722,7.0503,7.077,7.1126,7.1594,7.1594,7.1506,7.1214,7.1037,7.1063,7.1214,7.1682,7.1461,7.0598,7.0144,6.929,6.8177,6.8208,6.8237,4.3573,4.3465,4.3564,4.4304,4.3689,4.3191,0.0,0.0,0.0,4.6778,4.7581,4.841,4.9891,5.0167,5.0193,5.0318,5.1774,5.3532,5.5315,5.8077,6.0688,6.2797,6.2621,6.2395,6.2496,6.3249,6.408,6.4743,6.3933,6.3358,6.3358,6.2469,6.2321,6.3037,6.3865,6.4878,6.6031,6.6441,6.6651,6.6665,6.5264,6.4374,6.3992,6.32,6.2548,6.213,6.227,6.3066,6.4412,6.5532,6.7071,6.8707,6.8408,6.8497,6.8978,6.9956,7.0687,7.1288,7.2783,7.2882,7.2389,7.1758,7.1311,7.0853,7.0744,7.1955,7.3146,7.2672,7.1847,7.0988,7.0512,6.9248,6.8271,6.8818,6.9291,6.9644,6.984,7.0117,7.0446,7.0688,7.064,7.0337,6.9761,6.9722,6.9671,6.957,6.9167,6.9016,6.9343,6.9091,6.9066,6.952,6.9646,7.0056,7.0948,7.1037,7.1417,7.221,7.1946,7.177,7.177,7.1417,7.1329,7.177,7.2122,7.1748,7.0598,7.0598,6.9997,6.8764,6.8455,6.852,4.5905,4.5554,4.5078,4.4703,4.4452,4.4184,4.3382,0.0,4.4568,4.4317,0.0,4.5321,4.6024,0.0,0.0,4.6803,4.8661,5.082,5.3005,5.4461,5.6646,6.0261,6.0638,6.0814,6.1316,6.2135,6.2559,6.2535,6.237,6.2156,6.2156,6.2051,6.2321,6.3037,6.4183,6.5121,6.6031,6.7056,6.7403,6.7056,6.6215,6.5577,6.5193,6.498,6.4856,6.4802,6.4782,6.585,6.7671,6.7909,6.9185,7.0943,7.0181,7.0164,7.0662,7.1421,7.233,7.3313,7.4209,7.4737,7.473,7.2855,7.1728,7.1419,7.2565,7.4028,7.5211,7.45,7.3354,7.214,7.0934,6.9097,6.7689,6.819,6.83,6.8624,6.9508,6.9468,6.9368,6.9877,6.9634,6.9593,7.0528,7.0681,7.0528,7.0017,6.9914,6.9684,6.9224,6.9582,6.9889,6.994,7.04,7.0948,7.1506,7.1506,7.177,7.2297,7.221,7.221,7.221,7.221,7.221,7.221,7.2297,7.1748,7.0598,7.0598,6.9997,6.8764,6.8764,6.8565,4.8411,4.7339,4.6213,4.605,4.5095,4.4116,4.3966,4.4041,4.4166,4.4267,0.0,0.0,0.0,0.0,0.0,0.0,4.7606,4.9289,5.1197,5.2151,5.421,5.8403,5.8604,5.8831,5.9943,6.0709,6.1147,6.1191,6.0895,6.0862,6.145,6.179,6.2321,6.3037,6.3965,6.4978,6.6031,6.6651,6.7138,6.7472,6.6581,6.6496,6.6959,6.6974,6.7034,6.7107,6.7394,6.8082,6.9048,6.9893,7.1047,7.2262,7.2724,7.2586,7.2215,7.2544,7.3103,7.3779,7.4445,7.4515,7.4195,7.3311,7.293,7.3039,7.4395,7.5545,7.6375,7.5801,7.4366,7.2775,7.2007,7.0418,6.9044,6.9346,6.9346,6.9478,6.9999,6.971,6.9612,7.0211,7.0144,7.0205,7.1008,7.0442,6.9783,6.9552,6.9245,6.9065,6.9056,6.9091,6.9296,6.9962,7.0244,7.0703,7.1542,7.1594,7.177,7.2297,7.2297,7.2297,7.2297,7.2297,7.2297,7.2297,7.2297,7.1748,7.0598,7.0598,6.9997,6.8764,6.8764,6.868,5.0783,4.9076,4.7501,4.6964,4.5573,4.4242,4.4192,4.4091,4.4141,4.4543,4.507,0.0,0.0,0.0,4.6476,4.6326,0.0,4.8335,4.9565,5.0092,5.19,5.6043,5.657,5.7021,5.8351,5.9211,5.9689,5.9621,5.9631,6.0002,6.0849,6.1581,6.2396,6.3259,6.4083,6.505,6.6173,6.6651,6.7207,6.7845,6.7207,6.745,6.8552,6.8868,6.9067,6.9308,6.9791,7.0207,7.0688,7.1581,7.2471,7.329,7.4484,7.4387,7.3661,7.3661,7.3831,7.4198,7.4573,7.4202,7.3589,7.4121,7.4279,7.4524,7.5895,7.6853,7.7372,7.6853,7.5106,7.3326,7.3067,7.1714,7.05,7.0608,7.0608,7.047,7.0429,6.9952,6.9579,7.0023,7.0128,7.0285,7.0834,7.0231,6.9746,6.9746,6.9386,6.9231,6.9489,6.9283,6.9437,7.0287,7.0519,7.0978,7.1718,7.177,7.1946,7.2297,7.2297,7.2297,7.2297,7.2297,7.2297,7.2297,7.2297,7.1801,7.0807,7.0677,7.0076,6.9082,6.8926,6.8764,5.2896,5.1079,4.9157,4.691,4.5874,4.502,4.3388,4.384,4.4593,4.4618,4.507,4.5648,4.62,4.6753,4.6867,4.6401,4.7205,0.0,0.0,4.8008,4.9289,5.2678,5.4486,5.5666,5.6244,5.7458,5.8071,5.7508,5.8667,5.9647,6.0222,6.1346,6.2545,6.3626,6.4762,6.5763,6.6595,6.761,6.8159,6.8313,6.8159,6.8709,6.9786,7.0326,7.0935,7.1573,7.1573,7.2204,7.3052,7.2856,7.3349,7.4288,7.4731,7.4869,7.4869,7.4869,7.4869,7.4869,7.4899,7.4214,7.3676,7.5378,7.5639,7.5504,7.7122,7.8136,7.8572,7.777,7.5715,7.3767,7.3823,7.2537,7.1338,7.1847,7.1607,7.1204,7.0771,6.9733,6.879,6.8816,6.8899,6.9082,6.9657,7.0651,7.1296,7.1296,7.127,7.1173,7.0651,7.0957,7.127,7.1322,7.1844,7.2271,7.2297,7.2297,7.2297,7.2297,7.2297,7.2297,7.2297,7.2297,7.2297,7.2297,7.2297,7.1984,7.1382,7.0834,7.0285,6.9657,6.9108,6.8764,5.6553,5.4714,5.2906,5.1413,4.9738,4.8239,4.7283,4.7302,4.7663,4.811,4.8937,4.9894,5.0887,5.0378,4.9691,4.9237,4.8353,4.7752,0.0,4.7606,4.8234,5.0469,5.2528,5.3903,5.4385,5.5832,5.6724,5.6585,5.7403,5.8414,5.9594,6.0771,6.2223,6.4065,6.5352,6.6553,6.7679,6.8237,6.8673,6.9001,6.8644,6.9428,7.1151,7.1833,7.2747,7.3853,7.3853,7.4041,7.4288,7.4218,7.4385,7.4731,7.4869,7.4869,7.4869,7.4869,7.4869,7.4869,7.4594,7.465,7.4923,7.5566,7.627,7.7005,7.7755,7.8354,7.8644,7.7843,7.6196,7.4646,7.478,7.3901,7.3039,7.3303,7.2723,7.206,7.1714,7.093,7.0316,7.0342,7.0634,7.0916,7.1242,7.1319,7.1278,7.0912,7.086,7.0807,7.0624,7.0755,7.1017,7.1356,7.1592,7.1879,7.2271,7.2297,7.2297,7.2297,7.2297,7.2297,7.2297,7.2297,7.2297,7.2297,7.2297,7.201,7.1409,7.1226,7.0651,6.9684,6.9501,6.9213,6.0515,5.8778,5.7004,5.5895,5.4038,5.2098,5.0928,5.1035,5.1376,5.175,5.2925,5.4323,5.5473,5.4304,5.2896,5.1869,5.0047,4.8466,0.0,4.7355,4.7531,4.8586,5.0519,5.1967,5.2641,5.4283,5.5344,5.5375,5.6211,5.7398,5.8993,5.996,6.1582,6.3885,6.5526,6.6943,6.8198,6.9012,6.9629,6.986,6.9834,7.0711,7.2344,7.2984,7.3851,7.4869,7.4869,7.4869,7.4869,7.4869,7.4869,7.4869,7.4869,7.4869,7.4869,7.4869,7.4869,7.4899,7.4892,7.5209,7.5768,7.6314,7.7025,7.7766,7.8265,7.8572,7.8644,7.799,7.6749,7.5592,7.5772,7.5288,7.4752,7.4885,7.3901,7.3067,7.3107,7.226,7.163,7.2037,7.2221,7.2399,7.2564,7.19,7.1356,7.1226,7.12,7.12,7.12,7.12,7.133,7.167,7.1722,7.1879,7.2271,7.2297,7.2297,7.2297,7.2297,7.2297,7.2297,7.2297,7.2297,7.2297,7.2297,7.2114,7.1722,7.1513,7.0912,6.9997,6.9788,6.9396]}]]